<?xml version="1.0" encoding="UTF-8" standalone="no" ?>
<gpx xmlns="http://www.topografix.com/GPX/1/1" xmlns:xsi="http://www.w3.org/2001/XMLSchema-instance" xsi:schemaLocation="http://www.topografix.com/GPX/1/1 http://www.topografix.com/GPX/1/1/gpx.xsd" version="1.1" creator="VisuGPX - https://www.visugpx.com">
  <metadata>
    <name>GR20</name>
    <desc><![CDATA[GR20 - Juin 2015]]></desc>
  </metadata>
  <trk>
    <name><![CDATA[GR20 Usciolu - Prati]]></name>
    <trkseg>
      <trkpt lat="41.93525" lon="9.2065">
        <ele>276.4</ele>
        <time>2015-06-21T04:19:21Z</time>
      </trkpt>
      <trkpt lat="41.93525" lon="9.2065">
        <ele>269</ele>
        <time>2015-06-21T04:19:22Z</time>
      </trkpt>
      <trkpt lat="41.93525" lon="9.2065">
        <ele>262</ele>
        <time>2015-06-21T04:19:23Z</time>
      </trkpt>
      <trkpt lat="41.93525" lon="9.2065">
        <ele>255</ele>
        <time>2015-06-21T04:19:24Z</time>
      </trkpt>
      <trkpt lat="41.93525" lon="9.2065">
        <ele>251.6</ele>
        <time>2015-06-21T04:19:25Z</time>
      </trkpt>
      <trkpt lat="41.93525" lon="9.2065">
        <ele>250</ele>
        <time>2015-06-21T04:19:26Z</time>
      </trkpt>
      <trkpt lat="41.93526" lon="9.2065">
        <ele>253.6</ele>
        <time>2015-06-21T04:19:27Z</time>
      </trkpt>
      <trkpt lat="41.93526" lon="9.2065">
        <ele>272</ele>
        <time>2015-06-21T04:19:28Z</time>
      </trkpt>
      <trkpt lat="41.93527" lon="9.2065">
        <ele>304.8</ele>
        <time>2015-06-21T04:19:29Z</time>
      </trkpt>
      <trkpt lat="41.93527" lon="9.2065">
        <ele>344</ele>
        <time>2015-06-21T04:19:30Z</time>
      </trkpt>
      <trkpt lat="41.93528" lon="9.2065">
        <ele>385.6</ele>
        <time>2015-06-21T04:19:31Z</time>
      </trkpt>
      <trkpt lat="41.93529" lon="9.20649">
        <ele>427.8</ele>
        <time>2015-06-21T04:19:32Z</time>
      </trkpt>
      <trkpt lat="41.9353" lon="9.20647">
        <ele>469.6</ele>
        <time>2015-06-21T04:19:33Z</time>
      </trkpt>
      <trkpt lat="41.9353" lon="9.20646">
        <ele>510.6</ele>
        <time>2015-06-21T04:19:34Z</time>
      </trkpt>
      <trkpt lat="41.93531" lon="9.20645">
        <ele>550.6</ele>
        <time>2015-06-21T04:19:35Z</time>
      </trkpt>
      <trkpt lat="41.93532" lon="9.20644">
        <ele>589.4</ele>
        <time>2015-06-21T04:19:36Z</time>
      </trkpt>
      <trkpt lat="41.93532" lon="9.20645">
        <ele>627</ele>
        <time>2015-06-21T04:19:37Z</time>
      </trkpt>
      <trkpt lat="41.93532" lon="9.20645">
        <ele>663.4</ele>
        <time>2015-06-21T04:19:38Z</time>
      </trkpt>
      <trkpt lat="41.93532" lon="9.20646">
        <ele>699</ele>
        <time>2015-06-21T04:19:39Z</time>
      </trkpt>
      <trkpt lat="41.93533" lon="9.20647">
        <ele>734</ele>
        <time>2015-06-21T04:19:40Z</time>
      </trkpt>
      <trkpt lat="41.93533" lon="9.20648">
        <ele>767.8</ele>
        <time>2015-06-21T04:19:41Z</time>
      </trkpt>
      <trkpt lat="41.93533" lon="9.20649">
        <ele>800.6</ele>
        <time>2015-06-21T04:19:42Z</time>
      </trkpt>
      <trkpt lat="41.93533" lon="9.20649">
        <ele>832.4</ele>
        <time>2015-06-21T04:19:43Z</time>
      </trkpt>
      <trkpt lat="41.93533" lon="9.2065">
        <ele>863</ele>
        <time>2015-06-21T04:19:44Z</time>
      </trkpt>
      <trkpt lat="41.93533" lon="9.20651">
        <ele>892.8</ele>
        <time>2015-06-21T04:19:45Z</time>
      </trkpt>
      <trkpt lat="41.93533" lon="9.20652">
        <ele>921.6</ele>
        <time>2015-06-21T04:19:46Z</time>
      </trkpt>
      <trkpt lat="41.93533" lon="9.20652">
        <ele>949.4</ele>
        <time>2015-06-21T04:19:47Z</time>
      </trkpt>
      <trkpt lat="41.93533" lon="9.20653">
        <ele>976.2</ele>
        <time>2015-06-21T04:19:48Z</time>
      </trkpt>
      <trkpt lat="41.93532" lon="9.20653">
        <ele>1002.2</ele>
        <time>2015-06-21T04:19:49Z</time>
      </trkpt>
      <trkpt lat="41.93532" lon="9.20654">
        <ele>1027.2</ele>
        <time>2015-06-21T04:19:50Z</time>
      </trkpt>
      <trkpt lat="41.93532" lon="9.20654">
        <ele>1051.6</ele>
        <time>2015-06-21T04:19:51Z</time>
      </trkpt>
      <trkpt lat="41.93532" lon="9.20655">
        <ele>1075</ele>
        <time>2015-06-21T04:19:52Z</time>
      </trkpt>
      <trkpt lat="41.93532" lon="9.20656">
        <ele>1097.6</ele>
        <time>2015-06-21T04:19:53Z</time>
      </trkpt>
      <trkpt lat="41.93532" lon="9.20656">
        <ele>1119.6</ele>
        <time>2015-06-21T04:19:54Z</time>
      </trkpt>
      <trkpt lat="41.93532" lon="9.20657">
        <ele>1140.8</ele>
        <time>2015-06-21T04:19:55Z</time>
      </trkpt>
      <trkpt lat="41.93533" lon="9.20657">
        <ele>1621.6</ele>
        <time>2015-06-21T04:19:56Z</time>
      </trkpt>
      <trkpt lat="41.93533" lon="9.20657">
        <ele>1621.8</ele>
        <time>2015-06-21T04:19:57Z</time>
      </trkpt>
      <trkpt lat="41.93533" lon="9.20658">
        <ele>1622</ele>
        <time>2015-06-21T04:19:58Z</time>
      </trkpt>
      <trkpt lat="41.93534" lon="9.20658">
        <ele>1622.2</ele>
        <time>2015-06-21T04:19:59Z</time>
      </trkpt>
      <trkpt lat="41.93534" lon="9.20658">
        <ele>1622.4</ele>
        <time>2015-06-21T04:20:00Z</time>
      </trkpt>
      <trkpt lat="41.93535" lon="9.20659">
        <ele>1622.4</ele>
        <time>2015-06-21T04:20:01Z</time>
      </trkpt>
      <trkpt lat="41.93535" lon="9.20659">
        <ele>1622.6</ele>
        <time>2015-06-21T04:20:02Z</time>
      </trkpt>
      <trkpt lat="41.93536" lon="9.2066">
        <ele>1622.6</ele>
        <time>2015-06-21T04:20:03Z</time>
      </trkpt>
      <trkpt lat="41.93536" lon="9.2066">
        <ele>1622.6</ele>
        <time>2015-06-21T04:20:04Z</time>
      </trkpt>
      <trkpt lat="41.93537" lon="9.20661">
        <ele>1622.8</ele>
        <time>2015-06-21T04:20:05Z</time>
      </trkpt>
      <trkpt lat="41.93537" lon="9.20661">
        <ele>1623</ele>
        <time>2015-06-21T04:20:06Z</time>
      </trkpt>
      <trkpt lat="41.93538" lon="9.20662">
        <ele>1624.2</ele>
        <time>2015-06-21T04:20:07Z</time>
      </trkpt>
      <trkpt lat="41.9354" lon="9.20665">
        <ele>1624.6</ele>
        <time>2015-06-21T04:20:11Z</time>
      </trkpt>
      <trkpt lat="41.93542" lon="9.20667">
        <ele>1625.4</ele>
        <time>2015-06-21T04:20:16Z</time>
      </trkpt>
      <trkpt lat="41.93543" lon="9.20668">
        <ele>1625.8</ele>
        <time>2015-06-21T04:20:19Z</time>
      </trkpt>
      <trkpt lat="41.93545" lon="9.20668">
        <ele>1626.4</ele>
        <time>2015-06-21T04:20:23Z</time>
      </trkpt>
      <trkpt lat="41.93547" lon="9.20668">
        <ele>1626.2</ele>
        <time>2015-06-21T04:20:27Z</time>
      </trkpt>
      <trkpt lat="41.93548" lon="9.2067">
        <ele>1626.4</ele>
        <time>2015-06-21T04:20:31Z</time>
      </trkpt>
      <trkpt lat="41.93547" lon="9.20672">
        <ele>1626.8</ele>
        <time>2015-06-21T04:20:35Z</time>
      </trkpt>
      <trkpt lat="41.93547" lon="9.20675">
        <ele>1627.2</ele>
        <time>2015-06-21T04:20:39Z</time>
      </trkpt>
      <trkpt lat="41.93547" lon="9.20678">
        <ele>1627.6</ele>
        <time>2015-06-21T04:20:42Z</time>
      </trkpt>
      <trkpt lat="41.93545" lon="9.2068">
        <ele>1628.4</ele>
        <time>2015-06-21T04:20:47Z</time>
      </trkpt>
      <trkpt lat="41.93544" lon="9.20683">
        <ele>1628.8</ele>
        <time>2015-06-21T04:20:51Z</time>
      </trkpt>
      <trkpt lat="41.93543" lon="9.20686">
        <ele>1629.2</ele>
        <time>2015-06-21T04:20:56Z</time>
      </trkpt>
      <trkpt lat="41.93543" lon="9.20687">
        <ele>1629.4</ele>
        <time>2015-06-21T04:21:00Z</time>
      </trkpt>
      <trkpt lat="41.93544" lon="9.20687">
        <ele>1629.8</ele>
        <time>2015-06-21T04:21:04Z</time>
      </trkpt>
      <trkpt lat="41.93545" lon="9.20689">
        <ele>1630.2</ele>
        <time>2015-06-21T04:21:08Z</time>
      </trkpt>
      <trkpt lat="41.93546" lon="9.2069">
        <ele>1630.8</ele>
        <time>2015-06-21T04:21:12Z</time>
      </trkpt>
      <trkpt lat="41.93547" lon="9.2069">
        <ele>1631</ele>
        <time>2015-06-21T04:21:16Z</time>
      </trkpt>
      <trkpt lat="41.93548" lon="9.20691">
        <ele>1631.4</ele>
        <time>2015-06-21T04:21:20Z</time>
      </trkpt>
      <trkpt lat="41.93548" lon="9.20692">
        <ele>1631.8</ele>
        <time>2015-06-21T04:21:24Z</time>
      </trkpt>
      <trkpt lat="41.93548" lon="9.20694">
        <ele>1632.2</ele>
        <time>2015-06-21T04:21:28Z</time>
      </trkpt>
      <trkpt lat="41.93549" lon="9.20694">
        <ele>1632.4</ele>
        <time>2015-06-21T04:21:31Z</time>
      </trkpt>
      <trkpt lat="41.9355" lon="9.20695">
        <ele>1633</ele>
        <time>2015-06-21T04:21:35Z</time>
      </trkpt>
      <trkpt lat="41.93551" lon="9.20696">
        <ele>1633.6</ele>
        <time>2015-06-21T04:21:39Z</time>
      </trkpt>
      <trkpt lat="41.93551" lon="9.20697">
        <ele>1633.8</ele>
        <time>2015-06-21T04:21:41Z</time>
      </trkpt>
      <trkpt lat="41.93552" lon="9.20698">
        <ele>1634</ele>
        <time>2015-06-21T04:21:43Z</time>
      </trkpt>
      <trkpt lat="41.93553" lon="9.20698">
        <ele>1634.6</ele>
        <time>2015-06-21T04:21:47Z</time>
      </trkpt>
      <trkpt lat="41.93553" lon="9.20697">
        <ele>1635</ele>
        <time>2015-06-21T04:21:50Z</time>
      </trkpt>
      <trkpt lat="41.93554" lon="9.20696">
        <ele>1635.4</ele>
        <time>2015-06-21T04:21:54Z</time>
      </trkpt>
      <trkpt lat="41.93555" lon="9.20695">
        <ele>1636</ele>
        <time>2015-06-21T04:21:58Z</time>
      </trkpt>
      <trkpt lat="41.93556" lon="9.20694">
        <ele>1636.4</ele>
        <time>2015-06-21T04:22:02Z</time>
      </trkpt>
      <trkpt lat="41.93558" lon="9.20694">
        <ele>1637</ele>
        <time>2015-06-21T04:22:07Z</time>
      </trkpt>
      <trkpt lat="41.93558" lon="9.20696">
        <ele>1637.4</ele>
        <time>2015-06-21T04:22:11Z</time>
      </trkpt>
      <trkpt lat="41.93559" lon="9.20697">
        <ele>1637.8</ele>
        <time>2015-06-21T04:22:15Z</time>
      </trkpt>
      <trkpt lat="41.9356" lon="9.20698">
        <ele>1638.4</ele>
        <time>2015-06-21T04:22:19Z</time>
      </trkpt>
      <trkpt lat="41.9356" lon="9.20696">
        <ele>1639</ele>
        <time>2015-06-21T04:22:24Z</time>
      </trkpt>
      <trkpt lat="41.93561" lon="9.20694">
        <ele>1639.2</ele>
        <time>2015-06-21T04:22:27Z</time>
      </trkpt>
      <trkpt lat="41.93563" lon="9.20694">
        <ele>1640</ele>
        <time>2015-06-21T04:22:32Z</time>
      </trkpt>
      <trkpt lat="41.93565" lon="9.20693">
        <ele>1640.4</ele>
        <time>2015-06-21T04:22:36Z</time>
      </trkpt>
      <trkpt lat="41.93566" lon="9.20696">
        <ele>1640.8</ele>
        <time>2015-06-21T04:22:42Z</time>
      </trkpt>
      <trkpt lat="41.93566" lon="9.20698">
        <ele>1641</ele>
        <time>2015-06-21T04:22:46Z</time>
      </trkpt>
      <trkpt lat="41.93566" lon="9.20699">
        <ele>1641.2</ele>
        <time>2015-06-21T04:22:50Z</time>
      </trkpt>
      <trkpt lat="41.93566" lon="9.20701">
        <ele>1641.6</ele>
        <time>2015-06-21T04:22:54Z</time>
      </trkpt>
      <trkpt lat="41.93566" lon="9.20702">
        <ele>1642</ele>
        <time>2015-06-21T04:22:58Z</time>
      </trkpt>
      <trkpt lat="41.93566" lon="9.20704">
        <ele>1642.4</ele>
        <time>2015-06-21T04:23:01Z</time>
      </trkpt>
      <trkpt lat="41.93566" lon="9.20706">
        <ele>1643.2</ele>
        <time>2015-06-21T04:23:06Z</time>
      </trkpt>
      <trkpt lat="41.93567" lon="9.20707">
        <ele>1643.6</ele>
        <time>2015-06-21T04:23:10Z</time>
      </trkpt>
      <trkpt lat="41.93569" lon="9.20708">
        <ele>1644</ele>
        <time>2015-06-21T04:23:14Z</time>
      </trkpt>
      <trkpt lat="41.9357" lon="9.20708">
        <ele>1644.4</ele>
        <time>2015-06-21T04:23:18Z</time>
      </trkpt>
      <trkpt lat="41.9357" lon="9.20707">
        <ele>1644.8</ele>
        <time>2015-06-21T04:23:21Z</time>
      </trkpt>
      <trkpt lat="41.93571" lon="9.20705">
        <ele>1645.6</ele>
        <time>2015-06-21T04:23:26Z</time>
      </trkpt>
      <trkpt lat="41.93572" lon="9.20703">
        <ele>1645.8</ele>
        <time>2015-06-21T04:23:30Z</time>
      </trkpt>
      <trkpt lat="41.93573" lon="9.20702">
        <ele>1646.2</ele>
        <time>2015-06-21T04:23:33Z</time>
      </trkpt>
      <trkpt lat="41.93574" lon="9.20702">
        <ele>1646.4</ele>
        <time>2015-06-21T04:23:34Z</time>
      </trkpt>
      <trkpt lat="41.93574" lon="9.20704">
        <ele>1646.8</ele>
        <time>2015-06-21T04:23:39Z</time>
      </trkpt>
      <trkpt lat="41.93574" lon="9.20705">
        <ele>1647.2</ele>
        <time>2015-06-21T04:23:43Z</time>
      </trkpt>
      <trkpt lat="41.93574" lon="9.20707">
        <ele>1647.4</ele>
        <time>2015-06-21T04:23:48Z</time>
      </trkpt>
      <trkpt lat="41.93576" lon="9.20705">
        <ele>1648</ele>
        <time>2015-06-21T04:23:53Z</time>
      </trkpt>
      <trkpt lat="41.93579" lon="9.20703">
        <ele>1648.2</ele>
        <time>2015-06-21T04:23:58Z</time>
      </trkpt>
      <trkpt lat="41.93581" lon="9.20702">
        <ele>1648.6</ele>
        <time>2015-06-21T04:24:02Z</time>
      </trkpt>
      <trkpt lat="41.93582" lon="9.207">
        <ele>1648.6</ele>
        <time>2015-06-21T04:24:06Z</time>
      </trkpt>
      <trkpt lat="41.93584" lon="9.20699">
        <ele>1649</ele>
        <time>2015-06-21T04:24:10Z</time>
      </trkpt>
      <trkpt lat="41.93585" lon="9.20699">
        <ele>1649.8</ele>
        <time>2015-06-21T04:24:14Z</time>
      </trkpt>
      <trkpt lat="41.93586" lon="9.20698">
        <ele>1650.2</ele>
        <time>2015-06-21T04:24:18Z</time>
      </trkpt>
      <trkpt lat="41.93588" lon="9.20698">
        <ele>1650.8</ele>
        <time>2015-06-21T04:24:23Z</time>
      </trkpt>
      <trkpt lat="41.93589" lon="9.20699">
        <ele>1651</ele>
        <time>2015-06-21T04:24:27Z</time>
      </trkpt>
      <trkpt lat="41.93589" lon="9.207">
        <ele>1651.4</ele>
        <time>2015-06-21T04:24:31Z</time>
      </trkpt>
      <trkpt lat="41.93589" lon="9.20702">
        <ele>1652</ele>
        <time>2015-06-21T04:24:36Z</time>
      </trkpt>
      <trkpt lat="41.93591" lon="9.20702">
        <ele>1652.4</ele>
        <time>2015-06-21T04:24:40Z</time>
      </trkpt>
      <trkpt lat="41.93592" lon="9.20702">
        <ele>1652.6</ele>
        <time>2015-06-21T04:24:43Z</time>
      </trkpt>
      <trkpt lat="41.93593" lon="9.20701">
        <ele>1653.2</ele>
        <time>2015-06-21T04:24:47Z</time>
      </trkpt>
      <trkpt lat="41.93595" lon="9.20701">
        <ele>1654</ele>
        <time>2015-06-21T04:24:52Z</time>
      </trkpt>
      <trkpt lat="41.93597" lon="9.20702">
        <ele>1654.4</ele>
        <time>2015-06-21T04:24:56Z</time>
      </trkpt>
      <trkpt lat="41.93598" lon="9.20703">
        <ele>1655</ele>
        <time>2015-06-21T04:25:01Z</time>
      </trkpt>
      <trkpt lat="41.93599" lon="9.20704">
        <ele>1655.2</ele>
        <time>2015-06-21T04:25:05Z</time>
      </trkpt>
      <trkpt lat="41.936" lon="9.20704">
        <ele>1655.8</ele>
        <time>2015-06-21T04:25:09Z</time>
      </trkpt>
      <trkpt lat="41.93601" lon="9.20704">
        <ele>1656.2</ele>
        <time>2015-06-21T04:25:14Z</time>
      </trkpt>
      <trkpt lat="41.93603" lon="9.20704">
        <ele>1656.4</ele>
        <time>2015-06-21T04:25:18Z</time>
      </trkpt>
      <trkpt lat="41.93605" lon="9.20704">
        <ele>1657</ele>
        <time>2015-06-21T04:25:23Z</time>
      </trkpt>
      <trkpt lat="41.93606" lon="9.20703">
        <ele>1657.4</ele>
        <time>2015-06-21T04:25:27Z</time>
      </trkpt>
      <trkpt lat="41.93606" lon="9.20706">
        <ele>1658</ele>
        <time>2015-06-21T04:25:32Z</time>
      </trkpt>
      <trkpt lat="41.93606" lon="9.20706">
        <ele>1658.4</ele>
        <time>2015-06-21T04:25:36Z</time>
      </trkpt>
      <trkpt lat="41.93606" lon="9.20706">
        <ele>1659</ele>
        <time>2015-06-21T04:25:40Z</time>
      </trkpt>
      <trkpt lat="41.93606" lon="9.20707">
        <ele>1659.6</ele>
        <time>2015-06-21T04:25:48Z</time>
      </trkpt>
      <trkpt lat="41.93605" lon="9.2071">
        <ele>1659.6</ele>
        <time>2015-06-21T04:25:54Z</time>
      </trkpt>
      <trkpt lat="41.93605" lon="9.20712">
        <ele>1659.8</ele>
        <time>2015-06-21T04:25:57Z</time>
      </trkpt>
      <trkpt lat="41.93605" lon="9.20712">
        <ele>1660</ele>
        <time>2015-06-21T04:26:01Z</time>
      </trkpt>
      <trkpt lat="41.93605" lon="9.20714">
        <ele>1660.8</ele>
        <time>2015-06-21T04:26:06Z</time>
      </trkpt>
      <trkpt lat="41.93605" lon="9.20716">
        <ele>1661.2</ele>
        <time>2015-06-21T04:26:10Z</time>
      </trkpt>
      <trkpt lat="41.93605" lon="9.20717">
        <ele>1661.2</ele>
        <time>2015-06-21T04:26:11Z</time>
      </trkpt>
      <trkpt lat="41.93605" lon="9.20717">
        <ele>1661.8</ele>
        <time>2015-06-21T04:26:14Z</time>
      </trkpt>
      <trkpt lat="41.93605" lon="9.20717">
        <ele>1662</ele>
        <time>2015-06-21T04:26:18Z</time>
      </trkpt>
      <trkpt lat="41.93608" lon="9.2072">
        <ele>1663</ele>
        <time>2015-06-21T04:26:26Z</time>
      </trkpt>
      <trkpt lat="41.93608" lon="9.2072">
        <ele>1663.2</ele>
        <time>2015-06-21T04:26:29Z</time>
      </trkpt>
      <trkpt lat="41.93608" lon="9.20722">
        <ele>1663.2</ele>
        <time>2015-06-21T04:26:33Z</time>
      </trkpt>
      <trkpt lat="41.93609" lon="9.20722">
        <ele>1664</ele>
        <time>2015-06-21T04:26:37Z</time>
      </trkpt>
      <trkpt lat="41.93608" lon="9.20722">
        <ele>1664.4</ele>
        <time>2015-06-21T04:26:42Z</time>
      </trkpt>
      <trkpt lat="41.93608" lon="9.20722">
        <ele>1665</ele>
        <time>2015-06-21T04:26:48Z</time>
      </trkpt>
      <trkpt lat="41.93603" lon="9.20724">
        <ele>1664.4</ele>
        <time>2015-06-21T04:27:03Z</time>
      </trkpt>
      <trkpt lat="41.93595" lon="9.20729">
        <ele>1662.4</ele>
        <time>2015-06-21T04:27:25Z</time>
      </trkpt>
      <trkpt lat="41.93596" lon="9.20731">
        <ele>1662</ele>
        <time>2015-06-21T04:27:33Z</time>
      </trkpt>
      <trkpt lat="41.93597" lon="9.20731">
        <ele>1662</ele>
        <time>2015-06-21T04:27:36Z</time>
      </trkpt>
      <trkpt lat="41.93599" lon="9.20733">
        <ele>1662.2</ele>
        <time>2015-06-21T04:27:40Z</time>
      </trkpt>
      <trkpt lat="41.936" lon="9.20736">
        <ele>1663</ele>
        <time>2015-06-21T04:27:44Z</time>
      </trkpt>
      <trkpt lat="41.93602" lon="9.20737">
        <ele>1663.4</ele>
        <time>2015-06-21T04:27:48Z</time>
      </trkpt>
      <trkpt lat="41.93604" lon="9.20737">
        <ele>1664.2</ele>
        <time>2015-06-21T04:27:53Z</time>
      </trkpt>
      <trkpt lat="41.93606" lon="9.20737">
        <ele>1664.8</ele>
        <time>2015-06-21T04:27:57Z</time>
      </trkpt>
      <trkpt lat="41.93607" lon="9.20738">
        <ele>1665.4</ele>
        <time>2015-06-21T04:28:01Z</time>
      </trkpt>
      <trkpt lat="41.93607" lon="9.20741">
        <ele>1666</ele>
        <time>2015-06-21T04:28:06Z</time>
      </trkpt>
      <trkpt lat="41.93608" lon="9.20743">
        <ele>1666.4</ele>
        <time>2015-06-21T04:28:10Z</time>
      </trkpt>
      <trkpt lat="41.93609" lon="9.20743">
        <ele>1667</ele>
        <time>2015-06-21T04:28:14Z</time>
      </trkpt>
      <trkpt lat="41.93609" lon="9.20744">
        <ele>1667.4</ele>
        <time>2015-06-21T04:28:18Z</time>
      </trkpt>
      <trkpt lat="41.9361" lon="9.20746">
        <ele>1668.2</ele>
        <time>2015-06-21T04:28:23Z</time>
      </trkpt>
      <trkpt lat="41.93611" lon="9.20745">
        <ele>1668.4</ele>
        <time>2015-06-21T04:28:27Z</time>
      </trkpt>
      <trkpt lat="41.93612" lon="9.20744">
        <ele>1668.8</ele>
        <time>2015-06-21T04:28:31Z</time>
      </trkpt>
      <trkpt lat="41.93613" lon="9.20745">
        <ele>1669.8</ele>
        <time>2015-06-21T04:28:36Z</time>
      </trkpt>
      <trkpt lat="41.93613" lon="9.20748">
        <ele>1670</ele>
        <time>2015-06-21T04:28:40Z</time>
      </trkpt>
      <trkpt lat="41.93614" lon="9.2075">
        <ele>1670.6</ele>
        <time>2015-06-21T04:28:44Z</time>
      </trkpt>
      <trkpt lat="41.93616" lon="9.20751">
        <ele>1670.8</ele>
        <time>2015-06-21T04:28:48Z</time>
      </trkpt>
      <trkpt lat="41.93619" lon="9.20752">
        <ele>1671.6</ele>
        <time>2015-06-21T04:28:53Z</time>
      </trkpt>
      <trkpt lat="41.9362" lon="9.20752">
        <ele>1672.2</ele>
        <time>2015-06-21T04:28:57Z</time>
      </trkpt>
      <trkpt lat="41.93622" lon="9.20753">
        <ele>1672.8</ele>
        <time>2015-06-21T04:29:01Z</time>
      </trkpt>
      <trkpt lat="41.93624" lon="9.20754">
        <ele>1673</ele>
        <time>2015-06-21T04:29:05Z</time>
      </trkpt>
      <trkpt lat="41.93625" lon="9.20756">
        <ele>1673.8</ele>
        <time>2015-06-21T04:29:09Z</time>
      </trkpt>
      <trkpt lat="41.93624" lon="9.20758">
        <ele>1674.4</ele>
        <time>2015-06-21T04:29:14Z</time>
      </trkpt>
      <trkpt lat="41.93624" lon="9.2076">
        <ele>1674.8</ele>
        <time>2015-06-21T04:29:18Z</time>
      </trkpt>
      <trkpt lat="41.93625" lon="9.20762">
        <ele>1675.4</ele>
        <time>2015-06-21T04:29:22Z</time>
      </trkpt>
      <trkpt lat="41.93626" lon="9.20765">
        <ele>1676</ele>
        <time>2015-06-21T04:29:27Z</time>
      </trkpt>
      <trkpt lat="41.93626" lon="9.20767">
        <ele>1676.4</ele>
        <time>2015-06-21T04:29:32Z</time>
      </trkpt>
      <trkpt lat="41.93627" lon="9.20766">
        <ele>1676.8</ele>
        <time>2015-06-21T04:29:35Z</time>
      </trkpt>
      <trkpt lat="41.93629" lon="9.20766">
        <ele>1677.2</ele>
        <time>2015-06-21T04:29:39Z</time>
      </trkpt>
      <trkpt lat="41.93631" lon="9.20769">
        <ele>1678.2</ele>
        <time>2015-06-21T04:29:45Z</time>
      </trkpt>
      <trkpt lat="41.93631" lon="9.2077">
        <ele>1678.8</ele>
        <time>2015-06-21T04:29:50Z</time>
      </trkpt>
      <trkpt lat="41.93632" lon="9.20771">
        <ele>1678.8</ele>
        <time>2015-06-21T04:29:53Z</time>
      </trkpt>
      <trkpt lat="41.93634" lon="9.20774">
        <ele>1680</ele>
        <time>2015-06-21T04:29:59Z</time>
      </trkpt>
      <trkpt lat="41.93635" lon="9.20775">
        <ele>1680.2</ele>
        <time>2015-06-21T04:30:03Z</time>
      </trkpt>
      <trkpt lat="41.93636" lon="9.20777">
        <ele>1680.6</ele>
        <time>2015-06-21T04:30:08Z</time>
      </trkpt>
      <trkpt lat="41.93638" lon="9.20779">
        <ele>1680.8</ele>
        <time>2015-06-21T04:30:12Z</time>
      </trkpt>
      <trkpt lat="41.93638" lon="9.2078">
        <ele>1681.4</ele>
        <time>2015-06-21T04:30:16Z</time>
      </trkpt>
      <trkpt lat="41.93639" lon="9.2078">
        <ele>1681.8</ele>
        <time>2015-06-21T04:30:20Z</time>
      </trkpt>
      <trkpt lat="41.9364" lon="9.20781">
        <ele>1682.6</ele>
        <time>2015-06-21T04:30:25Z</time>
      </trkpt>
      <trkpt lat="41.93642" lon="9.20781">
        <ele>1683.2</ele>
        <time>2015-06-21T04:30:29Z</time>
      </trkpt>
      <trkpt lat="41.93643" lon="9.20783">
        <ele>1683.8</ele>
        <time>2015-06-21T04:30:34Z</time>
      </trkpt>
      <trkpt lat="41.93644" lon="9.20785">
        <ele>1684.2</ele>
        <time>2015-06-21T04:30:38Z</time>
      </trkpt>
      <trkpt lat="41.93644" lon="9.20786">
        <ele>1684.8</ele>
        <time>2015-06-21T04:30:42Z</time>
      </trkpt>
      <trkpt lat="41.93646" lon="9.20785">
        <ele>1685.2</ele>
        <time>2015-06-21T04:30:46Z</time>
      </trkpt>
      <trkpt lat="41.93648" lon="9.20787">
        <ele>1686</ele>
        <time>2015-06-21T04:30:51Z</time>
      </trkpt>
      <trkpt lat="41.93648" lon="9.20789">
        <ele>1686.2</ele>
        <time>2015-06-21T04:30:55Z</time>
      </trkpt>
      <trkpt lat="41.93649" lon="9.20791">
        <ele>1687</ele>
        <time>2015-06-21T04:31:00Z</time>
      </trkpt>
      <trkpt lat="41.9365" lon="9.20795">
        <ele>1687.6</ele>
        <time>2015-06-21T04:31:06Z</time>
      </trkpt>
      <trkpt lat="41.93651" lon="9.20796">
        <ele>1688</ele>
        <time>2015-06-21T04:31:11Z</time>
      </trkpt>
      <trkpt lat="41.93652" lon="9.20798">
        <ele>1688</ele>
        <time>2015-06-21T04:31:14Z</time>
      </trkpt>
      <trkpt lat="41.93653" lon="9.208">
        <ele>1688.8</ele>
        <time>2015-06-21T04:31:18Z</time>
      </trkpt>
      <trkpt lat="41.93653" lon="9.20803">
        <ele>1689.6</ele>
        <time>2015-06-21T04:31:23Z</time>
      </trkpt>
      <trkpt lat="41.93654" lon="9.20806">
        <ele>1690</ele>
        <time>2015-06-21T04:31:28Z</time>
      </trkpt>
      <trkpt lat="41.93656" lon="9.20807">
        <ele>1690.6</ele>
        <time>2015-06-21T04:31:33Z</time>
      </trkpt>
      <trkpt lat="41.93658" lon="9.2081">
        <ele>1691</ele>
        <time>2015-06-21T04:31:38Z</time>
      </trkpt>
      <trkpt lat="41.93658" lon="9.20811">
        <ele>1691.6</ele>
        <time>2015-06-21T04:31:43Z</time>
      </trkpt>
      <trkpt lat="41.9366" lon="9.20813">
        <ele>1692</ele>
        <time>2015-06-21T04:31:48Z</time>
      </trkpt>
      <trkpt lat="41.93662" lon="9.20815">
        <ele>1692.4</ele>
        <time>2015-06-21T04:31:52Z</time>
      </trkpt>
      <trkpt lat="41.93661" lon="9.20817">
        <ele>1693</ele>
        <time>2015-06-21T04:31:56Z</time>
      </trkpt>
      <trkpt lat="41.93661" lon="9.20819">
        <ele>1693.8</ele>
        <time>2015-06-21T04:32:01Z</time>
      </trkpt>
      <trkpt lat="41.93661" lon="9.20822">
        <ele>1694.4</ele>
        <time>2015-06-21T04:32:07Z</time>
      </trkpt>
      <trkpt lat="41.93662" lon="9.20825">
        <ele>1694.8</ele>
        <time>2015-06-21T04:32:12Z</time>
      </trkpt>
      <trkpt lat="41.93662" lon="9.20828">
        <ele>1695.2</ele>
        <time>2015-06-21T04:32:17Z</time>
      </trkpt>
      <trkpt lat="41.93663" lon="9.2083">
        <ele>1695.2</ele>
        <time>2015-06-21T04:32:21Z</time>
      </trkpt>
      <trkpt lat="41.93664" lon="9.20833">
        <ele>1696</ele>
        <time>2015-06-21T04:32:26Z</time>
      </trkpt>
      <trkpt lat="41.93664" lon="9.20836">
        <ele>1696.6</ele>
        <time>2015-06-21T04:32:31Z</time>
      </trkpt>
      <trkpt lat="41.93663" lon="9.20839">
        <ele>1696.8</ele>
        <time>2015-06-21T04:32:36Z</time>
      </trkpt>
      <trkpt lat="41.93662" lon="9.20842">
        <ele>1697.4</ele>
        <time>2015-06-21T04:32:40Z</time>
      </trkpt>
      <trkpt lat="41.93662" lon="9.20843">
        <ele>1697.8</ele>
        <time>2015-06-21T04:32:42Z</time>
      </trkpt>
      <trkpt lat="41.93661" lon="9.20848">
        <ele>1698.2</ele>
        <time>2015-06-21T04:32:48Z</time>
      </trkpt>
      <trkpt lat="41.93662" lon="9.20852">
        <ele>1698.6</ele>
        <time>2015-06-21T04:32:53Z</time>
      </trkpt>
      <trkpt lat="41.93661" lon="9.20854">
        <ele>1699</ele>
        <time>2015-06-21T04:32:58Z</time>
      </trkpt>
      <trkpt lat="41.93661" lon="9.20857">
        <ele>1699.4</ele>
        <time>2015-06-21T04:33:03Z</time>
      </trkpt>
      <trkpt lat="41.93662" lon="9.2086">
        <ele>1700</ele>
        <time>2015-06-21T04:33:08Z</time>
      </trkpt>
      <trkpt lat="41.93662" lon="9.20863">
        <ele>1700.6</ele>
        <time>2015-06-21T04:33:14Z</time>
      </trkpt>
      <trkpt lat="41.93663" lon="9.20866">
        <ele>1700.8</ele>
        <time>2015-06-21T04:33:19Z</time>
      </trkpt>
      <trkpt lat="41.93664" lon="9.20869">
        <ele>1701</ele>
        <time>2015-06-21T04:33:23Z</time>
      </trkpt>
      <trkpt lat="41.93666" lon="9.20872">
        <ele>1701.8</ele>
        <time>2015-06-21T04:33:29Z</time>
      </trkpt>
      <trkpt lat="41.93667" lon="9.20874">
        <ele>1702.2</ele>
        <time>2015-06-21T04:33:33Z</time>
      </trkpt>
      <trkpt lat="41.93667" lon="9.20878">
        <ele>1702.8</ele>
        <time>2015-06-21T04:33:39Z</time>
      </trkpt>
      <trkpt lat="41.93667" lon="9.2088">
        <ele>1703</ele>
        <time>2015-06-21T04:33:44Z</time>
      </trkpt>
      <trkpt lat="41.93669" lon="9.20883">
        <ele>1703.8</ele>
        <time>2015-06-21T04:33:50Z</time>
      </trkpt>
      <trkpt lat="41.9367" lon="9.20886">
        <ele>1704</ele>
        <time>2015-06-21T04:33:55Z</time>
      </trkpt>
      <trkpt lat="41.93668" lon="9.2089">
        <ele>1704.8</ele>
        <time>2015-06-21T04:34:02Z</time>
      </trkpt>
      <trkpt lat="41.93666" lon="9.20895">
        <ele>1705</ele>
        <time>2015-06-21T04:34:09Z</time>
      </trkpt>
      <trkpt lat="41.93663" lon="9.20902">
        <ele>1705.4</ele>
        <time>2015-06-21T04:34:18Z</time>
      </trkpt>
      <trkpt lat="41.93659" lon="9.20906">
        <ele>1705.4</ele>
        <time>2015-06-21T04:34:25Z</time>
      </trkpt>
      <trkpt lat="41.93657" lon="9.20911">
        <ele>1705.6</ele>
        <time>2015-06-21T04:34:32Z</time>
      </trkpt>
      <trkpt lat="41.93657" lon="9.20914">
        <ele>1705.8</ele>
        <time>2015-06-21T04:34:36Z</time>
      </trkpt>
      <trkpt lat="41.93659" lon="9.20919">
        <ele>1706.4</ele>
        <time>2015-06-21T04:34:43Z</time>
      </trkpt>
      <trkpt lat="41.93659" lon="9.20922">
        <ele>1706.6</ele>
        <time>2015-06-21T04:34:47Z</time>
      </trkpt>
      <trkpt lat="41.93659" lon="9.20925">
        <ele>1707</ele>
        <time>2015-06-21T04:34:51Z</time>
      </trkpt>
      <trkpt lat="41.93659" lon="9.20929">
        <ele>1708</ele>
        <time>2015-06-21T04:34:56Z</time>
      </trkpt>
      <trkpt lat="41.9366" lon="9.20931">
        <ele>1708.2</ele>
        <time>2015-06-21T04:35:01Z</time>
      </trkpt>
      <trkpt lat="41.93662" lon="9.20932">
        <ele>1709.2</ele>
        <time>2015-06-21T04:35:06Z</time>
      </trkpt>
      <trkpt lat="41.93665" lon="9.20933">
        <ele>1709.6</ele>
        <time>2015-06-21T04:35:12Z</time>
      </trkpt>
      <trkpt lat="41.93665" lon="9.20935">
        <ele>1710</ele>
        <time>2015-06-21T04:35:17Z</time>
      </trkpt>
      <trkpt lat="41.93666" lon="9.20938">
        <ele>1710.6</ele>
        <time>2015-06-21T04:35:22Z</time>
      </trkpt>
      <trkpt lat="41.93667" lon="9.20941">
        <ele>1711</ele>
        <time>2015-06-21T04:35:27Z</time>
      </trkpt>
      <trkpt lat="41.93669" lon="9.20943">
        <ele>1711.2</ele>
        <time>2015-06-21T04:35:31Z</time>
      </trkpt>
      <trkpt lat="41.93671" lon="9.20946">
        <ele>1712</ele>
        <time>2015-06-21T04:35:36Z</time>
      </trkpt>
      <trkpt lat="41.9367" lon="9.20948">
        <ele>1712.6</ele>
        <time>2015-06-21T04:35:41Z</time>
      </trkpt>
      <trkpt lat="41.9367" lon="9.20951">
        <ele>1713.2</ele>
        <time>2015-06-21T04:35:46Z</time>
      </trkpt>
      <trkpt lat="41.93673" lon="9.20956">
        <ele>1714</ele>
        <time>2015-06-21T04:35:53Z</time>
      </trkpt>
      <trkpt lat="41.93674" lon="9.20958">
        <ele>1714.2</ele>
        <time>2015-06-21T04:35:58Z</time>
      </trkpt>
      <trkpt lat="41.93674" lon="9.20961">
        <ele>1714.8</ele>
        <time>2015-06-21T04:36:03Z</time>
      </trkpt>
      <trkpt lat="41.93675" lon="9.20964">
        <ele>1715.2</ele>
        <time>2015-06-21T04:36:08Z</time>
      </trkpt>
      <trkpt lat="41.93676" lon="9.20965">
        <ele>1715.4</ele>
        <time>2015-06-21T04:36:12Z</time>
      </trkpt>
      <trkpt lat="41.93678" lon="9.20968">
        <ele>1716.4</ele>
        <time>2015-06-21T04:36:18Z</time>
      </trkpt>
      <trkpt lat="41.93679" lon="9.20971">
        <ele>1716.8</ele>
        <time>2015-06-21T04:36:24Z</time>
      </trkpt>
      <trkpt lat="41.9368" lon="9.20972">
        <ele>1717.2</ele>
        <time>2015-06-21T04:36:29Z</time>
      </trkpt>
      <trkpt lat="41.93681" lon="9.20975">
        <ele>1717.8</ele>
        <time>2015-06-21T04:36:34Z</time>
      </trkpt>
      <trkpt lat="41.93682" lon="9.20977">
        <ele>1718.4</ele>
        <time>2015-06-21T04:36:39Z</time>
      </trkpt>
      <trkpt lat="41.93683" lon="9.20979">
        <ele>1719</ele>
        <time>2015-06-21T04:36:43Z</time>
      </trkpt>
      <trkpt lat="41.93683" lon="9.20982">
        <ele>1719.4</ele>
        <time>2015-06-21T04:36:48Z</time>
      </trkpt>
      <trkpt lat="41.93685" lon="9.20986">
        <ele>1720.2</ele>
        <time>2015-06-21T04:36:54Z</time>
      </trkpt>
      <trkpt lat="41.93685" lon="9.20988">
        <ele>1720.6</ele>
        <time>2015-06-21T04:36:58Z</time>
      </trkpt>
      <trkpt lat="41.93685" lon="9.20991">
        <ele>1721.2</ele>
        <time>2015-06-21T04:37:03Z</time>
      </trkpt>
      <trkpt lat="41.93683" lon="9.20995">
        <ele>1722</ele>
        <time>2015-06-21T04:37:10Z</time>
      </trkpt>
      <trkpt lat="41.93682" lon="9.20999">
        <ele>1722.2</ele>
        <time>2015-06-21T04:37:15Z</time>
      </trkpt>
      <trkpt lat="41.93681" lon="9.21002">
        <ele>1723</ele>
        <time>2015-06-21T04:37:20Z</time>
      </trkpt>
      <trkpt lat="41.93681" lon="9.21007">
        <ele>1723.6</ele>
        <time>2015-06-21T04:37:27Z</time>
      </trkpt>
      <trkpt lat="41.93684" lon="9.2101">
        <ele>1724</ele>
        <time>2015-06-21T04:37:33Z</time>
      </trkpt>
      <trkpt lat="41.93685" lon="9.21014">
        <ele>1724.6</ele>
        <time>2015-06-21T04:37:38Z</time>
      </trkpt>
      <trkpt lat="41.93686" lon="9.21016">
        <ele>1725</ele>
        <time>2015-06-21T04:37:42Z</time>
      </trkpt>
      <trkpt lat="41.93686" lon="9.21018">
        <ele>1725.4</ele>
        <time>2015-06-21T04:37:47Z</time>
      </trkpt>
      <trkpt lat="41.93685" lon="9.21021">
        <ele>1726.2</ele>
        <time>2015-06-21T04:37:51Z</time>
      </trkpt>
      <trkpt lat="41.93686" lon="9.21022">
        <ele>1727</ele>
        <time>2015-06-21T04:37:56Z</time>
      </trkpt>
      <trkpt lat="41.93687" lon="9.21025">
        <ele>1727.6</ele>
        <time>2015-06-21T04:38:01Z</time>
      </trkpt>
      <trkpt lat="41.93689" lon="9.21028">
        <ele>1728</ele>
        <time>2015-06-21T04:38:07Z</time>
      </trkpt>
      <trkpt lat="41.9369" lon="9.21028">
        <ele>1728.6</ele>
        <time>2015-06-21T04:38:11Z</time>
      </trkpt>
      <trkpt lat="41.93691" lon="9.21029">
        <ele>1729.2</ele>
        <time>2015-06-21T04:38:16Z</time>
      </trkpt>
      <trkpt lat="41.93693" lon="9.2103">
        <ele>1729.6</ele>
        <time>2015-06-21T04:38:20Z</time>
      </trkpt>
      <trkpt lat="41.93693" lon="9.21032">
        <ele>1730.4</ele>
        <time>2015-06-21T04:38:26Z</time>
      </trkpt>
      <trkpt lat="41.93695" lon="9.21033">
        <ele>1730.8</ele>
        <time>2015-06-21T04:38:31Z</time>
      </trkpt>
      <trkpt lat="41.93696" lon="9.21034">
        <ele>1731.6</ele>
        <time>2015-06-21T04:38:37Z</time>
      </trkpt>
      <trkpt lat="41.93696" lon="9.21036">
        <ele>1732</ele>
        <time>2015-06-21T04:38:42Z</time>
      </trkpt>
      <trkpt lat="41.93697" lon="9.21038">
        <ele>1732.6</ele>
        <time>2015-06-21T04:38:47Z</time>
      </trkpt>
      <trkpt lat="41.937" lon="9.2104">
        <ele>1733.2</ele>
        <time>2015-06-21T04:38:53Z</time>
      </trkpt>
      <trkpt lat="41.93702" lon="9.21041">
        <ele>1733.8</ele>
        <time>2015-06-21T04:38:59Z</time>
      </trkpt>
      <trkpt lat="41.93704" lon="9.21041">
        <ele>1734.4</ele>
        <time>2015-06-21T04:39:04Z</time>
      </trkpt>
      <trkpt lat="41.93706" lon="9.21042">
        <ele>1735</ele>
        <time>2015-06-21T04:39:09Z</time>
      </trkpt>
      <trkpt lat="41.93708" lon="9.21043">
        <ele>1735.8</ele>
        <time>2015-06-21T04:39:15Z</time>
      </trkpt>
      <trkpt lat="41.93709" lon="9.21045">
        <ele>1736.2</ele>
        <time>2015-06-21T04:39:20Z</time>
      </trkpt>
      <trkpt lat="41.93709" lon="9.21047">
        <ele>1736.8</ele>
        <time>2015-06-21T04:39:25Z</time>
      </trkpt>
      <trkpt lat="41.93708" lon="9.2105">
        <ele>1737.4</ele>
        <time>2015-06-21T04:39:30Z</time>
      </trkpt>
      <trkpt lat="41.93711" lon="9.21052">
        <ele>1738.2</ele>
        <time>2015-06-21T04:39:36Z</time>
      </trkpt>
      <trkpt lat="41.93713" lon="9.21054">
        <ele>1738.4</ele>
        <time>2015-06-21T04:39:40Z</time>
      </trkpt>
      <trkpt lat="41.93715" lon="9.21057">
        <ele>1739.2</ele>
        <time>2015-06-21T04:39:45Z</time>
      </trkpt>
      <trkpt lat="41.93716" lon="9.21059">
        <ele>1739.8</ele>
        <time>2015-06-21T04:39:49Z</time>
      </trkpt>
      <trkpt lat="41.93715" lon="9.21062">
        <ele>1740.4</ele>
        <time>2015-06-21T04:39:54Z</time>
      </trkpt>
      <trkpt lat="41.93714" lon="9.21069">
        <ele>1741.6</ele>
        <time>2015-06-21T04:40:02Z</time>
      </trkpt>
      <trkpt lat="41.93714" lon="9.21072">
        <ele>1741.8</ele>
        <time>2015-06-21T04:40:08Z</time>
      </trkpt>
      <trkpt lat="41.93714" lon="9.21077">
        <ele>1742.4</ele>
        <time>2015-06-21T04:40:15Z</time>
      </trkpt>
      <trkpt lat="41.93714" lon="9.21077">
        <ele>1742.8</ele>
        <time>2015-06-21T04:40:21Z</time>
      </trkpt>
      <trkpt lat="41.93716" lon="9.21087">
        <ele>1743.2</ele>
        <time>2015-06-21T04:40:32Z</time>
      </trkpt>
      <trkpt lat="41.93718" lon="9.21089">
        <ele>1743.2</ele>
        <time>2015-06-21T04:40:38Z</time>
      </trkpt>
      <trkpt lat="41.9372" lon="9.21091">
        <ele>1743.8</ele>
        <time>2015-06-21T04:40:44Z</time>
      </trkpt>
      <trkpt lat="41.9372" lon="9.21095">
        <ele>1744.2</ele>
        <time>2015-06-21T04:40:49Z</time>
      </trkpt>
      <trkpt lat="41.9372" lon="9.21098">
        <ele>1744.8</ele>
        <time>2015-06-21T04:40:53Z</time>
      </trkpt>
      <trkpt lat="41.93721" lon="9.21102">
        <ele>1745.8</ele>
        <time>2015-06-21T04:40:59Z</time>
      </trkpt>
      <trkpt lat="41.93722" lon="9.21105">
        <ele>1746</ele>
        <time>2015-06-21T04:41:05Z</time>
      </trkpt>
      <trkpt lat="41.93723" lon="9.21108">
        <ele>1746.4</ele>
        <time>2015-06-21T04:41:09Z</time>
      </trkpt>
      <trkpt lat="41.93724" lon="9.21111">
        <ele>1747.2</ele>
        <time>2015-06-21T04:41:14Z</time>
      </trkpt>
      <trkpt lat="41.93724" lon="9.21113">
        <ele>1747.6</ele>
        <time>2015-06-21T04:41:18Z</time>
      </trkpt>
      <trkpt lat="41.93723" lon="9.2112">
        <ele>1748.8</ele>
        <time>2015-06-21T04:41:26Z</time>
      </trkpt>
      <trkpt lat="41.93722" lon="9.21128">
        <ele>1749.2</ele>
        <time>2015-06-21T04:41:34Z</time>
      </trkpt>
      <trkpt lat="41.93721" lon="9.21136">
        <ele>1749.6</ele>
        <time>2015-06-21T04:41:42Z</time>
      </trkpt>
      <trkpt lat="41.9372" lon="9.2114">
        <ele>1749.8</ele>
        <time>2015-06-21T04:41:48Z</time>
      </trkpt>
      <trkpt lat="41.93719" lon="9.21144">
        <ele>1750</ele>
        <time>2015-06-21T04:41:53Z</time>
      </trkpt>
      <trkpt lat="41.93715" lon="9.21147">
        <ele>1750.8</ele>
        <time>2015-06-21T04:42:00Z</time>
      </trkpt>
      <trkpt lat="41.93714" lon="9.21147">
        <ele>1751.2</ele>
        <time>2015-06-21T04:42:04Z</time>
      </trkpt>
      <trkpt lat="41.93713" lon="9.21147">
        <ele>1751.6</ele>
        <time>2015-06-21T04:42:22Z</time>
      </trkpt>
      <trkpt lat="41.93711" lon="9.21149">
        <ele>1751.4</ele>
        <time>2015-06-21T04:42:27Z</time>
      </trkpt>
      <trkpt lat="41.93712" lon="9.21154">
        <ele>1752.2</ele>
        <time>2015-06-21T04:42:35Z</time>
      </trkpt>
      <trkpt lat="41.93711" lon="9.21157">
        <ele>1752.4</ele>
        <time>2015-06-21T04:42:40Z</time>
      </trkpt>
      <trkpt lat="41.93712" lon="9.2116">
        <ele>1752.8</ele>
        <time>2015-06-21T04:42:44Z</time>
      </trkpt>
      <trkpt lat="41.93713" lon="9.21163">
        <ele>1753.6</ele>
        <time>2015-06-21T04:42:49Z</time>
      </trkpt>
      <trkpt lat="41.93714" lon="9.21163">
        <ele>1754.4</ele>
        <time>2015-06-21T04:42:53Z</time>
      </trkpt>
      <trkpt lat="41.93715" lon="9.21164">
        <ele>1755.4</ele>
        <time>2015-06-21T04:43:06Z</time>
      </trkpt>
      <trkpt lat="41.93716" lon="9.21165">
        <ele>1755.4</ele>
        <time>2015-06-21T04:43:11Z</time>
      </trkpt>
      <trkpt lat="41.93716" lon="9.21165">
        <ele>1755.6</ele>
        <time>2015-06-21T04:43:14Z</time>
      </trkpt>
      <trkpt lat="41.93716" lon="9.21165">
        <ele>1756</ele>
        <time>2015-06-21T04:43:17Z</time>
      </trkpt>
      <trkpt lat="41.93715" lon="9.21165">
        <ele>1755.8</ele>
        <time>2015-06-21T04:43:21Z</time>
      </trkpt>
      <trkpt lat="41.93715" lon="9.21165">
        <ele>1755.8</ele>
        <time>2015-06-21T04:43:40Z</time>
      </trkpt>
      <trkpt lat="41.93715" lon="9.21165">
        <ele>1755.6</ele>
        <time>2015-06-21T04:43:52Z</time>
      </trkpt>
      <trkpt lat="41.93715" lon="9.21165">
        <ele>1755.6</ele>
        <time>2015-06-21T04:44:05Z</time>
      </trkpt>
      <trkpt lat="41.93716" lon="9.21164">
        <ele>1755.8</ele>
        <time>2015-06-21T04:44:14Z</time>
      </trkpt>
      <trkpt lat="41.93717" lon="9.21165">
        <ele>1755.8</ele>
        <time>2015-06-21T04:44:26Z</time>
      </trkpt>
      <trkpt lat="41.93717" lon="9.21165">
        <ele>1755.8</ele>
        <time>2015-06-21T04:44:42Z</time>
      </trkpt>
      <trkpt lat="41.93717" lon="9.21165">
        <ele>1755.6</ele>
        <time>2015-06-21T04:44:55Z</time>
      </trkpt>
      <trkpt lat="41.93716" lon="9.21165">
        <ele>1755.6</ele>
        <time>2015-06-21T04:45:03Z</time>
      </trkpt>
      <trkpt lat="41.93716" lon="9.21165">
        <ele>1756</ele>
        <time>2015-06-21T04:45:17Z</time>
      </trkpt>
      <trkpt lat="41.93716" lon="9.21164">
        <ele>1755.8</ele>
        <time>2015-06-21T04:45:33Z</time>
      </trkpt>
      <trkpt lat="41.93716" lon="9.21164">
        <ele>1755.4</ele>
        <time>2015-06-21T04:45:46Z</time>
      </trkpt>
      <trkpt lat="41.93716" lon="9.21165">
        <ele>1755.6</ele>
        <time>2015-06-21T04:45:55Z</time>
      </trkpt>
      <trkpt lat="41.93716" lon="9.21165">
        <ele>1755.6</ele>
        <time>2015-06-21T04:46:09Z</time>
      </trkpt>
      <trkpt lat="41.93716" lon="9.21165">
        <ele>1755.8</ele>
        <time>2015-06-21T04:46:19Z</time>
      </trkpt>
      <trkpt lat="41.93715" lon="9.21164">
        <ele>1755.8</ele>
        <time>2015-06-21T04:46:32Z</time>
      </trkpt>
      <trkpt lat="41.93715" lon="9.21164">
        <ele>1756</ele>
        <time>2015-06-21T04:46:44Z</time>
      </trkpt>
      <trkpt lat="41.93714" lon="9.21164">
        <ele>1756</ele>
        <time>2015-06-21T04:46:58Z</time>
      </trkpt>
      <trkpt lat="41.93715" lon="9.21167">
        <ele>1755.8</ele>
        <time>2015-06-21T04:47:03Z</time>
      </trkpt>
      <trkpt lat="41.93717" lon="9.2117">
        <ele>1755.8</ele>
        <time>2015-06-21T04:47:09Z</time>
      </trkpt>
      <trkpt lat="41.93721" lon="9.21175">
        <ele>1756</ele>
        <time>2015-06-21T04:47:18Z</time>
      </trkpt>
      <trkpt lat="41.93728" lon="9.21188">
        <ele>1756.2</ele>
        <time>2015-06-21T04:47:34Z</time>
      </trkpt>
      <trkpt lat="41.93734" lon="9.21195">
        <ele>1756.2</ele>
        <time>2015-06-21T04:47:43Z</time>
      </trkpt>
      <trkpt lat="41.93737" lon="9.21198">
        <ele>1756.4</ele>
        <time>2015-06-21T04:47:50Z</time>
      </trkpt>
      <trkpt lat="41.9374" lon="9.21197">
        <ele>1757</ele>
        <time>2015-06-21T04:47:56Z</time>
      </trkpt>
      <trkpt lat="41.93742" lon="9.21196">
        <ele>1757.6</ele>
        <time>2015-06-21T04:48:01Z</time>
      </trkpt>
      <trkpt lat="41.93743" lon="9.21197">
        <ele>1758.2</ele>
        <time>2015-06-21T04:48:06Z</time>
      </trkpt>
      <trkpt lat="41.93744" lon="9.21198">
        <ele>1759.2</ele>
        <time>2015-06-21T04:48:12Z</time>
      </trkpt>
      <trkpt lat="41.93748" lon="9.21202">
        <ele>1760</ele>
        <time>2015-06-21T04:48:19Z</time>
      </trkpt>
      <trkpt lat="41.93751" lon="9.21206">
        <ele>1760.4</ele>
        <time>2015-06-21T04:48:24Z</time>
      </trkpt>
      <trkpt lat="41.93755" lon="9.21208">
        <ele>1761.2</ele>
        <time>2015-06-21T04:48:30Z</time>
      </trkpt>
      <trkpt lat="41.93759" lon="9.21208">
        <ele>1761.8</ele>
        <time>2015-06-21T04:48:36Z</time>
      </trkpt>
      <trkpt lat="41.93762" lon="9.2121">
        <ele>1762.4</ele>
        <time>2015-06-21T04:48:42Z</time>
      </trkpt>
      <trkpt lat="41.93766" lon="9.21212">
        <ele>1763.2</ele>
        <time>2015-06-21T04:48:48Z</time>
      </trkpt>
      <trkpt lat="41.93769" lon="9.21213">
        <ele>1763.8</ele>
        <time>2015-06-21T04:48:55Z</time>
      </trkpt>
      <trkpt lat="41.93772" lon="9.21215">
        <ele>1764.2</ele>
        <time>2015-06-21T04:49:00Z</time>
      </trkpt>
      <trkpt lat="41.93775" lon="9.21219">
        <ele>1765</ele>
        <time>2015-06-21T04:49:06Z</time>
      </trkpt>
      <trkpt lat="41.93777" lon="9.21221">
        <ele>1765.6</ele>
        <time>2015-06-21T04:49:11Z</time>
      </trkpt>
      <trkpt lat="41.9378" lon="9.21221">
        <ele>1766.6</ele>
        <time>2015-06-21T04:49:18Z</time>
      </trkpt>
      <trkpt lat="41.93782" lon="9.21219">
        <ele>1767.2</ele>
        <time>2015-06-21T04:49:22Z</time>
      </trkpt>
      <trkpt lat="41.93784" lon="9.21218">
        <ele>1768</ele>
        <time>2015-06-21T04:49:28Z</time>
      </trkpt>
      <trkpt lat="41.93787" lon="9.21218">
        <ele>1768.8</ele>
        <time>2015-06-21T04:49:35Z</time>
      </trkpt>
      <trkpt lat="41.9379" lon="9.21219">
        <ele>1769.4</ele>
        <time>2015-06-21T04:49:42Z</time>
      </trkpt>
      <trkpt lat="41.93791" lon="9.21217">
        <ele>1769.6</ele>
        <time>2015-06-21T04:49:47Z</time>
      </trkpt>
      <trkpt lat="41.93794" lon="9.21215">
        <ele>1770.6</ele>
        <time>2015-06-21T04:49:53Z</time>
      </trkpt>
      <trkpt lat="41.93796" lon="9.21214">
        <ele>1771.2</ele>
        <time>2015-06-21T04:49:58Z</time>
      </trkpt>
      <trkpt lat="41.93799" lon="9.21213">
        <ele>1772.2</ele>
        <time>2015-06-21T04:50:05Z</time>
      </trkpt>
      <trkpt lat="41.938" lon="9.21211">
        <ele>1772.6</ele>
        <time>2015-06-21T04:50:09Z</time>
      </trkpt>
      <trkpt lat="41.93801" lon="9.21208">
        <ele>1773.6</ele>
        <time>2015-06-21T04:50:15Z</time>
      </trkpt>
      <trkpt lat="41.93802" lon="9.21206">
        <ele>1774.6</ele>
        <time>2015-06-21T04:50:21Z</time>
      </trkpt>
      <trkpt lat="41.93804" lon="9.21205">
        <ele>1775.2</ele>
        <time>2015-06-21T04:50:28Z</time>
      </trkpt>
      <trkpt lat="41.93805" lon="9.21203">
        <ele>1775.6</ele>
        <time>2015-06-21T04:50:33Z</time>
      </trkpt>
      <trkpt lat="41.93806" lon="9.21201">
        <ele>1776.6</ele>
        <time>2015-06-21T04:50:40Z</time>
      </trkpt>
      <trkpt lat="41.93808" lon="9.21198">
        <ele>1777.2</ele>
        <time>2015-06-21T04:50:47Z</time>
      </trkpt>
      <trkpt lat="41.93811" lon="9.21198">
        <ele>1777.4</ele>
        <time>2015-06-21T04:50:52Z</time>
      </trkpt>
      <trkpt lat="41.93813" lon="9.212">
        <ele>1778.6</ele>
        <time>2015-06-21T04:50:58Z</time>
      </trkpt>
      <trkpt lat="41.93815" lon="9.21203">
        <ele>1779.2</ele>
        <time>2015-06-21T04:51:04Z</time>
      </trkpt>
      <trkpt lat="41.93816" lon="9.21206">
        <ele>1779.8</ele>
        <time>2015-06-21T04:51:10Z</time>
      </trkpt>
      <trkpt lat="41.9382" lon="9.21208">
        <ele>1780.6</ele>
        <time>2015-06-21T04:51:18Z</time>
      </trkpt>
      <trkpt lat="41.93822" lon="9.21211">
        <ele>1781</ele>
        <time>2015-06-21T04:51:24Z</time>
      </trkpt>
      <trkpt lat="41.93823" lon="9.21213">
        <ele>1781.6</ele>
        <time>2015-06-21T04:51:30Z</time>
      </trkpt>
      <trkpt lat="41.93826" lon="9.21214">
        <ele>1782</ele>
        <time>2015-06-21T04:51:36Z</time>
      </trkpt>
      <trkpt lat="41.93828" lon="9.21216">
        <ele>1783</ele>
        <time>2015-06-21T04:51:42Z</time>
      </trkpt>
      <trkpt lat="41.9383" lon="9.21218">
        <ele>1783.6</ele>
        <time>2015-06-21T04:51:48Z</time>
      </trkpt>
      <trkpt lat="41.93833" lon="9.2122">
        <ele>1784.2</ele>
        <time>2015-06-21T04:51:54Z</time>
      </trkpt>
      <trkpt lat="41.93834" lon="9.21219">
        <ele>1785</ele>
        <time>2015-06-21T04:51:59Z</time>
      </trkpt>
      <trkpt lat="41.93837" lon="9.21219">
        <ele>1785.8</ele>
        <time>2015-06-21T04:52:07Z</time>
      </trkpt>
      <trkpt lat="41.9384" lon="9.21221">
        <ele>1786.2</ele>
        <time>2015-06-21T04:52:14Z</time>
      </trkpt>
      <trkpt lat="41.93841" lon="9.21223">
        <ele>1786.8</ele>
        <time>2015-06-21T04:52:19Z</time>
      </trkpt>
      <trkpt lat="41.93843" lon="9.21227">
        <ele>1788.2</ele>
        <time>2015-06-21T04:52:26Z</time>
      </trkpt>
      <trkpt lat="41.93846" lon="9.2123">
        <ele>1788.8</ele>
        <time>2015-06-21T04:52:33Z</time>
      </trkpt>
      <trkpt lat="41.93848" lon="9.21236">
        <ele>1789.4</ele>
        <time>2015-06-21T04:52:42Z</time>
      </trkpt>
      <trkpt lat="41.93851" lon="9.21241">
        <ele>1789.8</ele>
        <time>2015-06-21T04:52:50Z</time>
      </trkpt>
      <trkpt lat="41.93853" lon="9.21242">
        <ele>1790.4</ele>
        <time>2015-06-21T04:52:56Z</time>
      </trkpt>
      <trkpt lat="41.93855" lon="9.21244">
        <ele>1791</ele>
        <time>2015-06-21T04:53:02Z</time>
      </trkpt>
      <trkpt lat="41.93855" lon="9.21248">
        <ele>1792</ele>
        <time>2015-06-21T04:53:08Z</time>
      </trkpt>
      <trkpt lat="41.93857" lon="9.21253">
        <ele>1792.6</ele>
        <time>2015-06-21T04:53:15Z</time>
      </trkpt>
      <trkpt lat="41.9386" lon="9.21255">
        <ele>1793.2</ele>
        <time>2015-06-21T04:53:23Z</time>
      </trkpt>
      <trkpt lat="41.93862" lon="9.21257">
        <ele>1793.6</ele>
        <time>2015-06-21T04:53:29Z</time>
      </trkpt>
      <trkpt lat="41.93864" lon="9.21257">
        <ele>1794.4</ele>
        <time>2015-06-21T04:53:35Z</time>
      </trkpt>
      <trkpt lat="41.93867" lon="9.21258">
        <ele>1794.8</ele>
        <time>2015-06-21T04:53:41Z</time>
      </trkpt>
      <trkpt lat="41.9387" lon="9.2126">
        <ele>1795.6</ele>
        <time>2015-06-21T04:53:47Z</time>
      </trkpt>
      <trkpt lat="41.93871" lon="9.2126">
        <ele>1796.4</ele>
        <time>2015-06-21T04:53:53Z</time>
      </trkpt>
      <trkpt lat="41.93874" lon="9.21263">
        <ele>1797.2</ele>
        <time>2015-06-21T04:53:59Z</time>
      </trkpt>
      <trkpt lat="41.93876" lon="9.21266">
        <ele>1797.8</ele>
        <time>2015-06-21T04:54:05Z</time>
      </trkpt>
      <trkpt lat="41.93878" lon="9.21268">
        <ele>1798.6</ele>
        <time>2015-06-21T04:54:11Z</time>
      </trkpt>
      <trkpt lat="41.93881" lon="9.21271">
        <ele>1799.4</ele>
        <time>2015-06-21T04:54:17Z</time>
      </trkpt>
      <trkpt lat="41.93884" lon="9.21272">
        <ele>1799.8</ele>
        <time>2015-06-21T04:54:23Z</time>
      </trkpt>
      <trkpt lat="41.93887" lon="9.21274">
        <ele>1800.8</ele>
        <time>2015-06-21T04:54:29Z</time>
      </trkpt>
      <trkpt lat="41.93891" lon="9.21276">
        <ele>1801.4</ele>
        <time>2015-06-21T04:54:35Z</time>
      </trkpt>
      <trkpt lat="41.93898" lon="9.21284">
        <ele>1802.4</ele>
        <time>2015-06-21T04:54:47Z</time>
      </trkpt>
      <trkpt lat="41.93903" lon="9.21288">
        <ele>1802.6</ele>
        <time>2015-06-21T04:54:57Z</time>
      </trkpt>
      <trkpt lat="41.93908" lon="9.21291">
        <ele>1803</ele>
        <time>2015-06-21T04:55:04Z</time>
      </trkpt>
      <trkpt lat="41.93913" lon="9.21295">
        <ele>1803.8</ele>
        <time>2015-06-21T04:55:14Z</time>
      </trkpt>
      <trkpt lat="41.9392" lon="9.21301">
        <ele>1804.2</ele>
        <time>2015-06-21T04:55:24Z</time>
      </trkpt>
      <trkpt lat="41.9393" lon="9.21312">
        <ele>1804.6</ele>
        <time>2015-06-21T04:55:38Z</time>
      </trkpt>
      <trkpt lat="41.93937" lon="9.2132">
        <ele>1805</ele>
        <time>2015-06-21T04:55:50Z</time>
      </trkpt>
      <trkpt lat="41.93942" lon="9.21323">
        <ele>1805.2</ele>
        <time>2015-06-21T04:55:57Z</time>
      </trkpt>
      <trkpt lat="41.93942" lon="9.21324">
        <ele>1805.4</ele>
        <time>2015-06-21T04:55:58Z</time>
      </trkpt>
      <trkpt lat="41.93946" lon="9.21329">
        <ele>1805.6</ele>
        <time>2015-06-21T04:56:06Z</time>
      </trkpt>
      <trkpt lat="41.93948" lon="9.21333">
        <ele>1806.4</ele>
        <time>2015-06-21T04:56:14Z</time>
      </trkpt>
      <trkpt lat="41.93952" lon="9.21335">
        <ele>1806.8</ele>
        <time>2015-06-21T04:56:20Z</time>
      </trkpt>
      <trkpt lat="41.93957" lon="9.21336">
        <ele>1807.8</ele>
        <time>2015-06-21T04:56:28Z</time>
      </trkpt>
      <trkpt lat="41.93982" lon="9.21329">
        <ele>1804.6</ele>
        <time>2015-06-21T04:57:19Z</time>
      </trkpt>
      <trkpt lat="41.93989" lon="9.21325">
        <ele>1803.4</ele>
        <time>2015-06-21T04:57:29Z</time>
      </trkpt>
      <trkpt lat="41.93996" lon="9.21324">
        <ele>1801.6</ele>
        <time>2015-06-21T04:57:40Z</time>
      </trkpt>
      <trkpt lat="41.94008" lon="9.21327">
        <ele>1799.8</ele>
        <time>2015-06-21T04:57:54Z</time>
      </trkpt>
      <trkpt lat="41.9405" lon="9.21348">
        <ele>1798</ele>
        <time>2015-06-21T04:58:36Z</time>
      </trkpt>
      <trkpt lat="41.94064" lon="9.21356">
        <ele>1797.8</ele>
        <time>2015-06-21T04:58:50Z</time>
      </trkpt>
      <trkpt lat="41.94067" lon="9.21358">
        <ele>1797.8</ele>
        <time>2015-06-21T04:58:53Z</time>
      </trkpt>
      <trkpt lat="41.94077" lon="9.21363">
        <ele>1798</ele>
        <time>2015-06-21T04:59:03Z</time>
      </trkpt>
      <trkpt lat="41.9408" lon="9.21366">
        <ele>1798.2</ele>
        <time>2015-06-21T04:59:07Z</time>
      </trkpt>
      <trkpt lat="41.94085" lon="9.21368">
        <ele>1798.6</ele>
        <time>2015-06-21T04:59:13Z</time>
      </trkpt>
      <trkpt lat="41.94092" lon="9.21372">
        <ele>1799.2</ele>
        <time>2015-06-21T04:59:22Z</time>
      </trkpt>
      <trkpt lat="41.94097" lon="9.21375">
        <ele>1799.6</ele>
        <time>2015-06-21T04:59:29Z</time>
      </trkpt>
      <trkpt lat="41.94103" lon="9.21378">
        <ele>1800.4</ele>
        <time>2015-06-21T04:59:36Z</time>
      </trkpt>
      <trkpt lat="41.94112" lon="9.21382">
        <ele>1801</ele>
        <time>2015-06-21T04:59:48Z</time>
      </trkpt>
      <trkpt lat="41.94115" lon="9.21382">
        <ele>1801</ele>
        <time>2015-06-21T04:59:51Z</time>
      </trkpt>
      <trkpt lat="41.94116" lon="9.21383">
        <ele>1801.2</ele>
        <time>2015-06-21T04:59:53Z</time>
      </trkpt>
      <trkpt lat="41.94128" lon="9.21392">
        <ele>1802.4</ele>
        <time>2015-06-21T05:00:07Z</time>
      </trkpt>
      <trkpt lat="41.94145" lon="9.21401">
        <ele>1802.6</ele>
        <time>2015-06-21T05:00:25Z</time>
      </trkpt>
      <trkpt lat="41.94149" lon="9.21407">
        <ele>1802.6</ele>
        <time>2015-06-21T05:00:33Z</time>
      </trkpt>
      <trkpt lat="41.94151" lon="9.21408">
        <ele>1802.8</ele>
        <time>2015-06-21T05:00:35Z</time>
      </trkpt>
      <trkpt lat="41.94152" lon="9.2141">
        <ele>1802.8</ele>
        <time>2015-06-21T05:00:37Z</time>
      </trkpt>
      <trkpt lat="41.94155" lon="9.21412">
        <ele>1803.2</ele>
        <time>2015-06-21T05:00:42Z</time>
      </trkpt>
      <trkpt lat="41.94159" lon="9.21418">
        <ele>1804</ele>
        <time>2015-06-21T05:00:49Z</time>
      </trkpt>
      <trkpt lat="41.94161" lon="9.21423">
        <ele>1804.6</ele>
        <time>2015-06-21T05:00:55Z</time>
      </trkpt>
      <trkpt lat="41.94162" lon="9.21429">
        <ele>1805.4</ele>
        <time>2015-06-21T05:01:01Z</time>
      </trkpt>
      <trkpt lat="41.94166" lon="9.21437">
        <ele>1806.2</ele>
        <time>2015-06-21T05:01:10Z</time>
      </trkpt>
      <trkpt lat="41.9417" lon="9.21441">
        <ele>1806.8</ele>
        <time>2015-06-21T05:01:19Z</time>
      </trkpt>
      <trkpt lat="41.94173" lon="9.21443">
        <ele>1807.2</ele>
        <time>2015-06-21T05:01:25Z</time>
      </trkpt>
      <trkpt lat="41.94178" lon="9.21448">
        <ele>1808.2</ele>
        <time>2015-06-21T05:01:32Z</time>
      </trkpt>
      <trkpt lat="41.94182" lon="9.21456">
        <ele>1808.8</ele>
        <time>2015-06-21T05:01:40Z</time>
      </trkpt>
      <trkpt lat="41.94186" lon="9.21465">
        <ele>1809.6</ele>
        <time>2015-06-21T05:01:50Z</time>
      </trkpt>
      <trkpt lat="41.9419" lon="9.21473">
        <ele>1810.2</ele>
        <time>2015-06-21T05:01:58Z</time>
      </trkpt>
      <trkpt lat="41.94197" lon="9.21482">
        <ele>1810.8</ele>
        <time>2015-06-21T05:02:10Z</time>
      </trkpt>
      <trkpt lat="41.94211" lon="9.215">
        <ele>1811.4</ele>
        <time>2015-06-21T05:02:30Z</time>
      </trkpt>
      <trkpt lat="41.94217" lon="9.21507">
        <ele>1811.2</ele>
        <time>2015-06-21T05:02:38Z</time>
      </trkpt>
      <trkpt lat="41.94218" lon="9.2151">
        <ele>1811.2</ele>
        <time>2015-06-21T05:02:40Z</time>
      </trkpt>
      <trkpt lat="41.94219" lon="9.21511">
        <ele>1811.6</ele>
        <time>2015-06-21T05:02:42Z</time>
      </trkpt>
      <trkpt lat="41.94219" lon="9.21512">
        <ele>1811.4</ele>
        <time>2015-06-21T05:02:43Z</time>
      </trkpt>
      <trkpt lat="41.94224" lon="9.21521">
        <ele>1811.8</ele>
        <time>2015-06-21T05:02:55Z</time>
      </trkpt>
      <trkpt lat="41.94228" lon="9.21528">
        <ele>1812.2</ele>
        <time>2015-06-21T05:03:06Z</time>
      </trkpt>
      <trkpt lat="41.94233" lon="9.21534">
        <ele>1813</ele>
        <time>2015-06-21T05:03:15Z</time>
      </trkpt>
      <trkpt lat="41.94236" lon="9.21541">
        <ele>1813.2</ele>
        <time>2015-06-21T05:03:23Z</time>
      </trkpt>
      <trkpt lat="41.9424" lon="9.21546">
        <ele>1813.4</ele>
        <time>2015-06-21T05:03:29Z</time>
      </trkpt>
      <trkpt lat="41.94241" lon="9.21548">
        <ele>1813.2</ele>
        <time>2015-06-21T05:03:31Z</time>
      </trkpt>
      <trkpt lat="41.94243" lon="9.21551">
        <ele>1813.4</ele>
        <time>2015-06-21T05:03:35Z</time>
      </trkpt>
      <trkpt lat="41.94244" lon="9.21552">
        <ele>1813.2</ele>
        <time>2015-06-21T05:03:38Z</time>
      </trkpt>
      <trkpt lat="41.94251" lon="9.21563">
        <ele>1813.6</ele>
        <time>2015-06-21T05:03:50Z</time>
      </trkpt>
      <trkpt lat="41.94265" lon="9.21588">
        <ele>1812.4</ele>
        <time>2015-06-21T05:04:24Z</time>
      </trkpt>
      <trkpt lat="41.94268" lon="9.21598">
        <ele>1813</ele>
        <time>2015-06-21T05:04:36Z</time>
      </trkpt>
      <trkpt lat="41.94269" lon="9.21601">
        <ele>1813.2</ele>
        <time>2015-06-21T05:04:42Z</time>
      </trkpt>
      <trkpt lat="41.94269" lon="9.21605">
        <ele>1813.8</ele>
        <time>2015-06-21T05:04:49Z</time>
      </trkpt>
      <trkpt lat="41.94273" lon="9.21612">
        <ele>1814.8</ele>
        <time>2015-06-21T05:05:00Z</time>
      </trkpt>
      <trkpt lat="41.94287" lon="9.21622">
        <ele>1814.4</ele>
        <time>2015-06-21T05:05:39Z</time>
      </trkpt>
      <trkpt lat="41.94287" lon="9.21627">
        <ele>1814.2</ele>
        <time>2015-06-21T05:05:52Z</time>
      </trkpt>
      <trkpt lat="41.94286" lon="9.21631">
        <ele>1813.4</ele>
        <time>2015-06-21T05:05:57Z</time>
      </trkpt>
      <trkpt lat="41.94286" lon="9.21634">
        <ele>1813</ele>
        <time>2015-06-21T05:05:59Z</time>
      </trkpt>
      <trkpt lat="41.9429" lon="9.21644">
        <ele>1811.8</ele>
        <time>2015-06-21T05:06:07Z</time>
      </trkpt>
      <trkpt lat="41.94294" lon="9.21649">
        <ele>1811.4</ele>
        <time>2015-06-21T05:06:12Z</time>
      </trkpt>
      <trkpt lat="41.94295" lon="9.21651">
        <ele>1811.4</ele>
        <time>2015-06-21T05:06:14Z</time>
      </trkpt>
      <trkpt lat="41.94294" lon="9.21653">
        <ele>1811.4</ele>
        <time>2015-06-21T05:06:16Z</time>
      </trkpt>
      <trkpt lat="41.94296" lon="9.21665">
        <ele>1811.8</ele>
        <time>2015-06-21T05:06:32Z</time>
      </trkpt>
      <trkpt lat="41.94297" lon="9.21664">
        <ele>1812.2</ele>
        <time>2015-06-21T05:06:37Z</time>
      </trkpt>
      <trkpt lat="41.94299" lon="9.21663">
        <ele>1813.6</ele>
        <time>2015-06-21T05:06:49Z</time>
      </trkpt>
      <trkpt lat="41.94306" lon="9.21667">
        <ele>1813.6</ele>
        <time>2015-06-21T05:07:02Z</time>
      </trkpt>
      <trkpt lat="41.94309" lon="9.21668">
        <ele>1814</ele>
        <time>2015-06-21T05:07:07Z</time>
      </trkpt>
      <trkpt lat="41.9431" lon="9.21668">
        <ele>1814.8</ele>
        <time>2015-06-21T05:07:12Z</time>
      </trkpt>
      <trkpt lat="41.94313" lon="9.21666">
        <ele>1816.2</ele>
        <time>2015-06-21T05:07:24Z</time>
      </trkpt>
      <trkpt lat="41.94313" lon="9.21666">
        <ele>1816.6</ele>
        <time>2015-06-21T05:07:31Z</time>
      </trkpt>
      <trkpt lat="41.94307" lon="9.21667">
        <ele>1816.6</ele>
        <time>2015-06-21T05:07:44Z</time>
      </trkpt>
      <trkpt lat="41.94309" lon="9.21674">
        <ele>1815.8</ele>
        <time>2015-06-21T05:08:08Z</time>
      </trkpt>
      <trkpt lat="41.94309" lon="9.21677">
        <ele>1816</ele>
        <time>2015-06-21T05:08:25Z</time>
      </trkpt>
      <trkpt lat="41.94311" lon="9.21681">
        <ele>1816.4</ele>
        <time>2015-06-21T05:08:39Z</time>
      </trkpt>
      <trkpt lat="41.94312" lon="9.21682">
        <ele>1816.8</ele>
        <time>2015-06-21T05:08:45Z</time>
      </trkpt>
      <trkpt lat="41.94313" lon="9.21682">
        <ele>1818.2</ele>
        <time>2015-06-21T05:08:54Z</time>
      </trkpt>
      <trkpt lat="41.9432" lon="9.21689">
        <ele>1817.8</ele>
        <time>2015-06-21T05:09:30Z</time>
      </trkpt>
      <trkpt lat="41.94322" lon="9.21691">
        <ele>1818.2</ele>
        <time>2015-06-21T05:09:36Z</time>
      </trkpt>
      <trkpt lat="41.94323" lon="9.21695">
        <ele>1819</ele>
        <time>2015-06-21T05:09:42Z</time>
      </trkpt>
      <trkpt lat="41.94325" lon="9.21694">
        <ele>1820.2</ele>
        <time>2015-06-21T05:09:51Z</time>
      </trkpt>
      <trkpt lat="41.94327" lon="9.21692">
        <ele>1821</ele>
        <time>2015-06-21T05:10:00Z</time>
      </trkpt>
      <trkpt lat="41.9433" lon="9.21697">
        <ele>1821.6</ele>
        <time>2015-06-21T05:10:09Z</time>
      </trkpt>
      <trkpt lat="41.9434" lon="9.21719">
        <ele>1820.6</ele>
        <time>2015-06-21T05:10:54Z</time>
      </trkpt>
      <trkpt lat="41.9434" lon="9.21719">
        <ele>1820.6</ele>
        <time>2015-06-21T05:10:55Z</time>
      </trkpt>
      <trkpt lat="41.94343" lon="9.21724">
        <ele>1821.4</ele>
        <time>2015-06-21T05:11:02Z</time>
      </trkpt>
      <trkpt lat="41.94349" lon="9.21724">
        <ele>1822.2</ele>
        <time>2015-06-21T05:11:11Z</time>
      </trkpt>
      <trkpt lat="41.9435" lon="9.21724">
        <ele>1823.4</ele>
        <time>2015-06-21T05:11:32Z</time>
      </trkpt>
      <trkpt lat="41.94355" lon="9.21727">
        <ele>1823.2</ele>
        <time>2015-06-21T05:12:02Z</time>
      </trkpt>
      <trkpt lat="41.94359" lon="9.21733">
        <ele>1821.8</ele>
        <time>2015-06-21T05:12:29Z</time>
      </trkpt>
      <trkpt lat="41.94361" lon="9.21737">
        <ele>1820</ele>
        <time>2015-06-21T05:12:54Z</time>
      </trkpt>
      <trkpt lat="41.94362" lon="9.21739">
        <ele>1819</ele>
        <time>2015-06-21T05:13:03Z</time>
      </trkpt>
      <trkpt lat="41.94363" lon="9.21745">
        <ele>1817.6</ele>
        <time>2015-06-21T05:13:15Z</time>
      </trkpt>
      <trkpt lat="41.94364" lon="9.2175">
        <ele>1816.2</ele>
        <time>2015-06-21T05:13:24Z</time>
      </trkpt>
      <trkpt lat="41.94364" lon="9.21752">
        <ele>1815.4</ele>
        <time>2015-06-21T05:13:28Z</time>
      </trkpt>
      <trkpt lat="41.94363" lon="9.21754">
        <ele>1814.8</ele>
        <time>2015-06-21T05:13:33Z</time>
      </trkpt>
      <trkpt lat="41.94363" lon="9.21759">
        <ele>1813.2</ele>
        <time>2015-06-21T05:13:42Z</time>
      </trkpt>
      <trkpt lat="41.94374" lon="9.21774">
        <ele>1811.2</ele>
        <time>2015-06-21T05:14:25Z</time>
      </trkpt>
      <trkpt lat="41.94376" lon="9.21775">
        <ele>1812</ele>
        <time>2015-06-21T05:14:32Z</time>
      </trkpt>
      <trkpt lat="41.94378" lon="9.21773">
        <ele>1813</ele>
        <time>2015-06-21T05:14:39Z</time>
      </trkpt>
      <trkpt lat="41.94379" lon="9.21773">
        <ele>1813.6</ele>
        <time>2015-06-21T05:14:44Z</time>
      </trkpt>
      <trkpt lat="41.94379" lon="9.21773">
        <ele>1815</ele>
        <time>2015-06-21T05:15:08Z</time>
      </trkpt>
      <trkpt lat="41.9438" lon="9.21774">
        <ele>1815.4</ele>
        <time>2015-06-21T05:15:30Z</time>
      </trkpt>
      <trkpt lat="41.94382" lon="9.21771">
        <ele>1815.4</ele>
        <time>2015-06-21T05:15:52Z</time>
      </trkpt>
      <trkpt lat="41.94382" lon="9.21772">
        <ele>1816.2</ele>
        <time>2015-06-21T05:16:15Z</time>
      </trkpt>
      <trkpt lat="41.94387" lon="9.21767">
        <ele>1816.4</ele>
        <time>2015-06-21T05:16:27Z</time>
      </trkpt>
      <trkpt lat="41.9439" lon="9.21768">
        <ele>1817.2</ele>
        <time>2015-06-21T05:16:42Z</time>
      </trkpt>
      <trkpt lat="41.94381" lon="9.21769">
        <ele>1815.6</ele>
        <time>2015-06-21T05:18:00Z</time>
      </trkpt>
      <trkpt lat="41.94381" lon="9.21769">
        <ele>1815.6</ele>
        <time>2015-06-21T05:18:03Z</time>
      </trkpt>
      <trkpt lat="41.94381" lon="9.2177">
        <ele>1816.2</ele>
        <time>2015-06-21T05:18:22Z</time>
      </trkpt>
      <trkpt lat="41.94381" lon="9.21769">
        <ele>1816.2</ele>
        <time>2015-06-21T05:19:15Z</time>
      </trkpt>
      <trkpt lat="41.94381" lon="9.21769">
        <ele>1816</ele>
        <time>2015-06-21T05:19:46Z</time>
      </trkpt>
      <trkpt lat="41.94381" lon="9.21768">
        <ele>1816.2</ele>
        <time>2015-06-21T05:20:23Z</time>
      </trkpt>
      <trkpt lat="41.94382" lon="9.21765">
        <ele>1816.2</ele>
        <time>2015-06-21T05:20:46Z</time>
      </trkpt>
      <trkpt lat="41.94392" lon="9.21763">
        <ele>1816.8</ele>
        <time>2015-06-21T05:21:00Z</time>
      </trkpt>
      <trkpt lat="41.944" lon="9.21765">
        <ele>1817.2</ele>
        <time>2015-06-21T05:21:10Z</time>
      </trkpt>
      <trkpt lat="41.94404" lon="9.21765">
        <ele>1817.8</ele>
        <time>2015-06-21T05:21:15Z</time>
      </trkpt>
      <trkpt lat="41.94409" lon="9.2177">
        <ele>1818.2</ele>
        <time>2015-06-21T05:21:24Z</time>
      </trkpt>
      <trkpt lat="41.9441" lon="9.21774">
        <ele>1818.6</ele>
        <time>2015-06-21T05:21:31Z</time>
      </trkpt>
      <trkpt lat="41.9441" lon="9.21775">
        <ele>1819.4</ele>
        <time>2015-06-21T05:21:36Z</time>
      </trkpt>
      <trkpt lat="41.9441" lon="9.21777">
        <ele>1821</ele>
        <time>2015-06-21T05:21:44Z</time>
      </trkpt>
      <trkpt lat="41.94411" lon="9.21779">
        <ele>1821.8</ele>
        <time>2015-06-21T05:21:54Z</time>
      </trkpt>
      <trkpt lat="41.94411" lon="9.21782">
        <ele>1822.2</ele>
        <time>2015-06-21T05:21:59Z</time>
      </trkpt>
      <trkpt lat="41.94414" lon="9.21785">
        <ele>1823.8</ele>
        <time>2015-06-21T05:22:12Z</time>
      </trkpt>
      <trkpt lat="41.94417" lon="9.21785">
        <ele>1824.2</ele>
        <time>2015-06-21T05:22:18Z</time>
      </trkpt>
      <trkpt lat="41.94419" lon="9.21786">
        <ele>1825</ele>
        <time>2015-06-21T05:22:23Z</time>
      </trkpt>
      <trkpt lat="41.94422" lon="9.21787">
        <ele>1826.4</ele>
        <time>2015-06-21T05:22:31Z</time>
      </trkpt>
      <trkpt lat="41.94424" lon="9.21789">
        <ele>1826.2</ele>
        <time>2015-06-21T05:22:47Z</time>
      </trkpt>
      <trkpt lat="41.94443" lon="9.21805">
        <ele>1824.8</ele>
        <time>2015-06-21T05:23:28Z</time>
      </trkpt>
      <trkpt lat="41.94445" lon="9.21806">
        <ele>1825.8</ele>
        <time>2015-06-21T05:23:34Z</time>
      </trkpt>
      <trkpt lat="41.94448" lon="9.21807">
        <ele>1826.8</ele>
        <time>2015-06-21T05:23:41Z</time>
      </trkpt>
      <trkpt lat="41.94451" lon="9.21808">
        <ele>1827.6</ele>
        <time>2015-06-21T05:23:47Z</time>
      </trkpt>
      <trkpt lat="41.94464" lon="9.21822">
        <ele>1827.6</ele>
        <time>2015-06-21T05:24:26Z</time>
      </trkpt>
      <trkpt lat="41.94471" lon="9.21834">
        <ele>1826.4</ele>
        <time>2015-06-21T05:25:53Z</time>
      </trkpt>
      <trkpt lat="41.94468" lon="9.2183">
        <ele>1826.8</ele>
        <time>2015-06-21T05:26:00Z</time>
      </trkpt>
      <trkpt lat="41.94466" lon="9.21829">
        <ele>1827.4</ele>
        <time>2015-06-21T05:26:04Z</time>
      </trkpt>
      <trkpt lat="41.94457" lon="9.21812">
        <ele>1827.8</ele>
        <time>2015-06-21T05:26:28Z</time>
      </trkpt>
      <trkpt lat="41.94453" lon="9.21809">
        <ele>1827.6</ele>
        <time>2015-06-21T05:26:33Z</time>
      </trkpt>
      <trkpt lat="41.94451" lon="9.2181">
        <ele>1827.8</ele>
        <time>2015-06-21T05:26:38Z</time>
      </trkpt>
      <trkpt lat="41.9445" lon="9.21813">
        <ele>1827.6</ele>
        <time>2015-06-21T05:26:43Z</time>
      </trkpt>
      <trkpt lat="41.94451" lon="9.21815">
        <ele>1828.6</ele>
        <time>2015-06-21T05:26:48Z</time>
      </trkpt>
      <trkpt lat="41.9445" lon="9.21818">
        <ele>1829.8</ele>
        <time>2015-06-21T05:26:54Z</time>
      </trkpt>
      <trkpt lat="41.9445" lon="9.21819">
        <ele>1830.6</ele>
        <time>2015-06-21T05:26:58Z</time>
      </trkpt>
      <trkpt lat="41.94451" lon="9.21824">
        <ele>1832</ele>
        <time>2015-06-21T05:27:08Z</time>
      </trkpt>
      <trkpt lat="41.94452" lon="9.21828">
        <ele>1832.6</ele>
        <time>2015-06-21T05:27:15Z</time>
      </trkpt>
      <trkpt lat="41.94453" lon="9.21832">
        <ele>1834</ele>
        <time>2015-06-21T05:27:26Z</time>
      </trkpt>
      <trkpt lat="41.94455" lon="9.21835">
        <ele>1834.8</ele>
        <time>2015-06-21T05:27:36Z</time>
      </trkpt>
      <trkpt lat="41.94456" lon="9.21839">
        <ele>1835.6</ele>
        <time>2015-06-21T05:27:43Z</time>
      </trkpt>
      <trkpt lat="41.94457" lon="9.21852">
        <ele>1836.6</ele>
        <time>2015-06-21T05:28:06Z</time>
      </trkpt>
      <trkpt lat="41.94457" lon="9.21858">
        <ele>1837.2</ele>
        <time>2015-06-21T05:28:14Z</time>
      </trkpt>
      <trkpt lat="41.94459" lon="9.21865">
        <ele>1838.4</ele>
        <time>2015-06-21T05:28:22Z</time>
      </trkpt>
      <trkpt lat="41.9446" lon="9.21873">
        <ele>1839.4</ele>
        <time>2015-06-21T05:28:32Z</time>
      </trkpt>
      <trkpt lat="41.94459" lon="9.21878">
        <ele>1840.2</ele>
        <time>2015-06-21T05:28:39Z</time>
      </trkpt>
      <trkpt lat="41.94458" lon="9.21881">
        <ele>1841.2</ele>
        <time>2015-06-21T05:28:47Z</time>
      </trkpt>
      <trkpt lat="41.94458" lon="9.21884">
        <ele>1842.2</ele>
        <time>2015-06-21T05:28:55Z</time>
      </trkpt>
      <trkpt lat="41.94458" lon="9.21887">
        <ele>1843.2</ele>
        <time>2015-06-21T05:29:03Z</time>
      </trkpt>
      <trkpt lat="41.94459" lon="9.21889">
        <ele>1843.6</ele>
        <time>2015-06-21T05:29:09Z</time>
      </trkpt>
      <trkpt lat="41.94459" lon="9.2189">
        <ele>1844.8</ele>
        <time>2015-06-21T05:29:15Z</time>
      </trkpt>
      <trkpt lat="41.94464" lon="9.21896">
        <ele>1845.6</ele>
        <time>2015-06-21T05:29:50Z</time>
      </trkpt>
      <trkpt lat="41.94465" lon="9.21897">
        <ele>1846.2</ele>
        <time>2015-06-21T05:29:57Z</time>
      </trkpt>
      <trkpt lat="41.94467" lon="9.21899">
        <ele>1847.6</ele>
        <time>2015-06-21T05:30:09Z</time>
      </trkpt>
      <trkpt lat="41.94469" lon="9.219">
        <ele>1848.2</ele>
        <time>2015-06-21T05:30:18Z</time>
      </trkpt>
      <trkpt lat="41.94473" lon="9.21902">
        <ele>1849.6</ele>
        <time>2015-06-21T05:30:31Z</time>
      </trkpt>
      <trkpt lat="41.9448" lon="9.21908">
        <ele>1847.8</ele>
        <time>2015-06-21T05:31:54Z</time>
      </trkpt>
      <trkpt lat="41.9448" lon="9.21912">
        <ele>1846.4</ele>
        <time>2015-06-21T05:32:23Z</time>
      </trkpt>
      <trkpt lat="41.94483" lon="9.21916">
        <ele>1845</ele>
        <time>2015-06-21T05:32:38Z</time>
      </trkpt>
      <trkpt lat="41.94483" lon="9.21922">
        <ele>1843.6</ele>
        <time>2015-06-21T05:32:52Z</time>
      </trkpt>
      <trkpt lat="41.9449" lon="9.21931">
        <ele>1842.4</ele>
        <time>2015-06-21T05:33:20Z</time>
      </trkpt>
      <trkpt lat="41.94493" lon="9.21941">
        <ele>1841</ele>
        <time>2015-06-21T05:33:43Z</time>
      </trkpt>
      <trkpt lat="41.94494" lon="9.21945">
        <ele>1840.4</ele>
        <time>2015-06-21T05:33:47Z</time>
      </trkpt>
      <trkpt lat="41.94495" lon="9.21948">
        <ele>1840</ele>
        <time>2015-06-21T05:33:51Z</time>
      </trkpt>
      <trkpt lat="41.94501" lon="9.21959">
        <ele>1839.6</ele>
        <time>2015-06-21T05:34:15Z</time>
      </trkpt>
      <trkpt lat="41.94508" lon="9.21963">
        <ele>1839</ele>
        <time>2015-06-21T05:34:40Z</time>
      </trkpt>
      <trkpt lat="41.94508" lon="9.21963">
        <ele>1839</ele>
        <time>2015-06-21T05:34:43Z</time>
      </trkpt>
      <trkpt lat="41.94511" lon="9.21963">
        <ele>1839.2</ele>
        <time>2015-06-21T05:34:51Z</time>
      </trkpt>
      <trkpt lat="41.94514" lon="9.21966">
        <ele>1839.2</ele>
        <time>2015-06-21T05:34:56Z</time>
      </trkpt>
      <trkpt lat="41.94517" lon="9.21968">
        <ele>1839.2</ele>
        <time>2015-06-21T05:35:01Z</time>
      </trkpt>
      <trkpt lat="41.94521" lon="9.21974">
        <ele>1837.4</ele>
        <time>2015-06-21T05:35:11Z</time>
      </trkpt>
      <trkpt lat="41.94524" lon="9.21975">
        <ele>1836.4</ele>
        <time>2015-06-21T05:35:18Z</time>
      </trkpt>
      <trkpt lat="41.94527" lon="9.21977">
        <ele>1835.4</ele>
        <time>2015-06-21T05:35:24Z</time>
      </trkpt>
      <trkpt lat="41.94529" lon="9.2198">
        <ele>1834</ele>
        <time>2015-06-21T05:35:30Z</time>
      </trkpt>
      <trkpt lat="41.94532" lon="9.21982">
        <ele>1833.4</ele>
        <time>2015-06-21T05:35:34Z</time>
      </trkpt>
      <trkpt lat="41.94535" lon="9.21986">
        <ele>1832.2</ele>
        <time>2015-06-21T05:35:39Z</time>
      </trkpt>
      <trkpt lat="41.94537" lon="9.21989">
        <ele>1831.2</ele>
        <time>2015-06-21T05:35:43Z</time>
      </trkpt>
      <trkpt lat="41.94549" lon="9.21999">
        <ele>1829.6</ele>
        <time>2015-06-21T05:36:01Z</time>
      </trkpt>
      <trkpt lat="41.94552" lon="9.22002">
        <ele>1829.2</ele>
        <time>2015-06-21T05:36:06Z</time>
      </trkpt>
      <trkpt lat="41.94557" lon="9.22001">
        <ele>1827.8</ele>
        <time>2015-06-21T05:36:13Z</time>
      </trkpt>
      <trkpt lat="41.9456" lon="9.22003">
        <ele>1826.8</ele>
        <time>2015-06-21T05:36:19Z</time>
      </trkpt>
      <trkpt lat="41.94568" lon="9.22007">
        <ele>1825</ele>
        <time>2015-06-21T05:36:30Z</time>
      </trkpt>
      <trkpt lat="41.94572" lon="9.22009">
        <ele>1824.2</ele>
        <time>2015-06-21T05:36:37Z</time>
      </trkpt>
      <trkpt lat="41.94578" lon="9.22013">
        <ele>1822.8</ele>
        <time>2015-06-21T05:36:46Z</time>
      </trkpt>
      <trkpt lat="41.94582" lon="9.22013">
        <ele>1821.8</ele>
        <time>2015-06-21T05:36:52Z</time>
      </trkpt>
      <trkpt lat="41.94588" lon="9.22011">
        <ele>1820.6</ele>
        <time>2015-06-21T05:36:59Z</time>
      </trkpt>
      <trkpt lat="41.94593" lon="9.22009">
        <ele>1819.4</ele>
        <time>2015-06-21T05:37:05Z</time>
      </trkpt>
      <trkpt lat="41.94596" lon="9.22004">
        <ele>1818.2</ele>
        <time>2015-06-21T05:37:11Z</time>
      </trkpt>
      <trkpt lat="41.94601" lon="9.22004">
        <ele>1817</ele>
        <time>2015-06-21T05:37:18Z</time>
      </trkpt>
      <trkpt lat="41.94607" lon="9.22008">
        <ele>1815.6</ele>
        <time>2015-06-21T05:37:25Z</time>
      </trkpt>
      <trkpt lat="41.94614" lon="9.22015">
        <ele>1814.2</ele>
        <time>2015-06-21T05:37:34Z</time>
      </trkpt>
      <trkpt lat="41.94615" lon="9.22016">
        <ele>1814.2</ele>
        <time>2015-06-21T05:37:36Z</time>
      </trkpt>
      <trkpt lat="41.94618" lon="9.22018">
        <ele>1814</ele>
        <time>2015-06-21T05:37:39Z</time>
      </trkpt>
      <trkpt lat="41.94619" lon="9.2202">
        <ele>1813.8</ele>
        <time>2015-06-21T05:37:41Z</time>
      </trkpt>
      <trkpt lat="41.94622" lon="9.22022">
        <ele>1813.2</ele>
        <time>2015-06-21T05:37:45Z</time>
      </trkpt>
      <trkpt lat="41.94624" lon="9.22025">
        <ele>1812.4</ele>
        <time>2015-06-21T05:37:49Z</time>
      </trkpt>
      <trkpt lat="41.9463" lon="9.22027">
        <ele>1811.8</ele>
        <time>2015-06-21T05:37:57Z</time>
      </trkpt>
      <trkpt lat="41.94634" lon="9.22031">
        <ele>1811</ele>
        <time>2015-06-21T05:38:03Z</time>
      </trkpt>
      <trkpt lat="41.94637" lon="9.22036">
        <ele>1810.2</ele>
        <time>2015-06-21T05:38:08Z</time>
      </trkpt>
      <trkpt lat="41.94637" lon="9.22037">
        <ele>1809.6</ele>
        <time>2015-06-21T05:38:10Z</time>
      </trkpt>
      <trkpt lat="41.94639" lon="9.2204">
        <ele>1809.4</ele>
        <time>2015-06-21T05:38:14Z</time>
      </trkpt>
      <trkpt lat="41.94641" lon="9.22043">
        <ele>1809.2</ele>
        <time>2015-06-21T05:38:17Z</time>
      </trkpt>
      <trkpt lat="41.94642" lon="9.22048">
        <ele>1808.2</ele>
        <time>2015-06-21T05:38:21Z</time>
      </trkpt>
      <trkpt lat="41.94644" lon="9.22054">
        <ele>1807.6</ele>
        <time>2015-06-21T05:38:26Z</time>
      </trkpt>
      <trkpt lat="41.94644" lon="9.22054">
        <ele>1806.6</ele>
        <time>2015-06-21T05:38:31Z</time>
      </trkpt>
      <trkpt lat="41.94647" lon="9.22056">
        <ele>1806.4</ele>
        <time>2015-06-21T05:38:34Z</time>
      </trkpt>
      <trkpt lat="41.94651" lon="9.22059">
        <ele>1806</ele>
        <time>2015-06-21T05:38:39Z</time>
      </trkpt>
      <trkpt lat="41.94659" lon="9.22069">
        <ele>1804.4</ele>
        <time>2015-06-21T05:38:51Z</time>
      </trkpt>
      <trkpt lat="41.9466" lon="9.2207">
        <ele>1804.2</ele>
        <time>2015-06-21T05:38:53Z</time>
      </trkpt>
      <trkpt lat="41.94662" lon="9.2207">
        <ele>1804</ele>
        <time>2015-06-21T05:38:55Z</time>
      </trkpt>
      <trkpt lat="41.94666" lon="9.22076">
        <ele>1803.8</ele>
        <time>2015-06-21T05:39:00Z</time>
      </trkpt>
      <trkpt lat="41.94675" lon="9.22092">
        <ele>1802.4</ele>
        <time>2015-06-21T05:39:14Z</time>
      </trkpt>
      <trkpt lat="41.94679" lon="9.22103">
        <ele>1802.2</ele>
        <time>2015-06-21T05:39:23Z</time>
      </trkpt>
      <trkpt lat="41.9468" lon="9.22104">
        <ele>1802.4</ele>
        <time>2015-06-21T05:39:25Z</time>
      </trkpt>
      <trkpt lat="41.94682" lon="9.22106">
        <ele>1802.4</ele>
        <time>2015-06-21T05:39:27Z</time>
      </trkpt>
      <trkpt lat="41.94688" lon="9.22115">
        <ele>1802.6</ele>
        <time>2015-06-21T05:39:36Z</time>
      </trkpt>
      <trkpt lat="41.94692" lon="9.22118">
        <ele>1802.6</ele>
        <time>2015-06-21T05:39:41Z</time>
      </trkpt>
      <trkpt lat="41.94692" lon="9.2212">
        <ele>1802.6</ele>
        <time>2015-06-21T05:39:43Z</time>
      </trkpt>
      <trkpt lat="41.947" lon="9.22128">
        <ele>1803.6</ele>
        <time>2015-06-21T05:39:53Z</time>
      </trkpt>
      <trkpt lat="41.9471" lon="9.22137">
        <ele>1803.8</ele>
        <time>2015-06-21T05:40:06Z</time>
      </trkpt>
      <trkpt lat="41.94713" lon="9.22139">
        <ele>1803</ele>
        <time>2015-06-21T05:40:12Z</time>
      </trkpt>
      <trkpt lat="41.9472" lon="9.22141">
        <ele>1802.6</ele>
        <time>2015-06-21T05:40:19Z</time>
      </trkpt>
      <trkpt lat="41.94727" lon="9.22144">
        <ele>1801.8</ele>
        <time>2015-06-21T05:40:27Z</time>
      </trkpt>
      <trkpt lat="41.94727" lon="9.22144">
        <ele>1801.8</ele>
        <time>2015-06-21T05:40:28Z</time>
      </trkpt>
      <trkpt lat="41.94736" lon="9.22146">
        <ele>1800.8</ele>
        <time>2015-06-21T05:40:39Z</time>
      </trkpt>
      <trkpt lat="41.94745" lon="9.22148">
        <ele>1799.8</ele>
        <time>2015-06-21T05:40:57Z</time>
      </trkpt>
      <trkpt lat="41.94751" lon="9.22149">
        <ele>1798.8</ele>
        <time>2015-06-21T05:41:06Z</time>
      </trkpt>
      <trkpt lat="41.94756" lon="9.2215">
        <ele>1797.2</ele>
        <time>2015-06-21T05:41:15Z</time>
      </trkpt>
      <trkpt lat="41.94767" lon="9.22163">
        <ele>1795.8</ele>
        <time>2015-06-21T05:41:40Z</time>
      </trkpt>
      <trkpt lat="41.94771" lon="9.22168">
        <ele>1794.6</ele>
        <time>2015-06-21T05:41:51Z</time>
      </trkpt>
      <trkpt lat="41.94777" lon="9.2217">
        <ele>1793.6</ele>
        <time>2015-06-21T05:42:02Z</time>
      </trkpt>
      <trkpt lat="41.94782" lon="9.22174">
        <ele>1792.2</ele>
        <time>2015-06-21T05:42:17Z</time>
      </trkpt>
      <trkpt lat="41.94785" lon="9.22172">
        <ele>1791.8</ele>
        <time>2015-06-21T05:42:22Z</time>
      </trkpt>
      <trkpt lat="41.94789" lon="9.22175">
        <ele>1789.4</ele>
        <time>2015-06-21T05:42:44Z</time>
      </trkpt>
      <trkpt lat="41.94797" lon="9.22187">
        <ele>1788.2</ele>
        <time>2015-06-21T05:43:02Z</time>
      </trkpt>
      <trkpt lat="41.94801" lon="9.22192">
        <ele>1787.6</ele>
        <time>2015-06-21T05:43:10Z</time>
      </trkpt>
      <trkpt lat="41.9481" lon="9.22202">
        <ele>1785.8</ele>
        <time>2015-06-21T05:43:22Z</time>
      </trkpt>
      <trkpt lat="41.9481" lon="9.22205">
        <ele>1785.8</ele>
        <time>2015-06-21T05:43:25Z</time>
      </trkpt>
      <trkpt lat="41.94813" lon="9.22209">
        <ele>1785.4</ele>
        <time>2015-06-21T05:43:30Z</time>
      </trkpt>
      <trkpt lat="41.94816" lon="9.22209">
        <ele>1785.2</ele>
        <time>2015-06-21T05:43:32Z</time>
      </trkpt>
      <trkpt lat="41.94822" lon="9.22219">
        <ele>1784.8</ele>
        <time>2015-06-21T05:43:41Z</time>
      </trkpt>
      <trkpt lat="41.94824" lon="9.22221">
        <ele>1785</ele>
        <time>2015-06-21T05:43:44Z</time>
      </trkpt>
      <trkpt lat="41.94827" lon="9.22225">
        <ele>1785</ele>
        <time>2015-06-21T05:43:48Z</time>
      </trkpt>
      <trkpt lat="41.94828" lon="9.22226">
        <ele>1785</ele>
        <time>2015-06-21T05:43:50Z</time>
      </trkpt>
      <trkpt lat="41.94831" lon="9.22231">
        <ele>1785.4</ele>
        <time>2015-06-21T05:43:55Z</time>
      </trkpt>
      <trkpt lat="41.94832" lon="9.22232">
        <ele>1785.8</ele>
        <time>2015-06-21T05:43:56Z</time>
      </trkpt>
      <trkpt lat="41.94846" lon="9.2224">
        <ele>1786.6</ele>
        <time>2015-06-21T05:44:11Z</time>
      </trkpt>
      <trkpt lat="41.94848" lon="9.22239">
        <ele>1786.8</ele>
        <time>2015-06-21T05:44:13Z</time>
      </trkpt>
      <trkpt lat="41.94849" lon="9.22239">
        <ele>1786.8</ele>
        <time>2015-06-21T05:44:15Z</time>
      </trkpt>
      <trkpt lat="41.9486" lon="9.22238">
        <ele>1787.4</ele>
        <time>2015-06-21T05:44:28Z</time>
      </trkpt>
      <trkpt lat="41.94866" lon="9.22236">
        <ele>1788.2</ele>
        <time>2015-06-21T05:44:35Z</time>
      </trkpt>
      <trkpt lat="41.94877" lon="9.22236">
        <ele>1789.4</ele>
        <time>2015-06-21T05:44:51Z</time>
      </trkpt>
      <trkpt lat="41.94882" lon="9.22236">
        <ele>1790</ele>
        <time>2015-06-21T05:44:59Z</time>
      </trkpt>
      <trkpt lat="41.94889" lon="9.22234">
        <ele>1791.2</ele>
        <time>2015-06-21T05:45:13Z</time>
      </trkpt>
      <trkpt lat="41.94895" lon="9.22232">
        <ele>1791.8</ele>
        <time>2015-06-21T05:45:20Z</time>
      </trkpt>
      <trkpt lat="41.94906" lon="9.2223">
        <ele>1793</ele>
        <time>2015-06-21T05:45:34Z</time>
      </trkpt>
      <trkpt lat="41.94911" lon="9.22231">
        <ele>1793.8</ele>
        <time>2015-06-21T05:45:44Z</time>
      </trkpt>
      <trkpt lat="41.94914" lon="9.22229">
        <ele>1794.4</ele>
        <time>2015-06-21T05:45:50Z</time>
      </trkpt>
      <trkpt lat="41.94919" lon="9.22228">
        <ele>1795.6</ele>
        <time>2015-06-21T05:46:01Z</time>
      </trkpt>
      <trkpt lat="41.94925" lon="9.22228">
        <ele>1796.6</ele>
        <time>2015-06-21T05:46:11Z</time>
      </trkpt>
      <trkpt lat="41.94929" lon="9.22231">
        <ele>1797.6</ele>
        <time>2015-06-21T05:46:21Z</time>
      </trkpt>
      <trkpt lat="41.94931" lon="9.22231">
        <ele>1798.2</ele>
        <time>2015-06-21T05:46:28Z</time>
      </trkpt>
      <trkpt lat="41.94945" lon="9.22233">
        <ele>1799.6</ele>
        <time>2015-06-21T05:46:46Z</time>
      </trkpt>
      <trkpt lat="41.94959" lon="9.22238">
        <ele>1800.2</ele>
        <time>2015-06-21T05:47:02Z</time>
      </trkpt>
      <trkpt lat="41.94976" lon="9.22244">
        <ele>1801</ele>
        <time>2015-06-21T05:47:21Z</time>
      </trkpt>
      <trkpt lat="41.94977" lon="9.22243">
        <ele>1801</ele>
        <time>2015-06-21T05:47:23Z</time>
      </trkpt>
      <trkpt lat="41.95007" lon="9.2224">
        <ele>1800.2</ele>
        <time>2015-06-21T05:48:12Z</time>
      </trkpt>
      <trkpt lat="41.95008" lon="9.22237">
        <ele>1799.8</ele>
        <time>2015-06-21T05:48:16Z</time>
      </trkpt>
      <trkpt lat="41.95013" lon="9.22236">
        <ele>1799</ele>
        <time>2015-06-21T05:48:42Z</time>
      </trkpt>
      <trkpt lat="41.95019" lon="9.22241">
        <ele>1799</ele>
        <time>2015-06-21T05:48:49Z</time>
      </trkpt>
      <trkpt lat="41.95028" lon="9.22248">
        <ele>1797.8</ele>
        <time>2015-06-21T05:48:59Z</time>
      </trkpt>
      <trkpt lat="41.95035" lon="9.22248">
        <ele>1796.8</ele>
        <time>2015-06-21T05:49:07Z</time>
      </trkpt>
      <trkpt lat="41.95041" lon="9.22249">
        <ele>1795.4</ele>
        <time>2015-06-21T05:49:15Z</time>
      </trkpt>
      <trkpt lat="41.95045" lon="9.2225">
        <ele>1794.6</ele>
        <time>2015-06-21T05:49:21Z</time>
      </trkpt>
      <trkpt lat="41.95053" lon="9.22252">
        <ele>1793</ele>
        <time>2015-06-21T05:49:30Z</time>
      </trkpt>
      <trkpt lat="41.95057" lon="9.22253">
        <ele>1792.4</ele>
        <time>2015-06-21T05:49:36Z</time>
      </trkpt>
      <trkpt lat="41.95064" lon="9.22258">
        <ele>1791</ele>
        <time>2015-06-21T05:49:44Z</time>
      </trkpt>
      <trkpt lat="41.9507" lon="9.22263">
        <ele>1790</ele>
        <time>2015-06-21T05:49:52Z</time>
      </trkpt>
      <trkpt lat="41.95073" lon="9.22264">
        <ele>1789.8</ele>
        <time>2015-06-21T05:49:56Z</time>
      </trkpt>
      <trkpt lat="41.9508" lon="9.22267">
        <ele>1788.6</ele>
        <time>2015-06-21T05:50:04Z</time>
      </trkpt>
      <trkpt lat="41.95082" lon="9.22266">
        <ele>1788.2</ele>
        <time>2015-06-21T05:50:06Z</time>
      </trkpt>
      <trkpt lat="41.95084" lon="9.22267">
        <ele>1787.8</ele>
        <time>2015-06-21T05:50:08Z</time>
      </trkpt>
      <trkpt lat="41.9509" lon="9.22267">
        <ele>1787.2</ele>
        <time>2015-06-21T05:50:15Z</time>
      </trkpt>
      <trkpt lat="41.95095" lon="9.22265">
        <ele>1786.6</ele>
        <time>2015-06-21T05:50:20Z</time>
      </trkpt>
      <trkpt lat="41.95098" lon="9.22267">
        <ele>1786.2</ele>
        <time>2015-06-21T05:50:25Z</time>
      </trkpt>
      <trkpt lat="41.95102" lon="9.2227">
        <ele>1785.6</ele>
        <time>2015-06-21T05:50:31Z</time>
      </trkpt>
      <trkpt lat="41.95104" lon="9.22273">
        <ele>1784.8</ele>
        <time>2015-06-21T05:50:35Z</time>
      </trkpt>
      <trkpt lat="41.95108" lon="9.22278">
        <ele>1782.8</ele>
        <time>2015-06-21T05:50:43Z</time>
      </trkpt>
      <trkpt lat="41.9511" lon="9.22279">
        <ele>1782.2</ele>
        <time>2015-06-21T05:50:47Z</time>
      </trkpt>
      <trkpt lat="41.95111" lon="9.22281">
        <ele>1782</ele>
        <time>2015-06-21T05:50:49Z</time>
      </trkpt>
      <trkpt lat="41.95112" lon="9.22287">
        <ele>1781</ele>
        <time>2015-06-21T05:50:55Z</time>
      </trkpt>
      <trkpt lat="41.95115" lon="9.22293">
        <ele>1779.6</ele>
        <time>2015-06-21T05:51:02Z</time>
      </trkpt>
      <trkpt lat="41.95116" lon="9.22297">
        <ele>1778.6</ele>
        <time>2015-06-21T05:51:08Z</time>
      </trkpt>
      <trkpt lat="41.95119" lon="9.223">
        <ele>1777.6</ele>
        <time>2015-06-21T05:51:14Z</time>
      </trkpt>
      <trkpt lat="41.95123" lon="9.22303">
        <ele>1775.8</ele>
        <time>2015-06-21T05:51:24Z</time>
      </trkpt>
      <trkpt lat="41.95126" lon="9.22307">
        <ele>1774.8</ele>
        <time>2015-06-21T05:51:33Z</time>
      </trkpt>
      <trkpt lat="41.95128" lon="9.2231">
        <ele>1773.8</ele>
        <time>2015-06-21T05:51:41Z</time>
      </trkpt>
      <trkpt lat="41.95131" lon="9.22313">
        <ele>1773</ele>
        <time>2015-06-21T05:51:49Z</time>
      </trkpt>
      <trkpt lat="41.95134" lon="9.22314">
        <ele>1771.8</ele>
        <time>2015-06-21T05:51:56Z</time>
      </trkpt>
      <trkpt lat="41.95138" lon="9.22315">
        <ele>1770.4</ele>
        <time>2015-06-21T05:52:05Z</time>
      </trkpt>
      <trkpt lat="41.95141" lon="9.22319">
        <ele>1769.6</ele>
        <time>2015-06-21T05:52:13Z</time>
      </trkpt>
      <trkpt lat="41.95143" lon="9.22316">
        <ele>1768</ele>
        <time>2015-06-21T05:52:27Z</time>
      </trkpt>
      <trkpt lat="41.95145" lon="9.22315">
        <ele>1767</ele>
        <time>2015-06-21T05:52:35Z</time>
      </trkpt>
      <trkpt lat="41.95147" lon="9.22309">
        <ele>1765.8</ele>
        <time>2015-06-21T05:52:43Z</time>
      </trkpt>
      <trkpt lat="41.95148" lon="9.22303">
        <ele>1764.6</ele>
        <time>2015-06-21T05:52:51Z</time>
      </trkpt>
      <trkpt lat="41.95149" lon="9.223">
        <ele>1763.6</ele>
        <time>2015-06-21T05:52:58Z</time>
      </trkpt>
      <trkpt lat="41.95151" lon="9.22301">
        <ele>1762.6</ele>
        <time>2015-06-21T05:53:05Z</time>
      </trkpt>
      <trkpt lat="41.95154" lon="9.22301">
        <ele>1761.2</ele>
        <time>2015-06-21T05:53:13Z</time>
      </trkpt>
      <trkpt lat="41.95157" lon="9.22304">
        <ele>1760</ele>
        <time>2015-06-21T05:53:20Z</time>
      </trkpt>
      <trkpt lat="41.95158" lon="9.22303">
        <ele>1758.8</ele>
        <time>2015-06-21T05:53:30Z</time>
      </trkpt>
      <trkpt lat="41.95157" lon="9.22296">
        <ele>1757.6</ele>
        <time>2015-06-21T05:53:41Z</time>
      </trkpt>
      <trkpt lat="41.95158" lon="9.22289">
        <ele>1756.4</ele>
        <time>2015-06-21T05:53:51Z</time>
      </trkpt>
      <trkpt lat="41.95159" lon="9.22284">
        <ele>1755.4</ele>
        <time>2015-06-21T05:53:59Z</time>
      </trkpt>
      <trkpt lat="41.95159" lon="9.22278">
        <ele>1753.8</ele>
        <time>2015-06-21T05:54:10Z</time>
      </trkpt>
      <trkpt lat="41.95162" lon="9.22279">
        <ele>1753</ele>
        <time>2015-06-21T05:54:18Z</time>
      </trkpt>
      <trkpt lat="41.95166" lon="9.22284">
        <ele>1751.4</ele>
        <time>2015-06-21T05:54:27Z</time>
      </trkpt>
      <trkpt lat="41.9517" lon="9.22288">
        <ele>1750.6</ele>
        <time>2015-06-21T05:54:36Z</time>
      </trkpt>
      <trkpt lat="41.95175" lon="9.22298">
        <ele>1749</ele>
        <time>2015-06-21T05:54:49Z</time>
      </trkpt>
      <trkpt lat="41.95178" lon="9.22303">
        <ele>1748</ele>
        <time>2015-06-21T05:54:59Z</time>
      </trkpt>
      <trkpt lat="41.95183" lon="9.22308">
        <ele>1746.8</ele>
        <time>2015-06-21T05:55:08Z</time>
      </trkpt>
      <trkpt lat="41.95184" lon="9.22306">
        <ele>1745.6</ele>
        <time>2015-06-21T05:55:21Z</time>
      </trkpt>
      <trkpt lat="41.95182" lon="9.22301">
        <ele>1745</ele>
        <time>2015-06-21T05:55:27Z</time>
      </trkpt>
      <trkpt lat="41.95185" lon="9.22299">
        <ele>1743.2</ele>
        <time>2015-06-21T05:55:36Z</time>
      </trkpt>
      <trkpt lat="41.95188" lon="9.22302">
        <ele>1742.4</ele>
        <time>2015-06-21T05:55:44Z</time>
      </trkpt>
      <trkpt lat="41.95193" lon="9.22304">
        <ele>1741</ele>
        <time>2015-06-21T05:55:55Z</time>
      </trkpt>
      <trkpt lat="41.95195" lon="9.22302">
        <ele>1739.6</ele>
        <time>2015-06-21T05:56:04Z</time>
      </trkpt>
      <trkpt lat="41.95195" lon="9.22295">
        <ele>1738.6</ele>
        <time>2015-06-21T05:56:13Z</time>
      </trkpt>
      <trkpt lat="41.95194" lon="9.22292">
        <ele>1737.4</ele>
        <time>2015-06-21T05:56:20Z</time>
      </trkpt>
      <trkpt lat="41.95193" lon="9.22286">
        <ele>1736</ele>
        <time>2015-06-21T05:56:35Z</time>
      </trkpt>
      <trkpt lat="41.95192" lon="9.2228">
        <ele>1735</ele>
        <time>2015-06-21T05:56:45Z</time>
      </trkpt>
      <trkpt lat="41.95191" lon="9.22274">
        <ele>1733.8</ele>
        <time>2015-06-21T05:56:56Z</time>
      </trkpt>
      <trkpt lat="41.95192" lon="9.2227">
        <ele>1732.2</ele>
        <time>2015-06-21T05:57:08Z</time>
      </trkpt>
      <trkpt lat="41.95192" lon="9.22266">
        <ele>1731.8</ele>
        <time>2015-06-21T05:57:13Z</time>
      </trkpt>
      <trkpt lat="41.95193" lon="9.22261">
        <ele>1730.2</ele>
        <time>2015-06-21T05:57:21Z</time>
      </trkpt>
      <trkpt lat="41.95194" lon="9.22256">
        <ele>1729</ele>
        <time>2015-06-21T05:57:31Z</time>
      </trkpt>
      <trkpt lat="41.95197" lon="9.22256">
        <ele>1728.4</ele>
        <time>2015-06-21T05:57:36Z</time>
      </trkpt>
      <trkpt lat="41.95201" lon="9.22263">
        <ele>1726.6</ele>
        <time>2015-06-21T05:57:46Z</time>
      </trkpt>
      <trkpt lat="41.95204" lon="9.2227">
        <ele>1725.4</ele>
        <time>2015-06-21T05:57:53Z</time>
      </trkpt>
      <trkpt lat="41.95212" lon="9.22283">
        <ele>1724</ele>
        <time>2015-06-21T05:58:15Z</time>
      </trkpt>
      <trkpt lat="41.95215" lon="9.22286">
        <ele>1723.2</ele>
        <time>2015-06-21T05:58:22Z</time>
      </trkpt>
      <trkpt lat="41.95216" lon="9.22289">
        <ele>1722</ele>
        <time>2015-06-21T05:58:28Z</time>
      </trkpt>
      <trkpt lat="41.9522" lon="9.22293">
        <ele>1720.6</ele>
        <time>2015-06-21T05:58:38Z</time>
      </trkpt>
      <trkpt lat="41.95223" lon="9.22297">
        <ele>1719.8</ele>
        <time>2015-06-21T05:58:46Z</time>
      </trkpt>
      <trkpt lat="41.95227" lon="9.223">
        <ele>1718.6</ele>
        <time>2015-06-21T05:58:54Z</time>
      </trkpt>
      <trkpt lat="41.95231" lon="9.22307">
        <ele>1717.2</ele>
        <time>2015-06-21T05:59:05Z</time>
      </trkpt>
      <trkpt lat="41.95234" lon="9.22311">
        <ele>1716.4</ele>
        <time>2015-06-21T05:59:12Z</time>
      </trkpt>
      <trkpt lat="41.95236" lon="9.22315">
        <ele>1715.2</ele>
        <time>2015-06-21T05:59:20Z</time>
      </trkpt>
      <trkpt lat="41.95238" lon="9.22314">
        <ele>1714</ele>
        <time>2015-06-21T05:59:27Z</time>
      </trkpt>
      <trkpt lat="41.9524" lon="9.2231">
        <ele>1712.8</ele>
        <time>2015-06-21T05:59:36Z</time>
      </trkpt>
      <trkpt lat="41.95241" lon="9.22306">
        <ele>1711.8</ele>
        <time>2015-06-21T05:59:45Z</time>
      </trkpt>
      <trkpt lat="41.95243" lon="9.22306">
        <ele>1710.8</ele>
        <time>2015-06-21T05:59:52Z</time>
      </trkpt>
      <trkpt lat="41.95245" lon="9.22306">
        <ele>1709.4</ele>
        <time>2015-06-21T05:59:59Z</time>
      </trkpt>
      <trkpt lat="41.95247" lon="9.22308">
        <ele>1708.4</ele>
        <time>2015-06-21T06:00:05Z</time>
      </trkpt>
      <trkpt lat="41.9525" lon="9.22311">
        <ele>1707.2</ele>
        <time>2015-06-21T06:00:14Z</time>
      </trkpt>
      <trkpt lat="41.9525" lon="9.22316">
        <ele>1706.4</ele>
        <time>2015-06-21T06:00:20Z</time>
      </trkpt>
      <trkpt lat="41.95252" lon="9.22321">
        <ele>1704.6</ele>
        <time>2015-06-21T06:00:34Z</time>
      </trkpt>
      <trkpt lat="41.95252" lon="9.22329">
        <ele>1703.4</ele>
        <time>2015-06-21T06:01:20Z</time>
      </trkpt>
      <trkpt lat="41.95255" lon="9.22329">
        <ele>1702.4</ele>
        <time>2015-06-21T06:01:28Z</time>
      </trkpt>
      <trkpt lat="41.95257" lon="9.22328">
        <ele>1702</ele>
        <time>2015-06-21T06:01:32Z</time>
      </trkpt>
      <trkpt lat="41.95258" lon="9.22327">
        <ele>1701.8</ele>
        <time>2015-06-21T06:01:33Z</time>
      </trkpt>
      <trkpt lat="41.95262" lon="9.22327">
        <ele>1700.4</ele>
        <time>2015-06-21T06:01:40Z</time>
      </trkpt>
      <trkpt lat="41.95267" lon="9.22324">
        <ele>1698.8</ele>
        <time>2015-06-21T06:01:49Z</time>
      </trkpt>
      <trkpt lat="41.95268" lon="9.22326">
        <ele>1697.6</ele>
        <time>2015-06-21T06:02:00Z</time>
      </trkpt>
      <trkpt lat="41.95265" lon="9.22329">
        <ele>1697</ele>
        <time>2015-06-21T06:02:07Z</time>
      </trkpt>
      <trkpt lat="41.95263" lon="9.22334">
        <ele>1695.6</ele>
        <time>2015-06-21T06:02:16Z</time>
      </trkpt>
      <trkpt lat="41.95266" lon="9.22335">
        <ele>1694.6</ele>
        <time>2015-06-21T06:02:23Z</time>
      </trkpt>
      <trkpt lat="41.95269" lon="9.22334">
        <ele>1694</ele>
        <time>2015-06-21T06:02:28Z</time>
      </trkpt>
      <trkpt lat="41.95273" lon="9.22334">
        <ele>1692.6</ele>
        <time>2015-06-21T06:02:34Z</time>
      </trkpt>
      <trkpt lat="41.95278" lon="9.22332">
        <ele>1691</ele>
        <time>2015-06-21T06:02:42Z</time>
      </trkpt>
      <trkpt lat="41.95281" lon="9.22332">
        <ele>1690</ele>
        <time>2015-06-21T06:02:50Z</time>
      </trkpt>
      <trkpt lat="41.95286" lon="9.22331">
        <ele>1688.4</ele>
        <time>2015-06-21T06:03:04Z</time>
      </trkpt>
      <trkpt lat="41.95291" lon="9.22331">
        <ele>1687.2</ele>
        <time>2015-06-21T06:03:14Z</time>
      </trkpt>
      <trkpt lat="41.95295" lon="9.22333">
        <ele>1686.8</ele>
        <time>2015-06-21T06:03:21Z</time>
      </trkpt>
      <trkpt lat="41.95298" lon="9.22334">
        <ele>1684.8</ele>
        <time>2015-06-21T06:03:30Z</time>
      </trkpt>
      <trkpt lat="41.95301" lon="9.22335">
        <ele>1684.6</ele>
        <time>2015-06-21T06:03:35Z</time>
      </trkpt>
      <trkpt lat="41.95303" lon="9.22337">
        <ele>1683.4</ele>
        <time>2015-06-21T06:03:40Z</time>
      </trkpt>
      <trkpt lat="41.95306" lon="9.2234">
        <ele>1682.2</ele>
        <time>2015-06-21T06:03:46Z</time>
      </trkpt>
      <trkpt lat="41.95311" lon="9.22339">
        <ele>1681</ele>
        <time>2015-06-21T06:03:52Z</time>
      </trkpt>
      <trkpt lat="41.95316" lon="9.22341">
        <ele>1679.6</ele>
        <time>2015-06-21T06:04:00Z</time>
      </trkpt>
      <trkpt lat="41.95319" lon="9.2234">
        <ele>1678.6</ele>
        <time>2015-06-21T06:04:06Z</time>
      </trkpt>
      <trkpt lat="41.95322" lon="9.2234">
        <ele>1678</ele>
        <time>2015-06-21T06:04:11Z</time>
      </trkpt>
      <trkpt lat="41.95327" lon="9.22342">
        <ele>1676.4</ele>
        <time>2015-06-21T06:04:17Z</time>
      </trkpt>
      <trkpt lat="41.95332" lon="9.22345">
        <ele>1675.4</ele>
        <time>2015-06-21T06:04:24Z</time>
      </trkpt>
      <trkpt lat="41.95337" lon="9.22348">
        <ele>1674</ele>
        <time>2015-06-21T06:04:31Z</time>
      </trkpt>
      <trkpt lat="41.95338" lon="9.22348">
        <ele>1673.8</ele>
        <time>2015-06-21T06:04:32Z</time>
      </trkpt>
      <trkpt lat="41.95345" lon="9.22347">
        <ele>1672.8</ele>
        <time>2015-06-21T06:04:43Z</time>
      </trkpt>
      <trkpt lat="41.9535" lon="9.22347">
        <ele>1671.4</ele>
        <time>2015-06-21T06:04:57Z</time>
      </trkpt>
      <trkpt lat="41.95352" lon="9.22349">
        <ele>1670.6</ele>
        <time>2015-06-21T06:05:06Z</time>
      </trkpt>
      <trkpt lat="41.95355" lon="9.22351">
        <ele>1669.2</ele>
        <time>2015-06-21T06:05:13Z</time>
      </trkpt>
      <trkpt lat="41.95358" lon="9.22354">
        <ele>1668.2</ele>
        <time>2015-06-21T06:05:21Z</time>
      </trkpt>
      <trkpt lat="41.95361" lon="9.22355">
        <ele>1667.2</ele>
        <time>2015-06-21T06:05:27Z</time>
      </trkpt>
      <trkpt lat="41.95364" lon="9.22358">
        <ele>1665.8</ele>
        <time>2015-06-21T06:05:34Z</time>
      </trkpt>
      <trkpt lat="41.95367" lon="9.22363">
        <ele>1664.8</ele>
        <time>2015-06-21T06:05:41Z</time>
      </trkpt>
      <trkpt lat="41.95372" lon="9.22367">
        <ele>1663.2</ele>
        <time>2015-06-21T06:05:50Z</time>
      </trkpt>
      <trkpt lat="41.95377" lon="9.22369">
        <ele>1662.4</ele>
        <time>2015-06-21T06:05:58Z</time>
      </trkpt>
      <trkpt lat="41.9538" lon="9.22372">
        <ele>1661.4</ele>
        <time>2015-06-21T06:06:04Z</time>
      </trkpt>
      <trkpt lat="41.95383" lon="9.22375">
        <ele>1660</ele>
        <time>2015-06-21T06:06:13Z</time>
      </trkpt>
      <trkpt lat="41.95386" lon="9.22378">
        <ele>1659.2</ele>
        <time>2015-06-21T06:06:19Z</time>
      </trkpt>
      <trkpt lat="41.95387" lon="9.2238">
        <ele>1658.2</ele>
        <time>2015-06-21T06:06:25Z</time>
      </trkpt>
      <trkpt lat="41.95383" lon="9.22382">
        <ele>1656.6</ele>
        <time>2015-06-21T06:06:33Z</time>
      </trkpt>
      <trkpt lat="41.95378" lon="9.22381">
        <ele>1655.6</ele>
        <time>2015-06-21T06:06:40Z</time>
      </trkpt>
      <trkpt lat="41.95373" lon="9.22383">
        <ele>1654.4</ele>
        <time>2015-06-21T06:06:48Z</time>
      </trkpt>
      <trkpt lat="41.95369" lon="9.22383">
        <ele>1654</ele>
        <time>2015-06-21T06:06:53Z</time>
      </trkpt>
      <trkpt lat="41.95363" lon="9.22384">
        <ele>1652.4</ele>
        <time>2015-06-21T06:07:00Z</time>
      </trkpt>
      <trkpt lat="41.95357" lon="9.22386">
        <ele>1651.4</ele>
        <time>2015-06-21T06:07:08Z</time>
      </trkpt>
      <trkpt lat="41.9535" lon="9.22389">
        <ele>1649.8</ele>
        <time>2015-06-21T06:07:19Z</time>
      </trkpt>
      <trkpt lat="41.95345" lon="9.22392">
        <ele>1649</ele>
        <time>2015-06-21T06:07:27Z</time>
      </trkpt>
      <trkpt lat="41.95341" lon="9.22396">
        <ele>1647.6</ele>
        <time>2015-06-21T06:07:36Z</time>
      </trkpt>
      <trkpt lat="41.95339" lon="9.22397">
        <ele>1647</ele>
        <time>2015-06-21T06:07:42Z</time>
      </trkpt>
      <trkpt lat="41.95336" lon="9.22404">
        <ele>1645.4</ele>
        <time>2015-06-21T06:07:50Z</time>
      </trkpt>
      <trkpt lat="41.95338" lon="9.22405">
        <ele>1644.8</ele>
        <time>2015-06-21T06:07:54Z</time>
      </trkpt>
      <trkpt lat="41.95339" lon="9.22406">
        <ele>1644.8</ele>
        <time>2015-06-21T06:07:55Z</time>
      </trkpt>
      <trkpt lat="41.95345" lon="9.22404">
        <ele>1643.4</ele>
        <time>2015-06-21T06:08:03Z</time>
      </trkpt>
      <trkpt lat="41.95351" lon="9.22403">
        <ele>1642.2</ele>
        <time>2015-06-21T06:08:12Z</time>
      </trkpt>
      <trkpt lat="41.95355" lon="9.22405">
        <ele>1641.2</ele>
        <time>2015-06-21T06:08:20Z</time>
      </trkpt>
      <trkpt lat="41.95358" lon="9.22406">
        <ele>1640.2</ele>
        <time>2015-06-21T06:08:27Z</time>
      </trkpt>
      <trkpt lat="41.95363" lon="9.22409">
        <ele>1638.6</ele>
        <time>2015-06-21T06:08:43Z</time>
      </trkpt>
      <trkpt lat="41.95366" lon="9.22412">
        <ele>1638</ele>
        <time>2015-06-21T06:08:50Z</time>
      </trkpt>
      <trkpt lat="41.95369" lon="9.22413">
        <ele>1636.8</ele>
        <time>2015-06-21T06:08:58Z</time>
      </trkpt>
      <trkpt lat="41.95372" lon="9.22416">
        <ele>1635.8</ele>
        <time>2015-06-21T06:09:05Z</time>
      </trkpt>
      <trkpt lat="41.95372" lon="9.2242">
        <ele>1634.6</ele>
        <time>2015-06-21T06:09:12Z</time>
      </trkpt>
      <trkpt lat="41.9537" lon="9.2242">
        <ele>1633.8</ele>
        <time>2015-06-21T06:09:17Z</time>
      </trkpt>
      <trkpt lat="41.95365" lon="9.22422">
        <ele>1632.4</ele>
        <time>2015-06-21T06:09:22Z</time>
      </trkpt>
      <trkpt lat="41.95362" lon="9.22423">
        <ele>1632.2</ele>
        <time>2015-06-21T06:09:25Z</time>
      </trkpt>
      <trkpt lat="41.95351" lon="9.22426">
        <ele>1630.6</ele>
        <time>2015-06-21T06:09:35Z</time>
      </trkpt>
      <trkpt lat="41.95343" lon="9.22427">
        <ele>1629.6</ele>
        <time>2015-06-21T06:09:47Z</time>
      </trkpt>
      <trkpt lat="41.95345" lon="9.22429">
        <ele>1628.6</ele>
        <time>2015-06-21T06:09:55Z</time>
      </trkpt>
      <trkpt lat="41.95348" lon="9.2243">
        <ele>1627.6</ele>
        <time>2015-06-21T06:10:02Z</time>
      </trkpt>
      <trkpt lat="41.95352" lon="9.22432">
        <ele>1626.4</ele>
        <time>2015-06-21T06:10:10Z</time>
      </trkpt>
      <trkpt lat="41.95357" lon="9.22433">
        <ele>1625.4</ele>
        <time>2015-06-21T06:10:17Z</time>
      </trkpt>
      <trkpt lat="41.95361" lon="9.22436">
        <ele>1624.4</ele>
        <time>2015-06-21T06:10:24Z</time>
      </trkpt>
      <trkpt lat="41.95363" lon="9.22439">
        <ele>1623.4</ele>
        <time>2015-06-21T06:10:29Z</time>
      </trkpt>
      <trkpt lat="41.95364" lon="9.2244">
        <ele>1623.2</ele>
        <time>2015-06-21T06:10:32Z</time>
      </trkpt>
      <trkpt lat="41.95366" lon="9.22442">
        <ele>1622</ele>
        <time>2015-06-21T06:10:40Z</time>
      </trkpt>
      <trkpt lat="41.95362" lon="9.22444">
        <ele>1621</ele>
        <time>2015-06-21T06:10:47Z</time>
      </trkpt>
      <trkpt lat="41.95355" lon="9.22444">
        <ele>1619.8</ele>
        <time>2015-06-21T06:10:56Z</time>
      </trkpt>
      <trkpt lat="41.9535" lon="9.22446">
        <ele>1618.6</ele>
        <time>2015-06-21T06:11:03Z</time>
      </trkpt>
      <trkpt lat="41.9534" lon="9.22447">
        <ele>1617.4</ele>
        <time>2015-06-21T06:11:14Z</time>
      </trkpt>
      <trkpt lat="41.95339" lon="9.22449">
        <ele>1617.2</ele>
        <time>2015-06-21T06:11:15Z</time>
      </trkpt>
      <trkpt lat="41.95343" lon="9.22451">
        <ele>1616.4</ele>
        <time>2015-06-21T06:11:23Z</time>
      </trkpt>
      <trkpt lat="41.95347" lon="9.22453">
        <ele>1615.2</ele>
        <time>2015-06-21T06:11:31Z</time>
      </trkpt>
      <trkpt lat="41.95351" lon="9.22455">
        <ele>1614</ele>
        <time>2015-06-21T06:11:39Z</time>
      </trkpt>
      <trkpt lat="41.95355" lon="9.22458">
        <ele>1613.2</ele>
        <time>2015-06-21T06:11:46Z</time>
      </trkpt>
      <trkpt lat="41.95357" lon="9.2246">
        <ele>1612.4</ele>
        <time>2015-06-21T06:11:51Z</time>
      </trkpt>
      <trkpt lat="41.95357" lon="9.22463">
        <ele>1610.8</ele>
        <time>2015-06-21T06:11:58Z</time>
      </trkpt>
      <trkpt lat="41.95354" lon="9.22463">
        <ele>1610</ele>
        <time>2015-06-21T06:12:04Z</time>
      </trkpt>
      <trkpt lat="41.95352" lon="9.22462">
        <ele>1608.8</ele>
        <time>2015-06-21T06:12:11Z</time>
      </trkpt>
      <trkpt lat="41.9535" lon="9.22462">
        <ele>1607.6</ele>
        <time>2015-06-21T06:12:19Z</time>
      </trkpt>
      <trkpt lat="41.95347" lon="9.22465">
        <ele>1606.8</ele>
        <time>2015-06-21T06:12:25Z</time>
      </trkpt>
      <trkpt lat="41.95348" lon="9.22469">
        <ele>1605.6</ele>
        <time>2015-06-21T06:12:32Z</time>
      </trkpt>
      <trkpt lat="41.95349" lon="9.22472">
        <ele>1604.4</ele>
        <time>2015-06-21T06:12:38Z</time>
      </trkpt>
      <trkpt lat="41.9535" lon="9.22477">
        <ele>1603.2</ele>
        <time>2015-06-21T06:12:45Z</time>
      </trkpt>
      <trkpt lat="41.9535" lon="9.22479">
        <ele>1602</ele>
        <time>2015-06-21T06:12:51Z</time>
      </trkpt>
      <trkpt lat="41.95355" lon="9.22481">
        <ele>1600.8</ele>
        <time>2015-06-21T06:12:57Z</time>
      </trkpt>
      <trkpt lat="41.95357" lon="9.22486">
        <ele>1599.8</ele>
        <time>2015-06-21T06:13:05Z</time>
      </trkpt>
      <trkpt lat="41.95359" lon="9.2249">
        <ele>1599</ele>
        <time>2015-06-21T06:13:10Z</time>
      </trkpt>
      <trkpt lat="41.95362" lon="9.22494">
        <ele>1597.6</ele>
        <time>2015-06-21T06:13:17Z</time>
      </trkpt>
      <trkpt lat="41.95363" lon="9.22498">
        <ele>1596.4</ele>
        <time>2015-06-21T06:13:24Z</time>
      </trkpt>
      <trkpt lat="41.95365" lon="9.22501">
        <ele>1594.8</ele>
        <time>2015-06-21T06:13:35Z</time>
      </trkpt>
      <trkpt lat="41.95367" lon="9.22504">
        <ele>1594</ele>
        <time>2015-06-21T06:13:44Z</time>
      </trkpt>
      <trkpt lat="41.9537" lon="9.22508">
        <ele>1592.8</ele>
        <time>2015-06-21T06:13:52Z</time>
      </trkpt>
      <trkpt lat="41.95373" lon="9.22509">
        <ele>1591.4</ele>
        <time>2015-06-21T06:14:00Z</time>
      </trkpt>
      <trkpt lat="41.95376" lon="9.2251">
        <ele>1590.2</ele>
        <time>2015-06-21T06:14:10Z</time>
      </trkpt>
      <trkpt lat="41.95377" lon="9.22511">
        <ele>1589.4</ele>
        <time>2015-06-21T06:14:18Z</time>
      </trkpt>
      <trkpt lat="41.95378" lon="9.22514">
        <ele>1588.2</ele>
        <time>2015-06-21T06:14:25Z</time>
      </trkpt>
      <trkpt lat="41.9538" lon="9.22516">
        <ele>1587.2</ele>
        <time>2015-06-21T06:14:32Z</time>
      </trkpt>
      <trkpt lat="41.95383" lon="9.2252">
        <ele>1586.2</ele>
        <time>2015-06-21T06:14:38Z</time>
      </trkpt>
      <trkpt lat="41.95378" lon="9.22522">
        <ele>1584.6</ele>
        <time>2015-06-21T06:14:48Z</time>
      </trkpt>
      <trkpt lat="41.95374" lon="9.22524">
        <ele>1583.6</ele>
        <time>2015-06-21T06:14:56Z</time>
      </trkpt>
      <trkpt lat="41.95374" lon="9.2253">
        <ele>1582.4</ele>
        <time>2015-06-21T06:15:06Z</time>
      </trkpt>
      <trkpt lat="41.95376" lon="9.22532">
        <ele>1581.4</ele>
        <time>2015-06-21T06:15:13Z</time>
      </trkpt>
      <trkpt lat="41.95377" lon="9.22532">
        <ele>1579.6</ele>
        <time>2015-06-21T06:15:32Z</time>
      </trkpt>
      <trkpt lat="41.95379" lon="9.22532">
        <ele>1579.4</ele>
        <time>2015-06-21T06:15:38Z</time>
      </trkpt>
      <trkpt lat="41.95381" lon="9.22532">
        <ele>1578</ele>
        <time>2015-06-21T06:15:45Z</time>
      </trkpt>
      <trkpt lat="41.95383" lon="9.22533">
        <ele>1577.2</ele>
        <time>2015-06-21T06:15:49Z</time>
      </trkpt>
      <trkpt lat="41.95386" lon="9.22532">
        <ele>1576</ele>
        <time>2015-06-21T06:15:54Z</time>
      </trkpt>
      <trkpt lat="41.9539" lon="9.2253">
        <ele>1574.8</ele>
        <time>2015-06-21T06:15:59Z</time>
      </trkpt>
      <trkpt lat="41.95395" lon="9.22532">
        <ele>1573.4</ele>
        <time>2015-06-21T06:16:05Z</time>
      </trkpt>
      <trkpt lat="41.954" lon="9.22535">
        <ele>1572.2</ele>
        <time>2015-06-21T06:16:13Z</time>
      </trkpt>
      <trkpt lat="41.95403" lon="9.22537">
        <ele>1570.8</ele>
        <time>2015-06-21T06:16:21Z</time>
      </trkpt>
      <trkpt lat="41.95405" lon="9.22538">
        <ele>1570</ele>
        <time>2015-06-21T06:16:27Z</time>
      </trkpt>
      <trkpt lat="41.95408" lon="9.22538">
        <ele>1568.8</ele>
        <time>2015-06-21T06:16:35Z</time>
      </trkpt>
      <trkpt lat="41.9541" lon="9.22541">
        <ele>1567.6</ele>
        <time>2015-06-21T06:16:42Z</time>
      </trkpt>
      <trkpt lat="41.95413" lon="9.22541">
        <ele>1566.4</ele>
        <time>2015-06-21T06:16:50Z</time>
      </trkpt>
      <trkpt lat="41.95416" lon="9.22543">
        <ele>1565.8</ele>
        <time>2015-06-21T06:16:55Z</time>
      </trkpt>
      <trkpt lat="41.95421" lon="9.22546">
        <ele>1564</ele>
        <time>2015-06-21T06:17:04Z</time>
      </trkpt>
      <trkpt lat="41.95428" lon="9.22548">
        <ele>1562.8</ele>
        <time>2015-06-21T06:17:16Z</time>
      </trkpt>
      <trkpt lat="41.95434" lon="9.22551">
        <ele>1561.6</ele>
        <time>2015-06-21T06:17:24Z</time>
      </trkpt>
      <trkpt lat="41.95438" lon="9.22553">
        <ele>1560.8</ele>
        <time>2015-06-21T06:17:30Z</time>
      </trkpt>
      <trkpt lat="41.95437" lon="9.22557">
        <ele>1559.6</ele>
        <time>2015-06-21T06:17:37Z</time>
      </trkpt>
      <trkpt lat="41.95435" lon="9.22557">
        <ele>1558.6</ele>
        <time>2015-06-21T06:17:44Z</time>
      </trkpt>
      <trkpt lat="41.95433" lon="9.22559">
        <ele>1557.6</ele>
        <time>2015-06-21T06:17:51Z</time>
      </trkpt>
      <trkpt lat="41.9543" lon="9.22561">
        <ele>1556.2</ele>
        <time>2015-06-21T06:17:58Z</time>
      </trkpt>
      <trkpt lat="41.95426" lon="9.22564">
        <ele>1555.2</ele>
        <time>2015-06-21T06:18:05Z</time>
      </trkpt>
      <trkpt lat="41.95428" lon="9.22568">
        <ele>1553.8</ele>
        <time>2015-06-21T06:18:14Z</time>
      </trkpt>
      <trkpt lat="41.95431" lon="9.22572">
        <ele>1552.8</ele>
        <time>2015-06-21T06:18:22Z</time>
      </trkpt>
      <trkpt lat="41.95438" lon="9.22576">
        <ele>1551.4</ele>
        <time>2015-06-21T06:18:32Z</time>
      </trkpt>
      <trkpt lat="41.95446" lon="9.22574">
        <ele>1550.2</ele>
        <time>2015-06-21T06:20:00Z</time>
      </trkpt>
      <trkpt lat="41.95446" lon="9.22578">
        <ele>1549.8</ele>
        <time>2015-06-21T06:27:40Z</time>
      </trkpt>
      <trkpt lat="41.9545" lon="9.22583">
        <ele>1549</ele>
        <time>2015-06-21T06:28:51Z</time>
      </trkpt>
      <trkpt lat="41.95452" lon="9.22583">
        <ele>1548.2</ele>
        <time>2015-06-21T06:28:58Z</time>
      </trkpt>
      <trkpt lat="41.95455" lon="9.22579">
        <ele>1547.2</ele>
        <time>2015-06-21T06:29:04Z</time>
      </trkpt>
      <trkpt lat="41.9546" lon="9.22578">
        <ele>1545.6</ele>
        <time>2015-06-21T06:29:14Z</time>
      </trkpt>
      <trkpt lat="41.95462" lon="9.22578">
        <ele>1545</ele>
        <time>2015-06-21T06:29:19Z</time>
      </trkpt>
      <trkpt lat="41.95464" lon="9.22579">
        <ele>1544</ele>
        <time>2015-06-21T06:29:25Z</time>
      </trkpt>
      <trkpt lat="41.95467" lon="9.22582">
        <ele>1543.2</ele>
        <time>2015-06-21T06:29:29Z</time>
      </trkpt>
      <trkpt lat="41.9547" lon="9.22592">
        <ele>1541.4</ele>
        <time>2015-06-21T06:29:39Z</time>
      </trkpt>
      <trkpt lat="41.95474" lon="9.22598">
        <ele>1540.6</ele>
        <time>2015-06-21T06:29:46Z</time>
      </trkpt>
      <trkpt lat="41.95482" lon="9.22604">
        <ele>1540</ele>
        <time>2015-06-21T06:29:54Z</time>
      </trkpt>
      <trkpt lat="41.95489" lon="9.22607">
        <ele>1539.6</ele>
        <time>2015-06-21T06:30:00Z</time>
      </trkpt>
      <trkpt lat="41.95503" lon="9.22606">
        <ele>1539.6</ele>
        <time>2015-06-21T06:30:22Z</time>
      </trkpt>
      <trkpt lat="41.95514" lon="9.22601">
        <ele>1540.4</ele>
        <time>2015-06-21T06:30:38Z</time>
      </trkpt>
      <trkpt lat="41.95519" lon="9.22589">
        <ele>1539</ele>
        <time>2015-06-21T06:30:52Z</time>
      </trkpt>
      <trkpt lat="41.95526" lon="9.22583">
        <ele>1538.2</ele>
        <time>2015-06-21T06:31:02Z</time>
      </trkpt>
      <trkpt lat="41.95536" lon="9.22578">
        <ele>1537.2</ele>
        <time>2015-06-21T06:31:12Z</time>
      </trkpt>
      <trkpt lat="41.95559" lon="9.22586">
        <ele>1538</ele>
        <time>2015-06-21T06:31:37Z</time>
      </trkpt>
      <trkpt lat="41.95562" lon="9.22585">
        <ele>1538.2</ele>
        <time>2015-06-21T06:31:42Z</time>
      </trkpt>
      <trkpt lat="41.95564" lon="9.22583">
        <ele>1539.4</ele>
        <time>2015-06-21T06:31:48Z</time>
      </trkpt>
      <trkpt lat="41.95567" lon="9.22585">
        <ele>1541</ele>
        <time>2015-06-21T06:31:55Z</time>
      </trkpt>
      <trkpt lat="41.95569" lon="9.22586">
        <ele>1541.8</ele>
        <time>2015-06-21T06:31:59Z</time>
      </trkpt>
      <trkpt lat="41.9557" lon="9.22587">
        <ele>1541.8</ele>
        <time>2015-06-21T06:32:01Z</time>
      </trkpt>
      <trkpt lat="41.9557" lon="9.22591">
        <ele>1542.8</ele>
        <time>2015-06-21T06:32:06Z</time>
      </trkpt>
      <trkpt lat="41.95575" lon="9.22599">
        <ele>1544.6</ele>
        <time>2015-06-21T06:32:18Z</time>
      </trkpt>
      <trkpt lat="41.95584" lon="9.22605">
        <ele>1545.6</ele>
        <time>2015-06-21T06:32:33Z</time>
      </trkpt>
      <trkpt lat="41.95594" lon="9.22613">
        <ele>1546.4</ele>
        <time>2015-06-21T06:32:43Z</time>
      </trkpt>
      <trkpt lat="41.956" lon="9.22613">
        <ele>1547.6</ele>
        <time>2015-06-21T06:32:51Z</time>
      </trkpt>
      <trkpt lat="41.95603" lon="9.2262">
        <ele>1547.8</ele>
        <time>2015-06-21T06:33:00Z</time>
      </trkpt>
      <trkpt lat="41.95606" lon="9.22621">
        <ele>1547</ele>
        <time>2015-06-21T06:33:09Z</time>
      </trkpt>
      <trkpt lat="41.9561" lon="9.2262">
        <ele>1546</ele>
        <time>2015-06-21T06:33:16Z</time>
      </trkpt>
      <trkpt lat="41.95613" lon="9.22621">
        <ele>1545</ele>
        <time>2015-06-21T06:33:22Z</time>
      </trkpt>
      <trkpt lat="41.95613" lon="9.22623">
        <ele>1544</ele>
        <time>2015-06-21T06:33:28Z</time>
      </trkpt>
      <trkpt lat="41.95613" lon="9.22625">
        <ele>1543</ele>
        <time>2015-06-21T06:33:33Z</time>
      </trkpt>
      <trkpt lat="41.95614" lon="9.22627">
        <ele>1541.6</ele>
        <time>2015-06-21T06:33:39Z</time>
      </trkpt>
      <trkpt lat="41.95617" lon="9.22627">
        <ele>1540.4</ele>
        <time>2015-06-21T06:33:45Z</time>
      </trkpt>
      <trkpt lat="41.95619" lon="9.22631">
        <ele>1539.4</ele>
        <time>2015-06-21T06:33:51Z</time>
      </trkpt>
      <trkpt lat="41.95621" lon="9.22633">
        <ele>1538</ele>
        <time>2015-06-21T06:33:58Z</time>
      </trkpt>
      <trkpt lat="41.95624" lon="9.2263">
        <ele>1537</ele>
        <time>2015-06-21T06:34:04Z</time>
      </trkpt>
      <trkpt lat="41.95627" lon="9.22627">
        <ele>1535.8</ele>
        <time>2015-06-21T06:34:10Z</time>
      </trkpt>
      <trkpt lat="41.95627" lon="9.22626">
        <ele>1534.6</ele>
        <time>2015-06-21T06:34:17Z</time>
      </trkpt>
      <trkpt lat="41.95627" lon="9.22623">
        <ele>1534.2</ele>
        <time>2015-06-21T06:34:21Z</time>
      </trkpt>
      <trkpt lat="41.95631" lon="9.22622">
        <ele>1532.4</ele>
        <time>2015-06-21T06:34:28Z</time>
      </trkpt>
      <trkpt lat="41.95637" lon="9.22625">
        <ele>1530.8</ele>
        <time>2015-06-21T06:34:39Z</time>
      </trkpt>
      <trkpt lat="41.95639" lon="9.22627">
        <ele>1530.6</ele>
        <time>2015-06-21T06:34:41Z</time>
      </trkpt>
      <trkpt lat="41.95639" lon="9.22629">
        <ele>1530.6</ele>
        <time>2015-06-21T06:34:43Z</time>
      </trkpt>
      <trkpt lat="41.95639" lon="9.2263">
        <ele>1530.4</ele>
        <time>2015-06-21T06:34:44Z</time>
      </trkpt>
      <trkpt lat="41.9564" lon="9.22634">
        <ele>1528.6</ele>
        <time>2015-06-21T06:34:53Z</time>
      </trkpt>
      <trkpt lat="41.95642" lon="9.22632">
        <ele>1528.2</ele>
        <time>2015-06-21T06:34:59Z</time>
      </trkpt>
      <trkpt lat="41.9564" lon="9.22629">
        <ele>1526.6</ele>
        <time>2015-06-21T06:35:07Z</time>
      </trkpt>
      <trkpt lat="41.95641" lon="9.22628">
        <ele>1525.2</ele>
        <time>2015-06-21T06:35:15Z</time>
      </trkpt>
      <trkpt lat="41.95641" lon="9.22631">
        <ele>1525</ele>
        <time>2015-06-21T06:35:19Z</time>
      </trkpt>
      <trkpt lat="41.95642" lon="9.22637">
        <ele>1523.2</ele>
        <time>2015-06-21T06:35:26Z</time>
      </trkpt>
      <trkpt lat="41.95644" lon="9.22643">
        <ele>1522</ele>
        <time>2015-06-21T06:35:32Z</time>
      </trkpt>
      <trkpt lat="41.95645" lon="9.2265">
        <ele>1521</ele>
        <time>2015-06-21T06:35:38Z</time>
      </trkpt>
      <trkpt lat="41.95646" lon="9.22657">
        <ele>1519.2</ele>
        <time>2015-06-21T06:35:47Z</time>
      </trkpt>
      <trkpt lat="41.95646" lon="9.22662">
        <ele>1518.8</ele>
        <time>2015-06-21T06:35:52Z</time>
      </trkpt>
      <trkpt lat="41.95646" lon="9.22666">
        <ele>1517</ele>
        <time>2015-06-21T06:36:01Z</time>
      </trkpt>
      <trkpt lat="41.95647" lon="9.22668">
        <ele>1516.4</ele>
        <time>2015-06-21T06:36:08Z</time>
      </trkpt>
      <trkpt lat="41.95647" lon="9.22672">
        <ele>1515.4</ele>
        <time>2015-06-21T06:36:14Z</time>
      </trkpt>
      <trkpt lat="41.95645" lon="9.22676">
        <ele>1514.2</ele>
        <time>2015-06-21T06:36:21Z</time>
      </trkpt>
      <trkpt lat="41.95644" lon="9.22678">
        <ele>1513</ele>
        <time>2015-06-21T06:36:28Z</time>
      </trkpt>
      <trkpt lat="41.95648" lon="9.22681">
        <ele>1511.6</ele>
        <time>2015-06-21T06:36:35Z</time>
      </trkpt>
      <trkpt lat="41.9565" lon="9.22686">
        <ele>1510.6</ele>
        <time>2015-06-21T06:36:42Z</time>
      </trkpt>
      <trkpt lat="41.95652" lon="9.2268">
        <ele>1509.2</ele>
        <time>2015-06-21T06:36:52Z</time>
      </trkpt>
      <trkpt lat="41.95652" lon="9.22674">
        <ele>1508.8</ele>
        <time>2015-06-21T06:36:57Z</time>
      </trkpt>
      <trkpt lat="41.95653" lon="9.22668">
        <ele>1507.2</ele>
        <time>2015-06-21T06:37:03Z</time>
      </trkpt>
      <trkpt lat="41.95655" lon="9.2266">
        <ele>1506.2</ele>
        <time>2015-06-21T06:37:10Z</time>
      </trkpt>
      <trkpt lat="41.95659" lon="9.22646">
        <ele>1504.4</ele>
        <time>2015-06-21T06:37:23Z</time>
      </trkpt>
      <trkpt lat="41.95664" lon="9.22638">
        <ele>1503.4</ele>
        <time>2015-06-21T06:37:32Z</time>
      </trkpt>
      <trkpt lat="41.95671" lon="9.22634">
        <ele>1502.8</ele>
        <time>2015-06-21T06:37:37Z</time>
      </trkpt>
      <trkpt lat="41.9568" lon="9.22627">
        <ele>1501.2</ele>
        <time>2015-06-21T06:37:45Z</time>
      </trkpt>
      <trkpt lat="41.95686" lon="9.22623">
        <ele>1500.4</ele>
        <time>2015-06-21T06:37:50Z</time>
      </trkpt>
      <trkpt lat="41.95689" lon="9.22614">
        <ele>1499.8</ele>
        <time>2015-06-21T06:37:59Z</time>
      </trkpt>
      <trkpt lat="41.95694" lon="9.22607">
        <ele>1500.6</ele>
        <time>2015-06-21T06:38:12Z</time>
      </trkpt>
      <trkpt lat="41.957" lon="9.22597">
        <ele>1500.8</ele>
        <time>2015-06-21T06:38:37Z</time>
      </trkpt>
      <trkpt lat="41.95705" lon="9.22596">
        <ele>1499.6</ele>
        <time>2015-06-21T06:38:44Z</time>
      </trkpt>
      <trkpt lat="41.95711" lon="9.22596">
        <ele>1499</ele>
        <time>2015-06-21T06:38:49Z</time>
      </trkpt>
      <trkpt lat="41.95718" lon="9.22594">
        <ele>1497.2</ele>
        <time>2015-06-21T06:38:58Z</time>
      </trkpt>
      <trkpt lat="41.95724" lon="9.22593">
        <ele>1496.8</ele>
        <time>2015-06-21T06:39:02Z</time>
      </trkpt>
      <trkpt lat="41.95727" lon="9.22593">
        <ele>1496.2</ele>
        <time>2015-06-21T06:39:04Z</time>
      </trkpt>
      <trkpt lat="41.95733" lon="9.22591">
        <ele>1495.2</ele>
        <time>2015-06-21T06:39:10Z</time>
      </trkpt>
      <trkpt lat="41.95737" lon="9.22592">
        <ele>1494.6</ele>
        <time>2015-06-21T06:39:19Z</time>
      </trkpt>
      <trkpt lat="41.9574" lon="9.22591">
        <ele>1494.2</ele>
        <time>2015-06-21T06:39:25Z</time>
      </trkpt>
      <trkpt lat="41.95744" lon="9.22592">
        <ele>1492.8</ele>
        <time>2015-06-21T06:39:33Z</time>
      </trkpt>
      <trkpt lat="41.95747" lon="9.22595">
        <ele>1492.2</ele>
        <time>2015-06-21T06:39:38Z</time>
      </trkpt>
      <trkpt lat="41.95748" lon="9.22597">
        <ele>1490.4</ele>
        <time>2015-06-21T06:39:45Z</time>
      </trkpt>
      <trkpt lat="41.95748" lon="9.22602">
        <ele>1489.4</ele>
        <time>2015-06-21T06:39:57Z</time>
      </trkpt>
      <trkpt lat="41.95748" lon="9.22605">
        <ele>1488.4</ele>
        <time>2015-06-21T06:40:04Z</time>
      </trkpt>
      <trkpt lat="41.9575" lon="9.22603">
        <ele>1487.4</ele>
        <time>2015-06-21T06:40:10Z</time>
      </trkpt>
      <trkpt lat="41.95753" lon="9.22601">
        <ele>1486.4</ele>
        <time>2015-06-21T06:40:16Z</time>
      </trkpt>
      <trkpt lat="41.95755" lon="9.22599">
        <ele>1485</ele>
        <time>2015-06-21T06:40:23Z</time>
      </trkpt>
      <trkpt lat="41.95759" lon="9.22601">
        <ele>1484</ele>
        <time>2015-06-21T06:40:29Z</time>
      </trkpt>
      <trkpt lat="41.95762" lon="9.22601">
        <ele>1483</ele>
        <time>2015-06-21T06:40:35Z</time>
      </trkpt>
      <trkpt lat="41.95764" lon="9.22602">
        <ele>1482.2</ele>
        <time>2015-06-21T06:40:40Z</time>
      </trkpt>
      <trkpt lat="41.95769" lon="9.22601">
        <ele>1480.8</ele>
        <time>2015-06-21T06:40:46Z</time>
      </trkpt>
      <trkpt lat="41.95769" lon="9.22601">
        <ele>1480.6</ele>
        <time>2015-06-21T06:40:47Z</time>
      </trkpt>
      <trkpt lat="41.95771" lon="9.22601">
        <ele>1480.2</ele>
        <time>2015-06-21T06:40:49Z</time>
      </trkpt>
      <trkpt lat="41.95773" lon="9.22601">
        <ele>1480</ele>
        <time>2015-06-21T06:40:51Z</time>
      </trkpt>
      <trkpt lat="41.95778" lon="9.22598">
        <ele>1479</ele>
        <time>2015-06-21T06:40:56Z</time>
      </trkpt>
      <trkpt lat="41.95784" lon="9.22597">
        <ele>1478.2</ele>
        <time>2015-06-21T06:41:04Z</time>
      </trkpt>
      <trkpt lat="41.9579" lon="9.22599">
        <ele>1478.4</ele>
        <time>2015-06-21T06:41:12Z</time>
      </trkpt>
      <trkpt lat="41.95791" lon="9.22598">
        <ele>1478.6</ele>
        <time>2015-06-21T06:41:13Z</time>
      </trkpt>
      <trkpt lat="41.95804" lon="9.22598">
        <ele>1480.4</ele>
        <time>2015-06-21T06:41:33Z</time>
      </trkpt>
      <trkpt lat="41.95809" lon="9.22597">
        <ele>1480.6</ele>
        <time>2015-06-21T06:41:38Z</time>
      </trkpt>
      <trkpt lat="41.95811" lon="9.22596">
        <ele>1481</ele>
        <time>2015-06-21T06:41:40Z</time>
      </trkpt>
      <trkpt lat="41.95813" lon="9.22597">
        <ele>1481</ele>
        <time>2015-06-21T06:41:42Z</time>
      </trkpt>
      <trkpt lat="41.95814" lon="9.22597">
        <ele>1481.4</ele>
        <time>2015-06-21T06:41:44Z</time>
      </trkpt>
      <trkpt lat="41.95816" lon="9.22598">
        <ele>1482</ele>
        <time>2015-06-21T06:41:47Z</time>
      </trkpt>
      <trkpt lat="41.95819" lon="9.226">
        <ele>1482.4</ele>
        <time>2015-06-21T06:41:51Z</time>
      </trkpt>
      <trkpt lat="41.95825" lon="9.226">
        <ele>1483</ele>
        <time>2015-06-21T06:41:56Z</time>
      </trkpt>
      <trkpt lat="41.95826" lon="9.22599">
        <ele>1483</ele>
        <time>2015-06-21T06:41:58Z</time>
      </trkpt>
      <trkpt lat="41.95828" lon="9.22598">
        <ele>1483</ele>
        <time>2015-06-21T06:42:00Z</time>
      </trkpt>
      <trkpt lat="41.95835" lon="9.22599">
        <ele>1483</ele>
        <time>2015-06-21T06:42:07Z</time>
      </trkpt>
      <trkpt lat="41.95838" lon="9.22601">
        <ele>1482.8</ele>
        <time>2015-06-21T06:42:10Z</time>
      </trkpt>
      <trkpt lat="41.95839" lon="9.22601">
        <ele>1482.8</ele>
        <time>2015-06-21T06:42:12Z</time>
      </trkpt>
      <trkpt lat="41.95843" lon="9.226">
        <ele>1482.8</ele>
        <time>2015-06-21T06:42:16Z</time>
      </trkpt>
      <trkpt lat="41.95844" lon="9.226">
        <ele>1482.8</ele>
        <time>2015-06-21T06:42:18Z</time>
      </trkpt>
      <trkpt lat="41.9585" lon="9.226">
        <ele>1482.8</ele>
        <time>2015-06-21T06:42:22Z</time>
      </trkpt>
      <trkpt lat="41.9586" lon="9.22603">
        <ele>1482.8</ele>
        <time>2015-06-21T06:42:29Z</time>
      </trkpt>
      <trkpt lat="41.95861" lon="9.22603">
        <ele>1482.6</ele>
        <time>2015-06-21T06:42:31Z</time>
      </trkpt>
      <trkpt lat="41.95865" lon="9.22604">
        <ele>1481.8</ele>
        <time>2015-06-21T06:42:37Z</time>
      </trkpt>
      <trkpt lat="41.95869" lon="9.22604">
        <ele>1481.4</ele>
        <time>2015-06-21T06:42:40Z</time>
      </trkpt>
      <trkpt lat="41.95872" lon="9.22603">
        <ele>1481.2</ele>
        <time>2015-06-21T06:42:43Z</time>
      </trkpt>
      <trkpt lat="41.95875" lon="9.22603">
        <ele>1481.2</ele>
        <time>2015-06-21T06:42:47Z</time>
      </trkpt>
      <trkpt lat="41.95888" lon="9.22604">
        <ele>1481.4</ele>
        <time>2015-06-21T06:42:58Z</time>
      </trkpt>
      <trkpt lat="41.95895" lon="9.22605">
        <ele>1482</ele>
        <time>2015-06-21T06:43:04Z</time>
      </trkpt>
      <trkpt lat="41.95898" lon="9.22607">
        <ele>1482.2</ele>
        <time>2015-06-21T06:43:06Z</time>
      </trkpt>
      <trkpt lat="41.959" lon="9.22607">
        <ele>1482.4</ele>
        <time>2015-06-21T06:43:08Z</time>
      </trkpt>
      <trkpt lat="41.95905" lon="9.22609">
        <ele>1482.4</ele>
        <time>2015-06-21T06:43:11Z</time>
      </trkpt>
      <trkpt lat="41.95909" lon="9.22611">
        <ele>1482.6</ele>
        <time>2015-06-21T06:43:14Z</time>
      </trkpt>
      <trkpt lat="41.9591" lon="9.22613">
        <ele>1483</ele>
        <time>2015-06-21T06:43:16Z</time>
      </trkpt>
      <trkpt lat="41.9591" lon="9.22616">
        <ele>1483.6</ele>
        <time>2015-06-21T06:43:18Z</time>
      </trkpt>
      <trkpt lat="41.95915" lon="9.22621">
        <ele>1484.2</ele>
        <time>2015-06-21T06:43:25Z</time>
      </trkpt>
      <trkpt lat="41.95925" lon="9.22625">
        <ele>1484.8</ele>
        <time>2015-06-21T06:43:37Z</time>
      </trkpt>
      <trkpt lat="41.9593" lon="9.22625">
        <ele>1485.4</ele>
        <time>2015-06-21T06:43:43Z</time>
      </trkpt>
      <trkpt lat="41.95934" lon="9.22627">
        <ele>1486.4</ele>
        <time>2015-06-21T06:43:48Z</time>
      </trkpt>
      <trkpt lat="41.95937" lon="9.22628">
        <ele>1487.2</ele>
        <time>2015-06-21T06:43:52Z</time>
      </trkpt>
      <trkpt lat="41.95939" lon="9.22629">
        <ele>1488.2</ele>
        <time>2015-06-21T06:43:56Z</time>
      </trkpt>
      <trkpt lat="41.95952" lon="9.2263">
        <ele>1488.4</ele>
        <time>2015-06-21T06:44:09Z</time>
      </trkpt>
      <trkpt lat="41.95958" lon="9.22628">
        <ele>1487.4</ele>
        <time>2015-06-21T06:44:17Z</time>
      </trkpt>
      <trkpt lat="41.95964" lon="9.22629">
        <ele>1486.2</ele>
        <time>2015-06-21T06:44:25Z</time>
      </trkpt>
      <trkpt lat="41.95978" lon="9.22623">
        <ele>1484.6</ele>
        <time>2015-06-21T06:44:40Z</time>
      </trkpt>
      <trkpt lat="41.95983" lon="9.22617">
        <ele>1484</ele>
        <time>2015-06-21T06:44:47Z</time>
      </trkpt>
      <trkpt lat="41.95989" lon="9.22613">
        <ele>1482.6</ele>
        <time>2015-06-21T06:44:55Z</time>
      </trkpt>
      <trkpt lat="41.95993" lon="9.22613">
        <ele>1481.8</ele>
        <time>2015-06-21T06:45:02Z</time>
      </trkpt>
      <trkpt lat="41.95993" lon="9.22616">
        <ele>1481.2</ele>
        <time>2015-06-21T06:45:06Z</time>
      </trkpt>
      <trkpt lat="41.95994" lon="9.22619">
        <ele>1480.4</ele>
        <time>2015-06-21T06:45:10Z</time>
      </trkpt>
      <trkpt lat="41.95991" lon="9.22626">
        <ele>1478.2</ele>
        <time>2015-06-21T06:45:20Z</time>
      </trkpt>
      <trkpt lat="41.95991" lon="9.2263">
        <ele>1477.8</ele>
        <time>2015-06-21T06:45:26Z</time>
      </trkpt>
      <trkpt lat="41.95991" lon="9.22634">
        <ele>1477.2</ele>
        <time>2015-06-21T06:45:30Z</time>
      </trkpt>
      <trkpt lat="41.95991" lon="9.22635">
        <ele>1477</ele>
        <time>2015-06-21T06:45:31Z</time>
      </trkpt>
      <trkpt lat="41.95989" lon="9.2264">
        <ele>1475.4</ele>
        <time>2015-06-21T06:45:38Z</time>
      </trkpt>
      <trkpt lat="41.95987" lon="9.22644">
        <ele>1474.6</ele>
        <time>2015-06-21T06:45:43Z</time>
      </trkpt>
      <trkpt lat="41.95985" lon="9.22647">
        <ele>1473.6</ele>
        <time>2015-06-21T06:45:49Z</time>
      </trkpt>
      <trkpt lat="41.95984" lon="9.2265">
        <ele>1472.4</ele>
        <time>2015-06-21T06:45:54Z</time>
      </trkpt>
      <trkpt lat="41.95982" lon="9.22656">
        <ele>1471.4</ele>
        <time>2015-06-21T06:45:59Z</time>
      </trkpt>
      <trkpt lat="41.95982" lon="9.22657">
        <ele>1470.8</ele>
        <time>2015-06-21T06:46:01Z</time>
      </trkpt>
      <trkpt lat="41.9598" lon="9.2266">
        <ele>1470</ele>
        <time>2015-06-21T06:46:05Z</time>
      </trkpt>
      <trkpt lat="41.95979" lon="9.22665">
        <ele>1469.2</ele>
        <time>2015-06-21T06:46:10Z</time>
      </trkpt>
      <trkpt lat="41.95981" lon="9.22666">
        <ele>1467.8</ele>
        <time>2015-06-21T06:46:16Z</time>
      </trkpt>
      <trkpt lat="41.95985" lon="9.22663">
        <ele>1466.8</ele>
        <time>2015-06-21T06:46:22Z</time>
      </trkpt>
      <trkpt lat="41.95988" lon="9.22661">
        <ele>1465.4</ele>
        <time>2015-06-21T06:46:29Z</time>
      </trkpt>
      <trkpt lat="41.95989" lon="9.2266">
        <ele>1464.6</ele>
        <time>2015-06-21T06:46:35Z</time>
      </trkpt>
      <trkpt lat="41.95992" lon="9.22658">
        <ele>1463.6</ele>
        <time>2015-06-21T06:46:41Z</time>
      </trkpt>
      <trkpt lat="41.95995" lon="9.2266">
        <ele>1462.6</ele>
        <time>2015-06-21T06:46:46Z</time>
      </trkpt>
      <trkpt lat="41.95996" lon="9.22663">
        <ele>1461</ele>
        <time>2015-06-21T06:46:53Z</time>
      </trkpt>
      <trkpt lat="41.95997" lon="9.22666">
        <ele>1460</ele>
        <time>2015-06-21T06:46:59Z</time>
      </trkpt>
      <trkpt lat="41.96" lon="9.22669">
        <ele>1458.6</ele>
        <time>2015-06-21T06:47:06Z</time>
      </trkpt>
      <trkpt lat="41.96004" lon="9.22669">
        <ele>1457.4</ele>
        <time>2015-06-21T06:47:13Z</time>
      </trkpt>
      <trkpt lat="41.96009" lon="9.22667">
        <ele>1456.6</ele>
        <time>2015-06-21T06:47:19Z</time>
      </trkpt>
      <trkpt lat="41.96012" lon="9.22664">
        <ele>1455.6</ele>
        <time>2015-06-21T06:47:25Z</time>
      </trkpt>
      <trkpt lat="41.96015" lon="9.2266">
        <ele>1454.4</ele>
        <time>2015-06-21T06:47:31Z</time>
      </trkpt>
      <trkpt lat="41.96016" lon="9.22658">
        <ele>1453.2</ele>
        <time>2015-06-21T06:47:37Z</time>
      </trkpt>
      <trkpt lat="41.96019" lon="9.22656">
        <ele>1452.6</ele>
        <time>2015-06-21T06:47:40Z</time>
      </trkpt>
      <trkpt lat="41.96021" lon="9.22653">
        <ele>1452</ele>
        <time>2015-06-21T06:47:44Z</time>
      </trkpt>
      <trkpt lat="41.96027" lon="9.22651">
        <ele>1451</ele>
        <time>2015-06-21T06:47:51Z</time>
      </trkpt>
      <trkpt lat="41.96029" lon="9.22651">
        <ele>1450.8</ele>
        <time>2015-06-21T06:47:53Z</time>
      </trkpt>
      <trkpt lat="41.96032" lon="9.22647">
        <ele>1449.8</ele>
        <time>2015-06-21T06:47:57Z</time>
      </trkpt>
      <trkpt lat="41.96033" lon="9.22646">
        <ele>1449.8</ele>
        <time>2015-06-21T06:47:58Z</time>
      </trkpt>
      <trkpt lat="41.96035" lon="9.22644">
        <ele>1449.6</ele>
        <time>2015-06-21T06:48:00Z</time>
      </trkpt>
      <trkpt lat="41.96036" lon="9.2264">
        <ele>1448.6</ele>
        <time>2015-06-21T06:48:05Z</time>
      </trkpt>
      <trkpt lat="41.96037" lon="9.22638">
        <ele>1448.4</ele>
        <time>2015-06-21T06:48:09Z</time>
      </trkpt>
      <trkpt lat="41.96039" lon="9.22632">
        <ele>1447.6</ele>
        <time>2015-06-21T06:48:15Z</time>
      </trkpt>
      <trkpt lat="41.96041" lon="9.22629">
        <ele>1446.8</ele>
        <time>2015-06-21T06:48:20Z</time>
      </trkpt>
      <trkpt lat="41.96042" lon="9.22624">
        <ele>1445.4</ele>
        <time>2015-06-21T06:48:26Z</time>
      </trkpt>
      <trkpt lat="41.96044" lon="9.2262">
        <ele>1444.4</ele>
        <time>2015-06-21T06:48:32Z</time>
      </trkpt>
      <trkpt lat="41.96047" lon="9.22615">
        <ele>1443.4</ele>
        <time>2015-06-21T06:48:37Z</time>
      </trkpt>
      <trkpt lat="41.96051" lon="9.22611">
        <ele>1442.6</ele>
        <time>2015-06-21T06:48:41Z</time>
      </trkpt>
      <trkpt lat="41.96054" lon="9.22608">
        <ele>1441.4</ele>
        <time>2015-06-21T06:48:46Z</time>
      </trkpt>
      <trkpt lat="41.96055" lon="9.22606">
        <ele>1440.8</ele>
        <time>2015-06-21T06:48:48Z</time>
      </trkpt>
      <trkpt lat="41.96056" lon="9.22603">
        <ele>1440.2</ele>
        <time>2015-06-21T06:48:51Z</time>
      </trkpt>
      <trkpt lat="41.96058" lon="9.22601">
        <ele>1440</ele>
        <time>2015-06-21T06:48:53Z</time>
      </trkpt>
      <trkpt lat="41.96059" lon="9.22598">
        <ele>1439</ele>
        <time>2015-06-21T06:48:56Z</time>
      </trkpt>
      <trkpt lat="41.96063" lon="9.22594">
        <ele>1438.6</ele>
        <time>2015-06-21T06:49:01Z</time>
      </trkpt>
      <trkpt lat="41.96068" lon="9.2259">
        <ele>1437.6</ele>
        <time>2015-06-21T06:49:07Z</time>
      </trkpt>
      <trkpt lat="41.96069" lon="9.22589">
        <ele>1437.6</ele>
        <time>2015-06-21T06:49:08Z</time>
      </trkpt>
      <trkpt lat="41.9607" lon="9.22588">
        <ele>1437.4</ele>
        <time>2015-06-21T06:49:10Z</time>
      </trkpt>
      <trkpt lat="41.96072" lon="9.22585">
        <ele>1436.4</ele>
        <time>2015-06-21T06:49:15Z</time>
      </trkpt>
      <trkpt lat="41.96072" lon="9.2258">
        <ele>1435.2</ele>
        <time>2015-06-21T06:49:24Z</time>
      </trkpt>
      <trkpt lat="41.96071" lon="9.22577">
        <ele>1434.8</ele>
        <time>2015-06-21T06:49:27Z</time>
      </trkpt>
      <trkpt lat="41.96071" lon="9.22576">
        <ele>1434.8</ele>
        <time>2015-06-21T06:49:28Z</time>
      </trkpt>
      <trkpt lat="41.96071" lon="9.22575">
        <ele>1434.6</ele>
        <time>2015-06-21T06:49:29Z</time>
      </trkpt>
      <trkpt lat="41.96075" lon="9.22573">
        <ele>1433.4</ele>
        <time>2015-06-21T06:49:33Z</time>
      </trkpt>
      <trkpt lat="41.96076" lon="9.22571">
        <ele>1433</ele>
        <time>2015-06-21T06:49:35Z</time>
      </trkpt>
      <trkpt lat="41.96078" lon="9.2257">
        <ele>1432.6</ele>
        <time>2015-06-21T06:49:37Z</time>
      </trkpt>
      <trkpt lat="41.96079" lon="9.22568">
        <ele>1432</ele>
        <time>2015-06-21T06:49:40Z</time>
      </trkpt>
      <trkpt lat="41.96081" lon="9.22564">
        <ele>1431</ele>
        <time>2015-06-21T06:49:43Z</time>
      </trkpt>
      <trkpt lat="41.96089" lon="9.22554">
        <ele>1430</ele>
        <time>2015-06-21T06:49:50Z</time>
      </trkpt>
      <trkpt lat="41.96092" lon="9.22548">
        <ele>1430</ele>
        <time>2015-06-21T06:49:55Z</time>
      </trkpt>
      <trkpt lat="41.96093" lon="9.22547">
        <ele>1430</ele>
        <time>2015-06-21T06:49:57Z</time>
      </trkpt>
      <trkpt lat="41.96096" lon="9.22544">
        <ele>1430.2</ele>
        <time>2015-06-21T06:50:00Z</time>
      </trkpt>
      <trkpt lat="41.96098" lon="9.2254">
        <ele>1430.4</ele>
        <time>2015-06-21T06:50:03Z</time>
      </trkpt>
      <trkpt lat="41.96098" lon="9.22537">
        <ele>1430.4</ele>
        <time>2015-06-21T06:50:05Z</time>
      </trkpt>
      <trkpt lat="41.96098" lon="9.22534">
        <ele>1430.6</ele>
        <time>2015-06-21T06:50:08Z</time>
      </trkpt>
      <trkpt lat="41.961" lon="9.22527">
        <ele>1430.4</ele>
        <time>2015-06-21T06:50:14Z</time>
      </trkpt>
      <trkpt lat="41.96102" lon="9.22521">
        <ele>1430.4</ele>
        <time>2015-06-21T06:50:20Z</time>
      </trkpt>
      <trkpt lat="41.96103" lon="9.22518">
        <ele>1430.2</ele>
        <time>2015-06-21T06:50:23Z</time>
      </trkpt>
      <trkpt lat="41.96104" lon="9.22518">
        <ele>1430</ele>
        <time>2015-06-21T06:50:25Z</time>
      </trkpt>
      <trkpt lat="41.96103" lon="9.22519">
        <ele>1428.8</ele>
        <time>2015-06-21T06:50:30Z</time>
      </trkpt>
      <trkpt lat="41.96104" lon="9.22521">
        <ele>1427.4</ele>
        <time>2015-06-21T06:50:37Z</time>
      </trkpt>
      <trkpt lat="41.96106" lon="9.22522">
        <ele>1426.6</ele>
        <time>2015-06-21T06:50:42Z</time>
      </trkpt>
      <trkpt lat="41.96108" lon="9.22525">
        <ele>1425.6</ele>
        <time>2015-06-21T06:50:46Z</time>
      </trkpt>
      <trkpt lat="41.96111" lon="9.22529">
        <ele>1423.8</ele>
        <time>2015-06-21T06:50:52Z</time>
      </trkpt>
      <trkpt lat="41.96112" lon="9.2253">
        <ele>1423.2</ele>
        <time>2015-06-21T06:50:56Z</time>
      </trkpt>
      <trkpt lat="41.96114" lon="9.2253">
        <ele>1422.2</ele>
        <time>2015-06-21T06:51:00Z</time>
      </trkpt>
      <trkpt lat="41.96116" lon="9.22528">
        <ele>1421.2</ele>
        <time>2015-06-21T06:51:04Z</time>
      </trkpt>
      <trkpt lat="41.9612" lon="9.22529">
        <ele>1420.4</ele>
        <time>2015-06-21T06:51:06Z</time>
      </trkpt>
      <trkpt lat="41.96123" lon="9.22529">
        <ele>1420</ele>
        <time>2015-06-21T06:51:08Z</time>
      </trkpt>
      <trkpt lat="41.96125" lon="9.22529">
        <ele>1419.8</ele>
        <time>2015-06-21T06:51:09Z</time>
      </trkpt>
      <trkpt lat="41.96128" lon="9.22528">
        <ele>1419</ele>
        <time>2015-06-21T06:51:13Z</time>
      </trkpt>
      <trkpt lat="41.9613" lon="9.22527">
        <ele>1418.2</ele>
        <time>2015-06-21T06:51:16Z</time>
      </trkpt>
      <trkpt lat="41.9613" lon="9.22528">
        <ele>1418</ele>
        <time>2015-06-21T06:51:17Z</time>
      </trkpt>
      <trkpt lat="41.96132" lon="9.22528">
        <ele>1417.2</ele>
        <time>2015-06-21T06:51:22Z</time>
      </trkpt>
      <trkpt lat="41.96135" lon="9.22528">
        <ele>1416</ele>
        <time>2015-06-21T06:51:28Z</time>
      </trkpt>
      <trkpt lat="41.96139" lon="9.22527">
        <ele>1415.2</ele>
        <time>2015-06-21T06:51:33Z</time>
      </trkpt>
      <trkpt lat="41.9614" lon="9.22528">
        <ele>1414.2</ele>
        <time>2015-06-21T06:51:37Z</time>
      </trkpt>
      <trkpt lat="41.9614" lon="9.22527">
        <ele>1413</ele>
        <time>2015-06-21T06:51:42Z</time>
      </trkpt>
      <trkpt lat="41.96143" lon="9.22526">
        <ele>1412.2</ele>
        <time>2015-06-21T06:51:45Z</time>
      </trkpt>
      <trkpt lat="41.96147" lon="9.22525">
        <ele>1411.8</ele>
        <time>2015-06-21T06:51:49Z</time>
      </trkpt>
      <trkpt lat="41.96148" lon="9.22524">
        <ele>1411.6</ele>
        <time>2015-06-21T06:51:51Z</time>
      </trkpt>
      <trkpt lat="41.96152" lon="9.22524">
        <ele>1411.4</ele>
        <time>2015-06-21T06:51:56Z</time>
      </trkpt>
      <trkpt lat="41.96153" lon="9.22523">
        <ele>1411.4</ele>
        <time>2015-06-21T06:51:57Z</time>
      </trkpt>
      <trkpt lat="41.96155" lon="9.22523">
        <ele>1410.8</ele>
        <time>2015-06-21T06:52:02Z</time>
      </trkpt>
      <trkpt lat="41.9616" lon="9.2252">
        <ele>1409.4</ele>
        <time>2015-06-21T06:52:08Z</time>
      </trkpt>
      <trkpt lat="41.96161" lon="9.22519">
        <ele>1409.2</ele>
        <time>2015-06-21T06:52:09Z</time>
      </trkpt>
      <trkpt lat="41.96167" lon="9.22517">
        <ele>1408.2</ele>
        <time>2015-06-21T06:52:15Z</time>
      </trkpt>
      <trkpt lat="41.96169" lon="9.22517">
        <ele>1408</ele>
        <time>2015-06-21T06:52:17Z</time>
      </trkpt>
      <trkpt lat="41.96171" lon="9.22516">
        <ele>1407.6</ele>
        <time>2015-06-21T06:52:19Z</time>
      </trkpt>
      <trkpt lat="41.96172" lon="9.22516">
        <ele>1407.4</ele>
        <time>2015-06-21T06:52:20Z</time>
      </trkpt>
      <trkpt lat="41.96175" lon="9.22514">
        <ele>1406.4</ele>
        <time>2015-06-21T06:52:24Z</time>
      </trkpt>
      <trkpt lat="41.96176" lon="9.22513">
        <ele>1406.2</ele>
        <time>2015-06-21T06:52:25Z</time>
      </trkpt>
      <trkpt lat="41.96181" lon="9.22511">
        <ele>1405</ele>
        <time>2015-06-21T06:52:30Z</time>
      </trkpt>
      <trkpt lat="41.96181" lon="9.22511">
        <ele>1405</ele>
        <time>2015-06-21T06:52:31Z</time>
      </trkpt>
      <trkpt lat="41.96186" lon="9.22511">
        <ele>1404.2</ele>
        <time>2015-06-21T06:52:35Z</time>
      </trkpt>
      <trkpt lat="41.9619" lon="9.2251">
        <ele>1403.2</ele>
        <time>2015-06-21T06:52:39Z</time>
      </trkpt>
      <trkpt lat="41.96195" lon="9.22505">
        <ele>1401.4</ele>
        <time>2015-06-21T06:52:45Z</time>
      </trkpt>
      <trkpt lat="41.96196" lon="9.22504">
        <ele>1401.2</ele>
        <time>2015-06-21T06:52:46Z</time>
      </trkpt>
      <trkpt lat="41.96197" lon="9.22502">
        <ele>1400.6</ele>
        <time>2015-06-21T06:52:49Z</time>
      </trkpt>
      <trkpt lat="41.962" lon="9.22498">
        <ele>1400</ele>
        <time>2015-06-21T06:52:55Z</time>
      </trkpt>
      <trkpt lat="41.96203" lon="9.22496">
        <ele>1399.2</ele>
        <time>2015-06-21T06:53:00Z</time>
      </trkpt>
      <trkpt lat="41.96204" lon="9.22494">
        <ele>1398</ele>
        <time>2015-06-21T06:53:06Z</time>
      </trkpt>
      <trkpt lat="41.96205" lon="9.22489">
        <ele>1396.8</ele>
        <time>2015-06-21T06:53:12Z</time>
      </trkpt>
      <trkpt lat="41.9621" lon="9.22482">
        <ele>1395</ele>
        <time>2015-06-21T06:53:24Z</time>
      </trkpt>
      <trkpt lat="41.96212" lon="9.22479">
        <ele>1394.8</ele>
        <time>2015-06-21T06:53:27Z</time>
      </trkpt>
      <trkpt lat="41.96213" lon="9.22476">
        <ele>1394.6</ele>
        <time>2015-06-21T06:53:29Z</time>
      </trkpt>
      <trkpt lat="41.96215" lon="9.22472">
        <ele>1393.4</ele>
        <time>2015-06-21T06:53:35Z</time>
      </trkpt>
      <trkpt lat="41.96218" lon="9.22467">
        <ele>1392.6</ele>
        <time>2015-06-21T06:53:39Z</time>
      </trkpt>
      <trkpt lat="41.96219" lon="9.22464">
        <ele>1392.2</ele>
        <time>2015-06-21T06:53:41Z</time>
      </trkpt>
      <trkpt lat="41.96222" lon="9.22458">
        <ele>1391.6</ele>
        <time>2015-06-21T06:53:45Z</time>
      </trkpt>
      <trkpt lat="41.9623" lon="9.2244">
        <ele>1391.2</ele>
        <time>2015-06-21T06:54:03Z</time>
      </trkpt>
      <trkpt lat="41.96231" lon="9.22435">
        <ele>1391.2</ele>
        <time>2015-06-21T06:54:07Z</time>
      </trkpt>
      <trkpt lat="41.96236" lon="9.22429">
        <ele>1390.4</ele>
        <time>2015-06-21T06:54:15Z</time>
      </trkpt>
      <trkpt lat="41.96239" lon="9.22427">
        <ele>1390.4</ele>
        <time>2015-06-21T06:54:19Z</time>
      </trkpt>
      <trkpt lat="41.96245" lon="9.22425">
        <ele>1390.4</ele>
        <time>2015-06-21T06:54:25Z</time>
      </trkpt>
      <trkpt lat="41.96247" lon="9.22424">
        <ele>1390.2</ele>
        <time>2015-06-21T06:54:28Z</time>
      </trkpt>
      <trkpt lat="41.96257" lon="9.22417">
        <ele>1389.4</ele>
        <time>2015-06-21T06:54:38Z</time>
      </trkpt>
      <trkpt lat="41.96261" lon="9.22413">
        <ele>1388.8</ele>
        <time>2015-06-21T06:54:44Z</time>
      </trkpt>
      <trkpt lat="41.96268" lon="9.22413">
        <ele>1388.4</ele>
        <time>2015-06-21T06:55:01Z</time>
      </trkpt>
      <trkpt lat="41.96274" lon="9.22413">
        <ele>1387.6</ele>
        <time>2015-06-21T06:55:09Z</time>
      </trkpt>
      <trkpt lat="41.96276" lon="9.22412">
        <ele>1387.4</ele>
        <time>2015-06-21T06:55:11Z</time>
      </trkpt>
      <trkpt lat="41.96279" lon="9.22413">
        <ele>1386.8</ele>
        <time>2015-06-21T06:55:14Z</time>
      </trkpt>
      <trkpt lat="41.96284" lon="9.22415">
        <ele>1386.4</ele>
        <time>2015-06-21T06:55:18Z</time>
      </trkpt>
      <trkpt lat="41.96288" lon="9.22416">
        <ele>1386</ele>
        <time>2015-06-21T06:55:21Z</time>
      </trkpt>
      <trkpt lat="41.9629" lon="9.22417">
        <ele>1385.8</ele>
        <time>2015-06-21T06:55:23Z</time>
      </trkpt>
      <trkpt lat="41.96292" lon="9.22418">
        <ele>1385.2</ele>
        <time>2015-06-21T06:55:25Z</time>
      </trkpt>
      <trkpt lat="41.96293" lon="9.22419">
        <ele>1385</ele>
        <time>2015-06-21T06:55:27Z</time>
      </trkpt>
      <trkpt lat="41.96296" lon="9.2242">
        <ele>1384.8</ele>
        <time>2015-06-21T06:55:29Z</time>
      </trkpt>
      <trkpt lat="41.96297" lon="9.22421">
        <ele>1384.6</ele>
        <time>2015-06-21T06:55:30Z</time>
      </trkpt>
      <trkpt lat="41.96299" lon="9.22422">
        <ele>1383.8</ele>
        <time>2015-06-21T06:55:33Z</time>
      </trkpt>
      <trkpt lat="41.96301" lon="9.2242">
        <ele>1382.6</ele>
        <time>2015-06-21T06:55:41Z</time>
      </trkpt>
      <trkpt lat="41.96307" lon="9.22421">
        <ele>1381.8</ele>
        <time>2015-06-21T06:55:49Z</time>
      </trkpt>
      <trkpt lat="41.9631" lon="9.2242">
        <ele>1381.8</ele>
        <time>2015-06-21T06:55:51Z</time>
      </trkpt>
      <trkpt lat="41.96315" lon="9.22421">
        <ele>1381.6</ele>
        <time>2015-06-21T06:55:54Z</time>
      </trkpt>
      <trkpt lat="41.9632" lon="9.22419">
        <ele>1381.6</ele>
        <time>2015-06-21T06:55:59Z</time>
      </trkpt>
      <trkpt lat="41.96325" lon="9.22417">
        <ele>1382</ele>
        <time>2015-06-21T06:56:04Z</time>
      </trkpt>
      <trkpt lat="41.96327" lon="9.22416">
        <ele>1383.2</ele>
        <time>2015-06-21T06:56:09Z</time>
      </trkpt>
      <trkpt lat="41.96331" lon="9.22414">
        <ele>1384.4</ele>
        <time>2015-06-21T06:56:14Z</time>
      </trkpt>
      <trkpt lat="41.96332" lon="9.22412">
        <ele>1385</ele>
        <time>2015-06-21T06:56:17Z</time>
      </trkpt>
      <trkpt lat="41.96348" lon="9.2241">
        <ele>1385.4</ele>
        <time>2015-06-21T06:56:35Z</time>
      </trkpt>
      <trkpt lat="41.96351" lon="9.22411">
        <ele>1384.2</ele>
        <time>2015-06-21T06:56:42Z</time>
      </trkpt>
      <trkpt lat="41.96372" lon="9.22412">
        <ele>1383.2</ele>
        <time>2015-06-21T06:57:02Z</time>
      </trkpt>
      <trkpt lat="41.96374" lon="9.22411">
        <ele>1383.8</ele>
        <time>2015-06-21T06:57:04Z</time>
      </trkpt>
      <trkpt lat="41.96376" lon="9.22411">
        <ele>1384.2</ele>
        <time>2015-06-21T06:57:07Z</time>
      </trkpt>
      <trkpt lat="41.96377" lon="9.22411">
        <ele>1384.4</ele>
        <time>2015-06-21T06:57:08Z</time>
      </trkpt>
      <trkpt lat="41.96378" lon="9.22411">
        <ele>1384.8</ele>
        <time>2015-06-21T06:57:09Z</time>
      </trkpt>
      <trkpt lat="41.96382" lon="9.2241">
        <ele>1385.8</ele>
        <time>2015-06-21T06:57:15Z</time>
      </trkpt>
      <trkpt lat="41.96384" lon="9.22413">
        <ele>1386.6</ele>
        <time>2015-06-21T06:57:22Z</time>
      </trkpt>
      <trkpt lat="41.96387" lon="9.22413">
        <ele>1388.2</ele>
        <time>2015-06-21T06:57:31Z</time>
      </trkpt>
      <trkpt lat="41.96389" lon="9.22411">
        <ele>1389</ele>
        <time>2015-06-21T06:57:39Z</time>
      </trkpt>
      <trkpt lat="41.96389" lon="9.22406">
        <ele>1390.2</ele>
        <time>2015-06-21T06:57:48Z</time>
      </trkpt>
      <trkpt lat="41.96388" lon="9.22403">
        <ele>1391</ele>
        <time>2015-06-21T06:57:54Z</time>
      </trkpt>
      <trkpt lat="41.96393" lon="9.224">
        <ele>1392.4</ele>
        <time>2015-06-21T06:58:05Z</time>
      </trkpt>
      <trkpt lat="41.96397" lon="9.22401">
        <ele>1393.4</ele>
        <time>2015-06-21T06:58:12Z</time>
      </trkpt>
      <trkpt lat="41.964" lon="9.22404">
        <ele>1394.6</ele>
        <time>2015-06-21T06:58:21Z</time>
      </trkpt>
      <trkpt lat="41.96403" lon="9.22409">
        <ele>1395.8</ele>
        <time>2015-06-21T06:58:29Z</time>
      </trkpt>
      <trkpt lat="41.96404" lon="9.2241">
        <ele>1396.4</ele>
        <time>2015-06-21T06:58:35Z</time>
      </trkpt>
      <trkpt lat="41.96413" lon="9.22411">
        <ele>1397.4</ele>
        <time>2015-06-21T06:58:58Z</time>
      </trkpt>
      <trkpt lat="41.96417" lon="9.2241">
        <ele>1396.2</ele>
        <time>2015-06-21T06:59:05Z</time>
      </trkpt>
      <trkpt lat="41.96422" lon="9.22402">
        <ele>1394.6</ele>
        <time>2015-06-21T06:59:17Z</time>
      </trkpt>
      <trkpt lat="41.96425" lon="9.22402">
        <ele>1393.8</ele>
        <time>2015-06-21T06:59:28Z</time>
      </trkpt>
      <trkpt lat="41.96428" lon="9.22403">
        <ele>1393</ele>
        <time>2015-06-21T06:59:35Z</time>
      </trkpt>
      <trkpt lat="41.96431" lon="9.22405">
        <ele>1391.8</ele>
        <time>2015-06-21T06:59:42Z</time>
      </trkpt>
      <trkpt lat="41.96433" lon="9.22407">
        <ele>1391.2</ele>
        <time>2015-06-21T06:59:46Z</time>
      </trkpt>
      <trkpt lat="41.96434" lon="9.22409">
        <ele>1390.2</ele>
        <time>2015-06-21T06:59:51Z</time>
      </trkpt>
      <trkpt lat="41.96436" lon="9.22413">
        <ele>1388.6</ele>
        <time>2015-06-21T06:59:58Z</time>
      </trkpt>
      <trkpt lat="41.96437" lon="9.22414">
        <ele>1388</ele>
        <time>2015-06-21T07:00:02Z</time>
      </trkpt>
      <trkpt lat="41.96441" lon="9.22413">
        <ele>1386.6</ele>
        <time>2015-06-21T07:00:08Z</time>
      </trkpt>
      <trkpt lat="41.9646" lon="9.22412">
        <ele>1385</ele>
        <time>2015-06-21T07:00:29Z</time>
      </trkpt>
      <trkpt lat="41.9647" lon="9.22415">
        <ele>1384.8</ele>
        <time>2015-06-21T07:00:42Z</time>
      </trkpt>
      <trkpt lat="41.9647" lon="9.22416">
        <ele>1384.8</ele>
        <time>2015-06-21T07:00:43Z</time>
      </trkpt>
      <trkpt lat="41.96478" lon="9.2242">
        <ele>1384.2</ele>
        <time>2015-06-21T07:00:49Z</time>
      </trkpt>
      <trkpt lat="41.96488" lon="9.22421">
        <ele>1384.2</ele>
        <time>2015-06-21T07:01:02Z</time>
      </trkpt>
      <trkpt lat="41.96494" lon="9.22422">
        <ele>1385.8</ele>
        <time>2015-06-21T07:01:11Z</time>
      </trkpt>
      <trkpt lat="41.96498" lon="9.22424">
        <ele>1386</ele>
        <time>2015-06-21T07:01:15Z</time>
      </trkpt>
      <trkpt lat="41.965" lon="9.22424">
        <ele>1386.6</ele>
        <time>2015-06-21T07:01:18Z</time>
      </trkpt>
      <trkpt lat="41.96501" lon="9.22423">
        <ele>1386.6</ele>
        <time>2015-06-21T07:01:19Z</time>
      </trkpt>
      <trkpt lat="41.96504" lon="9.22422">
        <ele>1387.6</ele>
        <time>2015-06-21T07:01:24Z</time>
      </trkpt>
      <trkpt lat="41.96509" lon="9.2242">
        <ele>1388.8</ele>
        <time>2015-06-21T07:01:31Z</time>
      </trkpt>
      <trkpt lat="41.96513" lon="9.22419">
        <ele>1389.8</ele>
        <time>2015-06-21T07:01:38Z</time>
      </trkpt>
      <trkpt lat="41.96518" lon="9.22413">
        <ele>1391.4</ele>
        <time>2015-06-21T07:01:48Z</time>
      </trkpt>
      <trkpt lat="41.96522" lon="9.22407">
        <ele>1392.6</ele>
        <time>2015-06-21T07:01:59Z</time>
      </trkpt>
      <trkpt lat="41.96534" lon="9.22396">
        <ele>1393.8</ele>
        <time>2015-06-21T07:02:28Z</time>
      </trkpt>
      <trkpt lat="41.96539" lon="9.22394">
        <ele>1394.4</ele>
        <time>2015-06-21T07:02:37Z</time>
      </trkpt>
      <trkpt lat="41.96566" lon="9.22375">
        <ele>1396</ele>
        <time>2015-06-21T07:03:18Z</time>
      </trkpt>
      <trkpt lat="41.96569" lon="9.22377">
        <ele>1396.6</ele>
        <time>2015-06-21T07:03:26Z</time>
      </trkpt>
      <trkpt lat="41.96572" lon="9.22378">
        <ele>1397.2</ele>
        <time>2015-06-21T07:03:31Z</time>
      </trkpt>
      <trkpt lat="41.96576" lon="9.22377">
        <ele>1398.6</ele>
        <time>2015-06-21T07:03:38Z</time>
      </trkpt>
      <trkpt lat="41.9658" lon="9.22379">
        <ele>1400</ele>
        <time>2015-06-21T07:03:58Z</time>
      </trkpt>
      <trkpt lat="41.96578" lon="9.22386">
        <ele>1400.8</ele>
        <time>2015-06-21T07:04:08Z</time>
      </trkpt>
      <trkpt lat="41.96579" lon="9.22389">
        <ele>1401.6</ele>
        <time>2015-06-21T07:04:14Z</time>
      </trkpt>
      <trkpt lat="41.96589" lon="9.22393">
        <ele>1403.4</ele>
        <time>2015-06-21T07:04:29Z</time>
      </trkpt>
      <trkpt lat="41.96594" lon="9.22393">
        <ele>1403.8</ele>
        <time>2015-06-21T07:04:37Z</time>
      </trkpt>
      <trkpt lat="41.96597" lon="9.22392">
        <ele>1404.8</ele>
        <time>2015-06-21T07:04:46Z</time>
      </trkpt>
      <trkpt lat="41.966" lon="9.22393">
        <ele>1406.2</ele>
        <time>2015-06-21T07:04:55Z</time>
      </trkpt>
      <trkpt lat="41.96606" lon="9.22392">
        <ele>1406.8</ele>
        <time>2015-06-21T07:05:02Z</time>
      </trkpt>
      <trkpt lat="41.96611" lon="9.22393">
        <ele>1408.2</ele>
        <time>2015-06-21T07:05:10Z</time>
      </trkpt>
      <trkpt lat="41.96617" lon="9.22392">
        <ele>1409.2</ele>
        <time>2015-06-21T07:05:18Z</time>
      </trkpt>
      <trkpt lat="41.96621" lon="9.22392">
        <ele>1410.2</ele>
        <time>2015-06-21T07:05:26Z</time>
      </trkpt>
      <trkpt lat="41.96626" lon="9.22391">
        <ele>1411.6</ele>
        <time>2015-06-21T07:05:36Z</time>
      </trkpt>
      <trkpt lat="41.9663" lon="9.22388">
        <ele>1412.6</ele>
        <time>2015-06-21T07:05:44Z</time>
      </trkpt>
      <trkpt lat="41.96633" lon="9.22386">
        <ele>1413.4</ele>
        <time>2015-06-21T07:05:50Z</time>
      </trkpt>
      <trkpt lat="41.96637" lon="9.22384">
        <ele>1415</ele>
        <time>2015-06-21T07:05:59Z</time>
      </trkpt>
      <trkpt lat="41.96642" lon="9.22385">
        <ele>1415.8</ele>
        <time>2015-06-21T07:06:06Z</time>
      </trkpt>
      <trkpt lat="41.96646" lon="9.22385">
        <ele>1417</ele>
        <time>2015-06-21T07:06:15Z</time>
      </trkpt>
      <trkpt lat="41.9665" lon="9.22384">
        <ele>1418.2</ele>
        <time>2015-06-21T07:06:23Z</time>
      </trkpt>
      <trkpt lat="41.96655" lon="9.22384">
        <ele>1419.4</ele>
        <time>2015-06-21T07:06:31Z</time>
      </trkpt>
      <trkpt lat="41.96659" lon="9.22383">
        <ele>1420.2</ele>
        <time>2015-06-21T07:06:39Z</time>
      </trkpt>
      <trkpt lat="41.96663" lon="9.22382">
        <ele>1421.2</ele>
        <time>2015-06-21T07:06:46Z</time>
      </trkpt>
      <trkpt lat="41.96666" lon="9.22381">
        <ele>1422.2</ele>
        <time>2015-06-21T07:06:54Z</time>
      </trkpt>
      <trkpt lat="41.96673" lon="9.22383">
        <ele>1423.4</ele>
        <time>2015-06-21T07:07:04Z</time>
      </trkpt>
      <trkpt lat="41.96686" lon="9.22384">
        <ele>1424.4</ele>
        <time>2015-06-21T07:07:18Z</time>
      </trkpt>
      <trkpt lat="41.96692" lon="9.22387">
        <ele>1425.6</ele>
        <time>2015-06-21T07:07:28Z</time>
      </trkpt>
      <trkpt lat="41.96697" lon="9.22393">
        <ele>1426.2</ele>
        <time>2015-06-21T07:07:36Z</time>
      </trkpt>
      <trkpt lat="41.96704" lon="9.22397">
        <ele>1427.4</ele>
        <time>2015-06-21T07:07:48Z</time>
      </trkpt>
      <trkpt lat="41.96715" lon="9.22408">
        <ele>1428.6</ele>
        <time>2015-06-21T07:08:05Z</time>
      </trkpt>
      <trkpt lat="41.96721" lon="9.22412">
        <ele>1429.2</ele>
        <time>2015-06-21T07:08:15Z</time>
      </trkpt>
      <trkpt lat="41.96723" lon="9.22413">
        <ele>1429.6</ele>
        <time>2015-06-21T07:08:18Z</time>
      </trkpt>
      <trkpt lat="41.96731" lon="9.22418">
        <ele>1430.4</ele>
        <time>2015-06-21T07:08:27Z</time>
      </trkpt>
      <trkpt lat="41.96749" lon="9.22434">
        <ele>1431</ele>
        <time>2015-06-21T07:08:52Z</time>
      </trkpt>
      <trkpt lat="41.96756" lon="9.22436">
        <ele>1431.8</ele>
        <time>2015-06-21T07:08:59Z</time>
      </trkpt>
      <trkpt lat="41.96765" lon="9.2243">
        <ele>1433.2</ele>
        <time>2015-06-21T07:09:12Z</time>
      </trkpt>
      <trkpt lat="41.96767" lon="9.2243">
        <ele>1433.2</ele>
        <time>2015-06-21T07:09:14Z</time>
      </trkpt>
      <trkpt lat="41.9677" lon="9.22431">
        <ele>1433.8</ele>
        <time>2015-06-21T07:09:18Z</time>
      </trkpt>
      <trkpt lat="41.96772" lon="9.22434">
        <ele>1434</ele>
        <time>2015-06-21T07:09:21Z</time>
      </trkpt>
      <trkpt lat="41.96779" lon="9.22439">
        <ele>1434.2</ele>
        <time>2015-06-21T07:09:30Z</time>
      </trkpt>
      <trkpt lat="41.96809" lon="9.22438">
        <ele>1432.8</ele>
        <time>2015-06-21T07:09:55Z</time>
      </trkpt>
      <trkpt lat="41.96824" lon="9.22449">
        <ele>1432.6</ele>
        <time>2015-06-21T07:10:15Z</time>
      </trkpt>
      <trkpt lat="41.96828" lon="9.22454">
        <ele>1433.4</ele>
        <time>2015-06-21T07:10:21Z</time>
      </trkpt>
      <trkpt lat="41.96833" lon="9.22456">
        <ele>1434.2</ele>
        <time>2015-06-21T07:10:27Z</time>
      </trkpt>
      <trkpt lat="41.96844" lon="9.22457">
        <ele>1435.8</ele>
        <time>2015-06-21T07:10:39Z</time>
      </trkpt>
      <trkpt lat="41.9686" lon="9.22456">
        <ele>1437</ele>
        <time>2015-06-21T07:11:00Z</time>
      </trkpt>
      <trkpt lat="41.96888" lon="9.2246">
        <ele>1438</ele>
        <time>2015-06-21T07:11:30Z</time>
      </trkpt>
      <trkpt lat="41.96901" lon="9.22466">
        <ele>1438.4</ele>
        <time>2015-06-21T07:11:46Z</time>
      </trkpt>
      <trkpt lat="41.96906" lon="9.22465">
        <ele>1439.6</ele>
        <time>2015-06-21T07:11:53Z</time>
      </trkpt>
      <trkpt lat="41.96925" lon="9.22463">
        <ele>1440.6</ele>
        <time>2015-06-21T07:12:16Z</time>
      </trkpt>
      <trkpt lat="41.9693" lon="9.22459">
        <ele>1442</ele>
        <time>2015-06-21T07:12:25Z</time>
      </trkpt>
      <trkpt lat="41.96937" lon="9.22458">
        <ele>1443.2</ele>
        <time>2015-06-21T07:12:34Z</time>
      </trkpt>
      <trkpt lat="41.9694" lon="9.22456">
        <ele>1444</ele>
        <time>2015-06-21T07:12:41Z</time>
      </trkpt>
      <trkpt lat="41.96945" lon="9.22455">
        <ele>1445.2</ele>
        <time>2015-06-21T07:12:50Z</time>
      </trkpt>
      <trkpt lat="41.9695" lon="9.22453">
        <ele>1446.2</ele>
        <time>2015-06-21T07:12:58Z</time>
      </trkpt>
      <trkpt lat="41.96953" lon="9.22452">
        <ele>1447.6</ele>
        <time>2015-06-21T07:13:06Z</time>
      </trkpt>
      <trkpt lat="41.96957" lon="9.2245">
        <ele>1448.8</ele>
        <time>2015-06-21T07:13:14Z</time>
      </trkpt>
      <trkpt lat="41.9696" lon="9.2245">
        <ele>1450</ele>
        <time>2015-06-21T07:13:24Z</time>
      </trkpt>
      <trkpt lat="41.96962" lon="9.2245">
        <ele>1451</ele>
        <time>2015-06-21T07:13:32Z</time>
      </trkpt>
      <trkpt lat="41.96964" lon="9.2245">
        <ele>1452</ele>
        <time>2015-06-21T07:13:41Z</time>
      </trkpt>
      <trkpt lat="41.96968" lon="9.2245">
        <ele>1453.2</ele>
        <time>2015-06-21T07:13:50Z</time>
      </trkpt>
      <trkpt lat="41.96971" lon="9.22451">
        <ele>1454.2</ele>
        <time>2015-06-21T07:13:58Z</time>
      </trkpt>
      <trkpt lat="41.96974" lon="9.22452">
        <ele>1455.2</ele>
        <time>2015-06-21T07:14:07Z</time>
      </trkpt>
      <trkpt lat="41.96978" lon="9.22452">
        <ele>1456.2</ele>
        <time>2015-06-21T07:14:15Z</time>
      </trkpt>
      <trkpt lat="41.96984" lon="9.22453">
        <ele>1457.6</ele>
        <time>2015-06-21T07:14:25Z</time>
      </trkpt>
      <trkpt lat="41.96989" lon="9.22456">
        <ele>1458.2</ele>
        <time>2015-06-21T07:14:35Z</time>
      </trkpt>
      <trkpt lat="41.96992" lon="9.22459">
        <ele>1459.4</ele>
        <time>2015-06-21T07:14:43Z</time>
      </trkpt>
      <trkpt lat="41.96996" lon="9.22461">
        <ele>1460.4</ele>
        <time>2015-06-21T07:14:53Z</time>
      </trkpt>
      <trkpt lat="41.96999" lon="9.22463">
        <ele>1461.4</ele>
        <time>2015-06-21T07:15:00Z</time>
      </trkpt>
      <trkpt lat="41.97006" lon="9.22466">
        <ele>1463</ele>
        <time>2015-06-21T07:15:18Z</time>
      </trkpt>
      <trkpt lat="41.97015" lon="9.22469">
        <ele>1463.8</ele>
        <time>2015-06-21T07:15:31Z</time>
      </trkpt>
      <trkpt lat="41.97025" lon="9.22469">
        <ele>1465</ele>
        <time>2015-06-21T07:15:45Z</time>
      </trkpt>
      <trkpt lat="41.97032" lon="9.22471">
        <ele>1465.8</ele>
        <time>2015-06-21T07:15:54Z</time>
      </trkpt>
      <trkpt lat="41.97039" lon="9.22472">
        <ele>1467</ele>
        <time>2015-06-21T07:16:06Z</time>
      </trkpt>
      <trkpt lat="41.97044" lon="9.22474">
        <ele>1468.2</ele>
        <time>2015-06-21T07:16:15Z</time>
      </trkpt>
      <trkpt lat="41.97048" lon="9.22475">
        <ele>1469.2</ele>
        <time>2015-06-21T07:16:25Z</time>
      </trkpt>
      <trkpt lat="41.97053" lon="9.22476">
        <ele>1470</ele>
        <time>2015-06-21T07:16:34Z</time>
      </trkpt>
      <trkpt lat="41.97061" lon="9.22476">
        <ele>1471.4</ele>
        <time>2015-06-21T07:16:47Z</time>
      </trkpt>
      <trkpt lat="41.97065" lon="9.22476">
        <ele>1472.2</ele>
        <time>2015-06-21T07:16:54Z</time>
      </trkpt>
      <trkpt lat="41.9707" lon="9.22474">
        <ele>1473.2</ele>
        <time>2015-06-21T07:17:02Z</time>
      </trkpt>
      <trkpt lat="41.97074" lon="9.22474">
        <ele>1474.2</ele>
        <time>2015-06-21T07:17:11Z</time>
      </trkpt>
      <trkpt lat="41.9708" lon="9.22472">
        <ele>1475.8</ele>
        <time>2015-06-21T07:17:21Z</time>
      </trkpt>
      <trkpt lat="41.97084" lon="9.22471">
        <ele>1476.8</ele>
        <time>2015-06-21T07:17:30Z</time>
      </trkpt>
      <trkpt lat="41.97087" lon="9.22471">
        <ele>1477.2</ele>
        <time>2015-06-21T07:17:37Z</time>
      </trkpt>
      <trkpt lat="41.97092" lon="9.22471">
        <ele>1478.8</ele>
        <time>2015-06-21T07:17:46Z</time>
      </trkpt>
      <trkpt lat="41.97098" lon="9.22468">
        <ele>1480.2</ele>
        <time>2015-06-21T07:17:57Z</time>
      </trkpt>
      <trkpt lat="41.97103" lon="9.22467">
        <ele>1480.8</ele>
        <time>2015-06-21T07:18:05Z</time>
      </trkpt>
      <trkpt lat="41.97104" lon="9.22466">
        <ele>1481.2</ele>
        <time>2015-06-21T07:18:09Z</time>
      </trkpt>
      <trkpt lat="41.97111" lon="9.22463">
        <ele>1482.2</ele>
        <time>2015-06-21T07:18:19Z</time>
      </trkpt>
      <trkpt lat="41.97113" lon="9.22463">
        <ele>1482.2</ele>
        <time>2015-06-21T07:18:21Z</time>
      </trkpt>
      <trkpt lat="41.97119" lon="9.22464">
        <ele>1483.2</ele>
        <time>2015-06-21T07:18:32Z</time>
      </trkpt>
      <trkpt lat="41.97123" lon="9.22464">
        <ele>1483.8</ele>
        <time>2015-06-21T07:18:40Z</time>
      </trkpt>
      <trkpt lat="41.97144" lon="9.22456">
        <ele>1485.2</ele>
        <time>2015-06-21T07:19:09Z</time>
      </trkpt>
      <trkpt lat="41.97153" lon="9.22454">
        <ele>1486.2</ele>
        <time>2015-06-21T07:19:23Z</time>
      </trkpt>
      <trkpt lat="41.9716" lon="9.22449">
        <ele>1487</ele>
        <time>2015-06-21T07:19:34Z</time>
      </trkpt>
      <trkpt lat="41.97165" lon="9.22447">
        <ele>1487.8</ele>
        <time>2015-06-21T07:19:47Z</time>
      </trkpt>
      <trkpt lat="41.97171" lon="9.22444">
        <ele>1489</ele>
        <time>2015-06-21T07:20:03Z</time>
      </trkpt>
      <trkpt lat="41.97176" lon="9.2244">
        <ele>1490.2</ele>
        <time>2015-06-21T07:20:14Z</time>
      </trkpt>
      <trkpt lat="41.97181" lon="9.22438">
        <ele>1490.8</ele>
        <time>2015-06-21T07:20:23Z</time>
      </trkpt>
      <trkpt lat="41.97184" lon="9.22435">
        <ele>1491.8</ele>
        <time>2015-06-21T07:20:30Z</time>
      </trkpt>
      <trkpt lat="41.9719" lon="9.22432">
        <ele>1493</ele>
        <time>2015-06-21T07:20:40Z</time>
      </trkpt>
      <trkpt lat="41.97197" lon="9.22425">
        <ele>1494.2</ele>
        <time>2015-06-21T07:20:51Z</time>
      </trkpt>
      <trkpt lat="41.97203" lon="9.22421">
        <ele>1495.2</ele>
        <time>2015-06-21T07:21:02Z</time>
      </trkpt>
      <trkpt lat="41.97211" lon="9.22413">
        <ele>1496.4</ele>
        <time>2015-06-21T07:21:16Z</time>
      </trkpt>
      <trkpt lat="41.97217" lon="9.22411">
        <ele>1497.2</ele>
        <time>2015-06-21T07:21:25Z</time>
      </trkpt>
      <trkpt lat="41.97223" lon="9.22408">
        <ele>1498.2</ele>
        <time>2015-06-21T07:21:34Z</time>
      </trkpt>
      <trkpt lat="41.97228" lon="9.22402">
        <ele>1499.4</ele>
        <time>2015-06-21T07:21:45Z</time>
      </trkpt>
      <trkpt lat="41.97234" lon="9.22401">
        <ele>1500.2</ele>
        <time>2015-06-21T07:21:54Z</time>
      </trkpt>
      <trkpt lat="41.9724" lon="9.22397">
        <ele>1501.6</ele>
        <time>2015-06-21T07:22:04Z</time>
      </trkpt>
      <trkpt lat="41.97244" lon="9.22393">
        <ele>1502.2</ele>
        <time>2015-06-21T07:22:11Z</time>
      </trkpt>
      <trkpt lat="41.97249" lon="9.2239">
        <ele>1503.6</ele>
        <time>2015-06-21T07:22:21Z</time>
      </trkpt>
      <trkpt lat="41.97254" lon="9.22385">
        <ele>1504.6</ele>
        <time>2015-06-21T07:22:30Z</time>
      </trkpt>
      <trkpt lat="41.97258" lon="9.2238">
        <ele>1505.8</ele>
        <time>2015-06-21T07:22:40Z</time>
      </trkpt>
      <trkpt lat="41.97264" lon="9.22375">
        <ele>1506.8</ele>
        <time>2015-06-21T07:22:50Z</time>
      </trkpt>
      <trkpt lat="41.97268" lon="9.22369">
        <ele>1508</ele>
        <time>2015-06-21T07:23:00Z</time>
      </trkpt>
      <trkpt lat="41.97272" lon="9.22367">
        <ele>1508.6</ele>
        <time>2015-06-21T07:23:07Z</time>
      </trkpt>
      <trkpt lat="41.97276" lon="9.22363">
        <ele>1510.2</ele>
        <time>2015-06-21T07:23:17Z</time>
      </trkpt>
      <trkpt lat="41.9728" lon="9.2236">
        <ele>1511</ele>
        <time>2015-06-21T07:23:25Z</time>
      </trkpt>
      <trkpt lat="41.97284" lon="9.22358">
        <ele>1512</ele>
        <time>2015-06-21T07:23:32Z</time>
      </trkpt>
      <trkpt lat="41.97288" lon="9.22356">
        <ele>1513.2</ele>
        <time>2015-06-21T07:23:40Z</time>
      </trkpt>
      <trkpt lat="41.97294" lon="9.22351">
        <ele>1514.4</ele>
        <time>2015-06-21T07:23:50Z</time>
      </trkpt>
      <trkpt lat="41.97299" lon="9.22345">
        <ele>1515.4</ele>
        <time>2015-06-21T07:24:00Z</time>
      </trkpt>
      <trkpt lat="41.97316" lon="9.22333">
        <ele>1516.4</ele>
        <time>2015-06-21T07:24:35Z</time>
      </trkpt>
      <trkpt lat="41.97325" lon="9.22323">
        <ele>1516.8</ele>
        <time>2015-06-21T07:25:45Z</time>
      </trkpt>
      <trkpt lat="41.97329" lon="9.22324">
        <ele>1516</ele>
        <time>2015-06-21T07:25:50Z</time>
      </trkpt>
      <trkpt lat="41.97334" lon="9.22325">
        <ele>1514.8</ele>
        <time>2015-06-21T07:25:55Z</time>
      </trkpt>
      <trkpt lat="41.97333" lon="9.22326">
        <ele>1514.2</ele>
        <time>2015-06-21T07:25:57Z</time>
      </trkpt>
      <trkpt lat="41.97335" lon="9.2233">
        <ele>1512.8</ele>
        <time>2015-06-21T07:26:04Z</time>
      </trkpt>
      <trkpt lat="41.9734" lon="9.2233">
        <ele>1512</ele>
        <time>2015-06-21T07:26:11Z</time>
      </trkpt>
      <trkpt lat="41.97345" lon="9.22327">
        <ele>1511</ele>
        <time>2015-06-21T07:26:17Z</time>
      </trkpt>
      <trkpt lat="41.97351" lon="9.22322">
        <ele>1509.6</ele>
        <time>2015-06-21T07:26:26Z</time>
      </trkpt>
      <trkpt lat="41.97356" lon="9.22318">
        <ele>1508.4</ele>
        <time>2015-06-21T07:26:38Z</time>
      </trkpt>
      <trkpt lat="41.97359" lon="9.22317">
        <ele>1507.8</ele>
        <time>2015-06-21T07:26:43Z</time>
      </trkpt>
      <trkpt lat="41.9736" lon="9.22316">
        <ele>1507.4</ele>
        <time>2015-06-21T07:26:45Z</time>
      </trkpt>
      <trkpt lat="41.97365" lon="9.22312">
        <ele>1506</ele>
        <time>2015-06-21T07:27:10Z</time>
      </trkpt>
      <trkpt lat="41.97367" lon="9.2231">
        <ele>1505.6</ele>
        <time>2015-06-21T07:27:15Z</time>
      </trkpt>
      <trkpt lat="41.97372" lon="9.22307">
        <ele>1504.2</ele>
        <time>2015-06-21T07:27:23Z</time>
      </trkpt>
      <trkpt lat="41.97376" lon="9.22304">
        <ele>1503.8</ele>
        <time>2015-06-21T07:27:27Z</time>
      </trkpt>
      <trkpt lat="41.97378" lon="9.22302">
        <ele>1502.6</ele>
        <time>2015-06-21T07:27:32Z</time>
      </trkpt>
      <trkpt lat="41.97381" lon="9.22296">
        <ele>1501.2</ele>
        <time>2015-06-21T07:27:38Z</time>
      </trkpt>
      <trkpt lat="41.97382" lon="9.22295">
        <ele>1501</ele>
        <time>2015-06-21T07:27:39Z</time>
      </trkpt>
      <trkpt lat="41.97383" lon="9.22293">
        <ele>1500.4</ele>
        <time>2015-06-21T07:27:41Z</time>
      </trkpt>
      <trkpt lat="41.97386" lon="9.22288">
        <ele>1500</ele>
        <time>2015-06-21T07:27:49Z</time>
      </trkpt>
      <trkpt lat="41.97395" lon="9.22272">
        <ele>1498.8</ele>
        <time>2015-06-21T07:28:07Z</time>
      </trkpt>
      <trkpt lat="41.97396" lon="9.2227">
        <ele>1498.6</ele>
        <time>2015-06-21T07:28:09Z</time>
      </trkpt>
      <trkpt lat="41.97399" lon="9.22266">
        <ele>1498.6</ele>
        <time>2015-06-21T07:28:13Z</time>
      </trkpt>
      <trkpt lat="41.97407" lon="9.22259">
        <ele>1497.6</ele>
        <time>2015-06-21T07:28:21Z</time>
      </trkpt>
      <trkpt lat="41.97414" lon="9.22256">
        <ele>1496.8</ele>
        <time>2015-06-21T07:28:27Z</time>
      </trkpt>
      <trkpt lat="41.9742" lon="9.22252">
        <ele>1495.6</ele>
        <time>2015-06-21T07:28:33Z</time>
      </trkpt>
      <trkpt lat="41.97431" lon="9.22239">
        <ele>1493.8</ele>
        <time>2015-06-21T07:28:55Z</time>
      </trkpt>
      <trkpt lat="41.97445" lon="9.22232">
        <ele>1492.8</ele>
        <time>2015-06-21T07:29:14Z</time>
      </trkpt>
      <trkpt lat="41.9745" lon="9.22233">
        <ele>1492.2</ele>
        <time>2015-06-21T07:29:21Z</time>
      </trkpt>
      <trkpt lat="41.97453" lon="9.22233">
        <ele>1491.6</ele>
        <time>2015-06-21T07:29:26Z</time>
      </trkpt>
      <trkpt lat="41.97456" lon="9.22235">
        <ele>1489.8</ele>
        <time>2015-06-21T07:29:34Z</time>
      </trkpt>
      <trkpt lat="41.97458" lon="9.22234">
        <ele>1489.4</ele>
        <time>2015-06-21T07:29:38Z</time>
      </trkpt>
      <trkpt lat="41.97475" lon="9.22228">
        <ele>1487.2</ele>
        <time>2015-06-21T07:29:59Z</time>
      </trkpt>
      <trkpt lat="41.97482" lon="9.22226">
        <ele>1486.6</ele>
        <time>2015-06-21T07:30:06Z</time>
      </trkpt>
      <trkpt lat="41.97511" lon="9.22212">
        <ele>1486.2</ele>
        <time>2015-06-21T07:30:36Z</time>
      </trkpt>
      <trkpt lat="41.9752" lon="9.22213">
        <ele>1486.2</ele>
        <time>2015-06-21T07:30:46Z</time>
      </trkpt>
      <trkpt lat="41.97524" lon="9.22211">
        <ele>1485.8</ele>
        <time>2015-06-21T07:30:51Z</time>
      </trkpt>
      <trkpt lat="41.97526" lon="9.22211">
        <ele>1485.8</ele>
        <time>2015-06-21T07:30:53Z</time>
      </trkpt>
      <trkpt lat="41.9753" lon="9.22212">
        <ele>1484.8</ele>
        <time>2015-06-21T07:31:00Z</time>
      </trkpt>
      <trkpt lat="41.97539" lon="9.22211">
        <ele>1483.8</ele>
        <time>2015-06-21T07:31:10Z</time>
      </trkpt>
      <trkpt lat="41.97555" lon="9.22202">
        <ele>1484</ele>
        <time>2015-06-21T07:31:28Z</time>
      </trkpt>
      <trkpt lat="41.97579" lon="9.22189">
        <ele>1485</ele>
        <time>2015-06-21T07:31:55Z</time>
      </trkpt>
      <trkpt lat="41.97583" lon="9.22187">
        <ele>1485</ele>
        <time>2015-06-21T07:31:59Z</time>
      </trkpt>
      <trkpt lat="41.9759" lon="9.22185">
        <ele>1484.8</ele>
        <time>2015-06-21T07:32:07Z</time>
      </trkpt>
      <trkpt lat="41.97602" lon="9.22182">
        <ele>1484</ele>
        <time>2015-06-21T07:32:21Z</time>
      </trkpt>
      <trkpt lat="41.97622" lon="9.22176">
        <ele>1483.4</ele>
        <time>2015-06-21T07:32:40Z</time>
      </trkpt>
      <trkpt lat="41.97633" lon="9.22171">
        <ele>1483</ele>
        <time>2015-06-21T07:32:50Z</time>
      </trkpt>
      <trkpt lat="41.97636" lon="9.22169">
        <ele>1483</ele>
        <time>2015-06-21T07:32:53Z</time>
      </trkpt>
      <trkpt lat="41.97638" lon="9.22169">
        <ele>1483</ele>
        <time>2015-06-21T07:32:55Z</time>
      </trkpt>
      <trkpt lat="41.97642" lon="9.22166">
        <ele>1482.8</ele>
        <time>2015-06-21T07:33:00Z</time>
      </trkpt>
      <trkpt lat="41.97673" lon="9.22147">
        <ele>1482.6</ele>
        <time>2015-06-21T07:33:30Z</time>
      </trkpt>
      <trkpt lat="41.97691" lon="9.22135">
        <ele>1482</ele>
        <time>2015-06-21T07:33:49Z</time>
      </trkpt>
      <trkpt lat="41.97693" lon="9.22135">
        <ele>1482</ele>
        <time>2015-06-21T07:33:51Z</time>
      </trkpt>
      <trkpt lat="41.97698" lon="9.22132">
        <ele>1482</ele>
        <time>2015-06-21T07:33:56Z</time>
      </trkpt>
      <trkpt lat="41.97727" lon="9.22115">
        <ele>1482.4</ele>
        <time>2015-06-21T07:34:29Z</time>
      </trkpt>
      <trkpt lat="41.97735" lon="9.22115">
        <ele>1483.8</ele>
        <time>2015-06-21T07:34:38Z</time>
      </trkpt>
      <trkpt lat="41.97736" lon="9.22115">
        <ele>1483.6</ele>
        <time>2015-06-21T07:34:39Z</time>
      </trkpt>
      <trkpt lat="41.97743" lon="9.22116">
        <ele>1484.8</ele>
        <time>2015-06-21T07:34:49Z</time>
      </trkpt>
      <trkpt lat="41.97749" lon="9.22118">
        <ele>1485.6</ele>
        <time>2015-06-21T07:34:57Z</time>
      </trkpt>
      <trkpt lat="41.97753" lon="9.2212">
        <ele>1486.8</ele>
        <time>2015-06-21T07:35:04Z</time>
      </trkpt>
      <trkpt lat="41.97759" lon="9.22123">
        <ele>1488</ele>
        <time>2015-06-21T07:35:13Z</time>
      </trkpt>
      <trkpt lat="41.97763" lon="9.22126">
        <ele>1488.8</ele>
        <time>2015-06-21T07:35:20Z</time>
      </trkpt>
      <trkpt lat="41.97766" lon="9.22131">
        <ele>1489.8</ele>
        <time>2015-06-21T07:35:28Z</time>
      </trkpt>
      <trkpt lat="41.97771" lon="9.22136">
        <ele>1491.2</ele>
        <time>2015-06-21T07:35:36Z</time>
      </trkpt>
      <trkpt lat="41.97775" lon="9.22142">
        <ele>1492.2</ele>
        <time>2015-06-21T07:35:44Z</time>
      </trkpt>
      <trkpt lat="41.97779" lon="9.22146">
        <ele>1493.2</ele>
        <time>2015-06-21T07:35:51Z</time>
      </trkpt>
      <trkpt lat="41.97783" lon="9.2215">
        <ele>1494</ele>
        <time>2015-06-21T07:35:57Z</time>
      </trkpt>
      <trkpt lat="41.97787" lon="9.22155">
        <ele>1495.2</ele>
        <time>2015-06-21T07:36:04Z</time>
      </trkpt>
      <trkpt lat="41.9779" lon="9.22157">
        <ele>1496.6</ele>
        <time>2015-06-21T07:36:12Z</time>
      </trkpt>
      <trkpt lat="41.97794" lon="9.2216">
        <ele>1497.4</ele>
        <time>2015-06-21T07:36:18Z</time>
      </trkpt>
      <trkpt lat="41.97797" lon="9.22163">
        <ele>1498.8</ele>
        <time>2015-06-21T07:36:28Z</time>
      </trkpt>
      <trkpt lat="41.97804" lon="9.22164">
        <ele>1499.8</ele>
        <time>2015-06-21T07:36:37Z</time>
      </trkpt>
      <trkpt lat="41.97809" lon="9.22163">
        <ele>1500.8</ele>
        <time>2015-06-21T07:36:44Z</time>
      </trkpt>
      <trkpt lat="41.97819" lon="9.2216">
        <ele>1502.4</ele>
        <time>2015-06-21T07:36:57Z</time>
      </trkpt>
      <trkpt lat="41.97833" lon="9.22155">
        <ele>1502.8</ele>
        <time>2015-06-21T07:37:11Z</time>
      </trkpt>
      <trkpt lat="41.97876" lon="9.22134">
        <ele>1502.2</ele>
        <time>2015-06-21T07:37:56Z</time>
      </trkpt>
      <trkpt lat="41.97886" lon="9.22129">
        <ele>1501.8</ele>
        <time>2015-06-21T07:38:09Z</time>
      </trkpt>
      <trkpt lat="41.97925" lon="9.22116">
        <ele>1502</ele>
        <time>2015-06-21T07:38:58Z</time>
      </trkpt>
      <trkpt lat="41.97927" lon="9.22116">
        <ele>1501.8</ele>
        <time>2015-06-21T07:39:01Z</time>
      </trkpt>
      <trkpt lat="41.97937" lon="9.22118">
        <ele>1503.4</ele>
        <time>2015-06-21T07:39:13Z</time>
      </trkpt>
      <trkpt lat="41.97941" lon="9.2212">
        <ele>1503.8</ele>
        <time>2015-06-21T07:39:19Z</time>
      </trkpt>
      <trkpt lat="41.97954" lon="9.22122">
        <ele>1504.8</ele>
        <time>2015-06-21T07:39:32Z</time>
      </trkpt>
      <trkpt lat="41.97963" lon="9.22123">
        <ele>1505.2</ele>
        <time>2015-06-21T07:39:42Z</time>
      </trkpt>
      <trkpt lat="41.97971" lon="9.22125">
        <ele>1506.2</ele>
        <time>2015-06-21T07:39:54Z</time>
      </trkpt>
      <trkpt lat="41.97976" lon="9.22126">
        <ele>1506.8</ele>
        <time>2015-06-21T07:40:00Z</time>
      </trkpt>
      <trkpt lat="41.97981" lon="9.22128">
        <ele>1508.2</ele>
        <time>2015-06-21T07:40:08Z</time>
      </trkpt>
      <trkpt lat="41.97985" lon="9.22132">
        <ele>1509</ele>
        <time>2015-06-21T07:40:17Z</time>
      </trkpt>
      <trkpt lat="41.97989" lon="9.22132">
        <ele>1510.4</ele>
        <time>2015-06-21T07:40:25Z</time>
      </trkpt>
      <trkpt lat="41.97999" lon="9.22128">
        <ele>1511.8</ele>
        <time>2015-06-21T07:40:39Z</time>
      </trkpt>
      <trkpt lat="41.98001" lon="9.22131">
        <ele>1512.2</ele>
        <time>2015-06-21T07:40:46Z</time>
      </trkpt>
      <trkpt lat="41.98003" lon="9.22133">
        <ele>1513.2</ele>
        <time>2015-06-21T07:40:52Z</time>
      </trkpt>
      <trkpt lat="41.98007" lon="9.22134">
        <ele>1514.6</ele>
        <time>2015-06-21T07:41:02Z</time>
      </trkpt>
      <trkpt lat="41.98014" lon="9.22136">
        <ele>1515.8</ele>
        <time>2015-06-21T07:41:15Z</time>
      </trkpt>
      <trkpt lat="41.98019" lon="9.22142">
        <ele>1516.8</ele>
        <time>2015-06-21T07:41:26Z</time>
      </trkpt>
      <trkpt lat="41.98026" lon="9.22146">
        <ele>1517.8</ele>
        <time>2015-06-21T07:41:38Z</time>
      </trkpt>
      <trkpt lat="41.9803" lon="9.2215">
        <ele>1518.8</ele>
        <time>2015-06-21T07:41:45Z</time>
      </trkpt>
      <trkpt lat="41.98035" lon="9.22152">
        <ele>1519.8</ele>
        <time>2015-06-21T07:41:52Z</time>
      </trkpt>
      <trkpt lat="41.9804" lon="9.22151">
        <ele>1521.2</ele>
        <time>2015-06-21T07:42:01Z</time>
      </trkpt>
      <trkpt lat="41.98042" lon="9.22153">
        <ele>1522.2</ele>
        <time>2015-06-21T07:42:09Z</time>
      </trkpt>
      <trkpt lat="41.98044" lon="9.22155">
        <ele>1523.2</ele>
        <time>2015-06-21T07:42:16Z</time>
      </trkpt>
      <trkpt lat="41.98047" lon="9.22154">
        <ele>1524.6</ele>
        <time>2015-06-21T07:42:26Z</time>
      </trkpt>
      <trkpt lat="41.9805" lon="9.22156">
        <ele>1525.6</ele>
        <time>2015-06-21T07:42:34Z</time>
      </trkpt>
      <trkpt lat="41.98052" lon="9.22157">
        <ele>1526.2</ele>
        <time>2015-06-21T07:42:41Z</time>
      </trkpt>
      <trkpt lat="41.98055" lon="9.22155">
        <ele>1527.4</ele>
        <time>2015-06-21T07:42:51Z</time>
      </trkpt>
      <trkpt lat="41.98059" lon="9.22153">
        <ele>1528.4</ele>
        <time>2015-06-21T07:42:59Z</time>
      </trkpt>
      <trkpt lat="41.98063" lon="9.22154">
        <ele>1529.8</ele>
        <time>2015-06-21T07:43:09Z</time>
      </trkpt>
      <trkpt lat="41.98067" lon="9.22154">
        <ele>1530.6</ele>
        <time>2015-06-21T07:43:20Z</time>
      </trkpt>
      <trkpt lat="41.98072" lon="9.2215">
        <ele>1532.2</ele>
        <time>2015-06-21T07:43:32Z</time>
      </trkpt>
      <trkpt lat="41.98074" lon="9.22147">
        <ele>1532.6</ele>
        <time>2015-06-21T07:43:39Z</time>
      </trkpt>
      <trkpt lat="41.98078" lon="9.22149">
        <ele>1534.2</ele>
        <time>2015-06-21T07:43:52Z</time>
      </trkpt>
      <trkpt lat="41.98081" lon="9.22149">
        <ele>1535.4</ele>
        <time>2015-06-21T07:44:02Z</time>
      </trkpt>
      <trkpt lat="41.98085" lon="9.22148">
        <ele>1536.6</ele>
        <time>2015-06-21T07:44:12Z</time>
      </trkpt>
      <trkpt lat="41.98088" lon="9.22147">
        <ele>1537.4</ele>
        <time>2015-06-21T07:44:20Z</time>
      </trkpt>
      <trkpt lat="41.9809" lon="9.22145">
        <ele>1538.4</ele>
        <time>2015-06-21T07:44:27Z</time>
      </trkpt>
      <trkpt lat="41.98093" lon="9.22145">
        <ele>1539.6</ele>
        <time>2015-06-21T07:44:38Z</time>
      </trkpt>
      <trkpt lat="41.98095" lon="9.22144">
        <ele>1540.8</ele>
        <time>2015-06-21T07:44:48Z</time>
      </trkpt>
      <trkpt lat="41.98097" lon="9.22145">
        <ele>1542</ele>
        <time>2015-06-21T07:44:56Z</time>
      </trkpt>
      <trkpt lat="41.98099" lon="9.22144">
        <ele>1543</ele>
        <time>2015-06-21T07:45:04Z</time>
      </trkpt>
      <trkpt lat="41.98101" lon="9.22143">
        <ele>1544</ele>
        <time>2015-06-21T07:45:12Z</time>
      </trkpt>
      <trkpt lat="41.98106" lon="9.2213">
        <ele>1545.6</ele>
        <time>2015-06-21T07:45:51Z</time>
      </trkpt>
      <trkpt lat="41.9811" lon="9.22119">
        <ele>1546.8</ele>
        <time>2015-06-21T07:46:13Z</time>
      </trkpt>
      <trkpt lat="41.98113" lon="9.22116">
        <ele>1547.6</ele>
        <time>2015-06-21T07:46:24Z</time>
      </trkpt>
      <trkpt lat="41.98115" lon="9.22113">
        <ele>1548.2</ele>
        <time>2015-06-21T07:46:30Z</time>
      </trkpt>
      <trkpt lat="41.98118" lon="9.22111">
        <ele>1549.6</ele>
        <time>2015-06-21T07:46:40Z</time>
      </trkpt>
      <trkpt lat="41.98118" lon="9.22108">
        <ele>1550.6</ele>
        <time>2015-06-21T07:46:48Z</time>
      </trkpt>
      <trkpt lat="41.98121" lon="9.22104">
        <ele>1551.6</ele>
        <time>2015-06-21T07:46:57Z</time>
      </trkpt>
      <trkpt lat="41.98123" lon="9.221">
        <ele>1552.8</ele>
        <time>2015-06-21T07:47:06Z</time>
      </trkpt>
      <trkpt lat="41.98126" lon="9.22098">
        <ele>1553.8</ele>
        <time>2015-06-21T07:47:13Z</time>
      </trkpt>
      <trkpt lat="41.98129" lon="9.22094">
        <ele>1555</ele>
        <time>2015-06-21T07:47:20Z</time>
      </trkpt>
      <trkpt lat="41.98131" lon="9.2209">
        <ele>1556.2</ele>
        <time>2015-06-21T07:47:30Z</time>
      </trkpt>
      <trkpt lat="41.98135" lon="9.22081">
        <ele>1557.4</ele>
        <time>2015-06-21T07:47:45Z</time>
      </trkpt>
      <trkpt lat="41.98139" lon="9.22076">
        <ele>1558.6</ele>
        <time>2015-06-21T07:48:06Z</time>
      </trkpt>
      <trkpt lat="41.98141" lon="9.22076">
        <ele>1559.4</ele>
        <time>2015-06-21T07:48:15Z</time>
      </trkpt>
      <trkpt lat="41.98143" lon="9.22074">
        <ele>1560.8</ele>
        <time>2015-06-21T07:48:24Z</time>
      </trkpt>
      <trkpt lat="41.98143" lon="9.22072">
        <ele>1561.2</ele>
        <time>2015-06-21T07:48:30Z</time>
      </trkpt>
      <trkpt lat="41.98148" lon="9.22066">
        <ele>1563</ele>
        <time>2015-06-21T07:48:43Z</time>
      </trkpt>
      <trkpt lat="41.9815" lon="9.22064">
        <ele>1564</ele>
        <time>2015-06-21T07:48:54Z</time>
      </trkpt>
      <trkpt lat="41.98154" lon="9.22058">
        <ele>1565</ele>
        <time>2015-06-21T07:49:08Z</time>
      </trkpt>
      <trkpt lat="41.98154" lon="9.22057">
        <ele>1565.4</ele>
        <time>2015-06-21T07:49:14Z</time>
      </trkpt>
      <trkpt lat="41.98156" lon="9.22053">
        <ele>1567</ele>
        <time>2015-06-21T07:49:23Z</time>
      </trkpt>
      <trkpt lat="41.98161" lon="9.22046">
        <ele>1568.6</ele>
        <time>2015-06-21T07:49:44Z</time>
      </trkpt>
      <trkpt lat="41.9816" lon="9.22048">
        <ele>1569.4</ele>
        <time>2015-06-21T07:50:04Z</time>
      </trkpt>
      <trkpt lat="41.98161" lon="9.22049">
        <ele>1570.4</ele>
        <time>2015-06-21T07:50:13Z</time>
      </trkpt>
      <trkpt lat="41.98161" lon="9.22049">
        <ele>1570.2</ele>
        <time>2015-06-21T07:50:14Z</time>
      </trkpt>
      <trkpt lat="41.98167" lon="9.22047">
        <ele>1571.2</ele>
        <time>2015-06-21T07:50:31Z</time>
      </trkpt>
      <trkpt lat="41.98172" lon="9.22049">
        <ele>1572.2</ele>
        <time>2015-06-21T07:50:42Z</time>
      </trkpt>
      <trkpt lat="41.98178" lon="9.22046">
        <ele>1573.6</ele>
        <time>2015-06-21T07:50:55Z</time>
      </trkpt>
      <trkpt lat="41.98181" lon="9.22044">
        <ele>1574.8</ele>
        <time>2015-06-21T07:51:04Z</time>
      </trkpt>
      <trkpt lat="41.98185" lon="9.22043">
        <ele>1575.4</ele>
        <time>2015-06-21T07:51:11Z</time>
      </trkpt>
      <trkpt lat="41.9819" lon="9.22043">
        <ele>1576.6</ele>
        <time>2015-06-21T07:51:23Z</time>
      </trkpt>
      <trkpt lat="41.98195" lon="9.22042">
        <ele>1578</ele>
        <time>2015-06-21T07:51:33Z</time>
      </trkpt>
      <trkpt lat="41.98203" lon="9.22035">
        <ele>1578.2</ele>
        <time>2015-06-21T07:51:59Z</time>
      </trkpt>
      <trkpt lat="41.98208" lon="9.22029">
        <ele>1577</ele>
        <time>2015-06-21T07:52:22Z</time>
      </trkpt>
      <trkpt lat="41.98207" lon="9.22024">
        <ele>1576.6</ele>
        <time>2015-06-21T07:52:29Z</time>
      </trkpt>
      <trkpt lat="41.98206" lon="9.22019">
        <ele>1575.4</ele>
        <time>2015-06-21T07:52:35Z</time>
      </trkpt>
      <trkpt lat="41.98207" lon="9.22017">
        <ele>1574</ele>
        <time>2015-06-21T07:52:44Z</time>
      </trkpt>
      <trkpt lat="41.98209" lon="9.22014">
        <ele>1573.2</ele>
        <time>2015-06-21T07:52:51Z</time>
      </trkpt>
      <trkpt lat="41.98209" lon="9.22009">
        <ele>1572.4</ele>
        <time>2015-06-21T07:52:56Z</time>
      </trkpt>
      <trkpt lat="41.98213" lon="9.22007">
        <ele>1570.6</ele>
        <time>2015-06-21T07:53:05Z</time>
      </trkpt>
      <trkpt lat="41.98216" lon="9.22007">
        <ele>1569.8</ele>
        <time>2015-06-21T07:53:12Z</time>
      </trkpt>
      <trkpt lat="41.98219" lon="9.22001">
        <ele>1568.4</ele>
        <time>2015-06-21T07:53:32Z</time>
      </trkpt>
      <trkpt lat="41.98225" lon="9.21996">
        <ele>1567.6</ele>
        <time>2015-06-21T07:53:44Z</time>
      </trkpt>
      <trkpt lat="41.9823" lon="9.2199">
        <ele>1566.2</ele>
        <time>2015-06-21T07:53:54Z</time>
      </trkpt>
      <trkpt lat="41.98233" lon="9.21982">
        <ele>1564.8</ele>
        <time>2015-06-21T07:54:07Z</time>
      </trkpt>
      <trkpt lat="41.98233" lon="9.21976">
        <ele>1563.6</ele>
        <time>2015-06-21T07:54:21Z</time>
      </trkpt>
      <trkpt lat="41.98235" lon="9.21966">
        <ele>1562.8</ele>
        <time>2015-06-21T07:54:36Z</time>
      </trkpt>
      <trkpt lat="41.98238" lon="9.21962">
        <ele>1562.8</ele>
        <time>2015-06-21T07:55:03Z</time>
      </trkpt>
      <trkpt lat="41.98242" lon="9.21957">
        <ele>1564.2</ele>
        <time>2015-06-21T07:55:22Z</time>
      </trkpt>
      <trkpt lat="41.98243" lon="9.21954">
        <ele>1565</ele>
        <time>2015-06-21T07:55:30Z</time>
      </trkpt>
      <trkpt lat="41.98247" lon="9.21951">
        <ele>1566</ele>
        <time>2015-06-21T07:55:41Z</time>
      </trkpt>
      <trkpt lat="41.98251" lon="9.21945">
        <ele>1567.2</ele>
        <time>2015-06-21T07:55:51Z</time>
      </trkpt>
      <trkpt lat="41.98252" lon="9.21943">
        <ele>1568.2</ele>
        <time>2015-06-21T07:55:59Z</time>
      </trkpt>
      <trkpt lat="41.98255" lon="9.21938">
        <ele>1569.4</ele>
        <time>2015-06-21T07:56:21Z</time>
      </trkpt>
      <trkpt lat="41.98255" lon="9.21939">
        <ele>1570.8</ele>
        <time>2015-06-21T07:56:30Z</time>
      </trkpt>
      <trkpt lat="41.98257" lon="9.21942">
        <ele>1571.6</ele>
        <time>2015-06-21T07:56:39Z</time>
      </trkpt>
      <trkpt lat="41.98259" lon="9.21944">
        <ele>1572.6</ele>
        <time>2015-06-21T07:56:47Z</time>
      </trkpt>
      <trkpt lat="41.9826" lon="9.21943">
        <ele>1574.2</ele>
        <time>2015-06-21T07:57:00Z</time>
      </trkpt>
      <trkpt lat="41.9826" lon="9.21944">
        <ele>1574.8</ele>
        <time>2015-06-21T07:57:07Z</time>
      </trkpt>
      <trkpt lat="41.98262" lon="9.21941">
        <ele>1575.8</ele>
        <time>2015-06-21T07:57:15Z</time>
      </trkpt>
      <trkpt lat="41.98264" lon="9.21939">
        <ele>1577.4</ele>
        <time>2015-06-21T07:57:27Z</time>
      </trkpt>
      <trkpt lat="41.98265" lon="9.21941">
        <ele>1578.4</ele>
        <time>2015-06-21T07:57:37Z</time>
      </trkpt>
      <trkpt lat="41.98267" lon="9.21941">
        <ele>1579.4</ele>
        <time>2015-06-21T07:57:50Z</time>
      </trkpt>
      <trkpt lat="41.98276" lon="9.2194">
        <ele>1580</ele>
        <time>2015-06-21T07:58:32Z</time>
      </trkpt>
      <trkpt lat="41.98278" lon="9.21938">
        <ele>1579.4</ele>
        <time>2015-06-21T07:58:38Z</time>
      </trkpt>
      <trkpt lat="41.9828" lon="9.2194">
        <ele>1578.2</ele>
        <time>2015-06-21T07:58:45Z</time>
      </trkpt>
      <trkpt lat="41.98283" lon="9.2194">
        <ele>1577.2</ele>
        <time>2015-06-21T07:58:52Z</time>
      </trkpt>
      <trkpt lat="41.98287" lon="9.21942">
        <ele>1576</ele>
        <time>2015-06-21T07:58:58Z</time>
      </trkpt>
      <trkpt lat="41.98292" lon="9.21946">
        <ele>1574.6</ele>
        <time>2015-06-21T07:59:08Z</time>
      </trkpt>
      <trkpt lat="41.98297" lon="9.21952">
        <ele>1573.4</ele>
        <time>2015-06-21T07:59:18Z</time>
      </trkpt>
      <trkpt lat="41.98302" lon="9.21953">
        <ele>1572.4</ele>
        <time>2015-06-21T07:59:31Z</time>
      </trkpt>
      <trkpt lat="41.98306" lon="9.21954">
        <ele>1571.8</ele>
        <time>2015-06-21T07:59:38Z</time>
      </trkpt>
      <trkpt lat="41.98309" lon="9.21955">
        <ele>1570.6</ele>
        <time>2015-06-21T07:59:46Z</time>
      </trkpt>
      <trkpt lat="41.98314" lon="9.21956">
        <ele>1569.4</ele>
        <time>2015-06-21T07:59:53Z</time>
      </trkpt>
      <trkpt lat="41.98318" lon="9.21955">
        <ele>1568.6</ele>
        <time>2015-06-21T07:59:59Z</time>
      </trkpt>
      <trkpt lat="41.98324" lon="9.21957">
        <ele>1566.8</ele>
        <time>2015-06-21T08:00:07Z</time>
      </trkpt>
      <trkpt lat="41.98329" lon="9.21956">
        <ele>1566</ele>
        <time>2015-06-21T08:00:14Z</time>
      </trkpt>
      <trkpt lat="41.98345" lon="9.21957">
        <ele>1564.2</ele>
        <time>2015-06-21T08:00:28Z</time>
      </trkpt>
      <trkpt lat="41.98352" lon="9.21957">
        <ele>1564.2</ele>
        <time>2015-06-21T08:00:37Z</time>
      </trkpt>
      <trkpt lat="41.98355" lon="9.21947">
        <ele>1565.4</ele>
        <time>2015-06-21T08:00:51Z</time>
      </trkpt>
      <trkpt lat="41.98358" lon="9.21946">
        <ele>1566.4</ele>
        <time>2015-06-21T08:01:01Z</time>
      </trkpt>
      <trkpt lat="41.9836" lon="9.21947">
        <ele>1568</ele>
        <time>2015-06-21T08:01:11Z</time>
      </trkpt>
      <trkpt lat="41.98362" lon="9.21946">
        <ele>1568.6</ele>
        <time>2015-06-21T08:01:21Z</time>
      </trkpt>
      <trkpt lat="41.98365" lon="9.21944">
        <ele>1569.8</ele>
        <time>2015-06-21T08:01:30Z</time>
      </trkpt>
      <trkpt lat="41.9837" lon="9.21944">
        <ele>1571.4</ele>
        <time>2015-06-21T08:01:43Z</time>
      </trkpt>
      <trkpt lat="41.98372" lon="9.21942">
        <ele>1572.4</ele>
        <time>2015-06-21T08:01:55Z</time>
      </trkpt>
      <trkpt lat="41.98376" lon="9.21935">
        <ele>1573.2</ele>
        <time>2015-06-21T08:02:23Z</time>
      </trkpt>
      <trkpt lat="41.98382" lon="9.21927">
        <ele>1574.4</ele>
        <time>2015-06-21T08:02:38Z</time>
      </trkpt>
      <trkpt lat="41.98388" lon="9.21925">
        <ele>1575.8</ele>
        <time>2015-06-21T08:03:19Z</time>
      </trkpt>
      <trkpt lat="41.98389" lon="9.21925">
        <ele>1576.8</ele>
        <time>2015-06-21T08:03:31Z</time>
      </trkpt>
      <trkpt lat="41.984" lon="9.21922">
        <ele>1576.6</ele>
        <time>2015-06-21T08:04:07Z</time>
      </trkpt>
      <trkpt lat="41.98403" lon="9.21923">
        <ele>1576</ele>
        <time>2015-06-21T08:04:15Z</time>
      </trkpt>
      <trkpt lat="41.98406" lon="9.21921">
        <ele>1575</ele>
        <time>2015-06-21T08:04:24Z</time>
      </trkpt>
      <trkpt lat="41.98409" lon="9.21923">
        <ele>1574.2</ele>
        <time>2015-06-21T08:04:30Z</time>
      </trkpt>
      <trkpt lat="41.98412" lon="9.21922">
        <ele>1572.6</ele>
        <time>2015-06-21T08:04:40Z</time>
      </trkpt>
      <trkpt lat="41.98419" lon="9.21923">
        <ele>1571.6</ele>
        <time>2015-06-21T08:04:48Z</time>
      </trkpt>
      <trkpt lat="41.98425" lon="9.2192">
        <ele>1570.2</ele>
        <time>2015-06-21T08:05:14Z</time>
      </trkpt>
      <trkpt lat="41.98446" lon="9.21922">
        <ele>1570</ele>
        <time>2015-06-21T08:05:47Z</time>
      </trkpt>
      <trkpt lat="41.98448" lon="9.21921">
        <ele>1571.2</ele>
        <time>2015-06-21T08:05:54Z</time>
      </trkpt>
      <trkpt lat="41.98458" lon="9.21921">
        <ele>1572.6</ele>
        <time>2015-06-21T08:06:51Z</time>
      </trkpt>
      <trkpt lat="41.98467" lon="9.21919">
        <ele>1573.4</ele>
        <time>2015-06-21T08:07:43Z</time>
      </trkpt>
      <trkpt lat="41.98471" lon="9.21921">
        <ele>1574.2</ele>
        <time>2015-06-21T08:07:49Z</time>
      </trkpt>
      <trkpt lat="41.98471" lon="9.21921">
        <ele>1574.4</ele>
        <time>2015-06-21T08:07:51Z</time>
      </trkpt>
      <trkpt lat="41.98475" lon="9.2192">
        <ele>1574.6</ele>
        <time>2015-06-21T08:08:22Z</time>
      </trkpt>
      <trkpt lat="41.98476" lon="9.21919">
        <ele>1573.6</ele>
        <time>2015-06-21T08:08:36Z</time>
      </trkpt>
      <trkpt lat="41.98483" lon="9.21911">
        <ele>1573.4</ele>
        <time>2015-06-21T08:09:09Z</time>
      </trkpt>
      <trkpt lat="41.98493" lon="9.2191">
        <ele>1574.8</ele>
        <time>2015-06-21T08:09:51Z</time>
      </trkpt>
      <trkpt lat="41.98495" lon="9.2191">
        <ele>1575.4</ele>
        <time>2015-06-21T08:09:59Z</time>
      </trkpt>
      <trkpt lat="41.98498" lon="9.2191">
        <ele>1577</ele>
        <time>2015-06-21T08:10:08Z</time>
      </trkpt>
      <trkpt lat="41.985" lon="9.21908">
        <ele>1577.8</ele>
        <time>2015-06-21T08:10:15Z</time>
      </trkpt>
      <trkpt lat="41.98503" lon="9.21905">
        <ele>1579</ele>
        <time>2015-06-21T08:10:22Z</time>
      </trkpt>
      <trkpt lat="41.98506" lon="9.21906">
        <ele>1580.4</ele>
        <time>2015-06-21T08:10:38Z</time>
      </trkpt>
      <trkpt lat="41.98509" lon="9.21908">
        <ele>1581.4</ele>
        <time>2015-06-21T08:10:46Z</time>
      </trkpt>
      <trkpt lat="41.98509" lon="9.21906">
        <ele>1582.2</ele>
        <time>2015-06-21T08:10:54Z</time>
      </trkpt>
      <trkpt lat="41.98509" lon="9.2191">
        <ele>1583.4</ele>
        <time>2015-06-21T08:11:02Z</time>
      </trkpt>
      <trkpt lat="41.98509" lon="9.21912">
        <ele>1584.4</ele>
        <time>2015-06-21T08:11:09Z</time>
      </trkpt>
      <trkpt lat="41.98509" lon="9.21915">
        <ele>1585.6</ele>
        <time>2015-06-21T08:11:18Z</time>
      </trkpt>
      <trkpt lat="41.9851" lon="9.21918">
        <ele>1586.6</ele>
        <time>2015-06-21T08:11:30Z</time>
      </trkpt>
      <trkpt lat="41.98512" lon="9.21921">
        <ele>1587.6</ele>
        <time>2015-06-21T08:11:40Z</time>
      </trkpt>
      <trkpt lat="41.98514" lon="9.21918">
        <ele>1588.8</ele>
        <time>2015-06-21T08:11:50Z</time>
      </trkpt>
      <trkpt lat="41.98516" lon="9.21918">
        <ele>1589.6</ele>
        <time>2015-06-21T08:11:58Z</time>
      </trkpt>
      <trkpt lat="41.98518" lon="9.2192">
        <ele>1590.6</ele>
        <time>2015-06-21T08:12:06Z</time>
      </trkpt>
      <trkpt lat="41.98515" lon="9.21924">
        <ele>1591.4</ele>
        <time>2015-06-21T08:12:14Z</time>
      </trkpt>
      <trkpt lat="41.98514" lon="9.21927">
        <ele>1592.8</ele>
        <time>2015-06-21T08:12:23Z</time>
      </trkpt>
      <trkpt lat="41.98515" lon="9.21929">
        <ele>1593.8</ele>
        <time>2015-06-21T08:12:31Z</time>
      </trkpt>
      <trkpt lat="41.98514" lon="9.21931">
        <ele>1595</ele>
        <time>2015-06-21T08:12:41Z</time>
      </trkpt>
      <trkpt lat="41.98515" lon="9.21933">
        <ele>1595.8</ele>
        <time>2015-06-21T08:12:48Z</time>
      </trkpt>
      <trkpt lat="41.98518" lon="9.21933">
        <ele>1596.8</ele>
        <time>2015-06-21T08:12:56Z</time>
      </trkpt>
      <trkpt lat="41.98518" lon="9.21936">
        <ele>1598.4</ele>
        <time>2015-06-21T08:13:11Z</time>
      </trkpt>
      <trkpt lat="41.98516" lon="9.21939">
        <ele>1599</ele>
        <time>2015-06-21T08:13:19Z</time>
      </trkpt>
      <trkpt lat="41.98519" lon="9.21942">
        <ele>1600.4</ele>
        <time>2015-06-21T08:13:30Z</time>
      </trkpt>
      <trkpt lat="41.9852" lon="9.21943">
        <ele>1601.2</ele>
        <time>2015-06-21T08:13:38Z</time>
      </trkpt>
      <trkpt lat="41.98523" lon="9.21943">
        <ele>1602.4</ele>
        <time>2015-06-21T08:13:46Z</time>
      </trkpt>
      <trkpt lat="41.98524" lon="9.21945">
        <ele>1603.6</ele>
        <time>2015-06-21T08:13:55Z</time>
      </trkpt>
      <trkpt lat="41.98524" lon="9.21947">
        <ele>1604.8</ele>
        <time>2015-06-21T08:14:05Z</time>
      </trkpt>
      <trkpt lat="41.98525" lon="9.21948">
        <ele>1605.4</ele>
        <time>2015-06-21T08:14:13Z</time>
      </trkpt>
      <trkpt lat="41.98526" lon="9.21951">
        <ele>1606.8</ele>
        <time>2015-06-21T08:14:23Z</time>
      </trkpt>
      <trkpt lat="41.98529" lon="9.21953">
        <ele>1608</ele>
        <time>2015-06-21T08:14:33Z</time>
      </trkpt>
      <trkpt lat="41.9853" lon="9.21955">
        <ele>1608.8</ele>
        <time>2015-06-21T08:14:40Z</time>
      </trkpt>
      <trkpt lat="41.9853" lon="9.21958">
        <ele>1609.8</ele>
        <time>2015-06-21T08:14:47Z</time>
      </trkpt>
      <trkpt lat="41.98534" lon="9.21957">
        <ele>1611.2</ele>
        <time>2015-06-21T08:14:56Z</time>
      </trkpt>
      <trkpt lat="41.98538" lon="9.21956">
        <ele>1612.4</ele>
        <time>2015-06-21T08:15:05Z</time>
      </trkpt>
      <trkpt lat="41.98543" lon="9.21954">
        <ele>1613.4</ele>
        <time>2015-06-21T08:15:14Z</time>
      </trkpt>
      <trkpt lat="41.98545" lon="9.21954">
        <ele>1614.6</ele>
        <time>2015-06-21T08:15:22Z</time>
      </trkpt>
      <trkpt lat="41.98547" lon="9.21954">
        <ele>1616</ele>
        <time>2015-06-21T08:15:32Z</time>
      </trkpt>
      <trkpt lat="41.98549" lon="9.21952">
        <ele>1616.6</ele>
        <time>2015-06-21T08:15:40Z</time>
      </trkpt>
      <trkpt lat="41.9855" lon="9.21952">
        <ele>1618</ele>
        <time>2015-06-21T08:15:51Z</time>
      </trkpt>
      <trkpt lat="41.98552" lon="9.21954">
        <ele>1619.2</ele>
        <time>2015-06-21T08:15:59Z</time>
      </trkpt>
      <trkpt lat="41.98555" lon="9.21948">
        <ele>1620</ele>
        <time>2015-06-21T08:16:10Z</time>
      </trkpt>
      <trkpt lat="41.98555" lon="9.21947">
        <ele>1620.2</ele>
        <time>2015-06-21T08:16:12Z</time>
      </trkpt>
      <trkpt lat="41.98556" lon="9.21944">
        <ele>1621.2</ele>
        <time>2015-06-21T08:16:19Z</time>
      </trkpt>
      <trkpt lat="41.98558" lon="9.21931">
        <ele>1622.6</ele>
        <time>2015-06-21T08:16:35Z</time>
      </trkpt>
      <trkpt lat="41.98561" lon="9.21929">
        <ele>1623.2</ele>
        <time>2015-06-21T08:16:44Z</time>
      </trkpt>
      <trkpt lat="41.98562" lon="9.21924">
        <ele>1624.6</ele>
        <time>2015-06-21T08:16:54Z</time>
      </trkpt>
      <trkpt lat="41.98563" lon="9.21917">
        <ele>1625.4</ele>
        <time>2015-06-21T08:17:08Z</time>
      </trkpt>
      <trkpt lat="41.98565" lon="9.21911">
        <ele>1627</ele>
        <time>2015-06-21T08:17:25Z</time>
      </trkpt>
      <trkpt lat="41.98563" lon="9.2191">
        <ele>1628.2</ele>
        <time>2015-06-21T08:17:50Z</time>
      </trkpt>
      <trkpt lat="41.98562" lon="9.21909">
        <ele>1628.6</ele>
        <time>2015-06-21T08:18:00Z</time>
      </trkpt>
      <trkpt lat="41.98565" lon="9.2191">
        <ele>1629.4</ele>
        <time>2015-06-21T08:18:08Z</time>
      </trkpt>
      <trkpt lat="41.98563" lon="9.21912">
        <ele>1630.2</ele>
        <time>2015-06-21T08:18:16Z</time>
      </trkpt>
      <trkpt lat="41.98565" lon="9.21909">
        <ele>1630.8</ele>
        <time>2015-06-21T08:18:29Z</time>
      </trkpt>
      <trkpt lat="41.98566" lon="9.21907">
        <ele>1632</ele>
        <time>2015-06-21T08:18:43Z</time>
      </trkpt>
      <trkpt lat="41.98567" lon="9.21905">
        <ele>1632.8</ele>
        <time>2015-06-21T08:18:50Z</time>
      </trkpt>
      <trkpt lat="41.98574" lon="9.21906">
        <ele>1633.2</ele>
        <time>2015-06-21T08:20:16Z</time>
      </trkpt>
      <trkpt lat="41.98576" lon="9.21901">
        <ele>1632.4</ele>
        <time>2015-06-21T08:20:25Z</time>
      </trkpt>
      <trkpt lat="41.98581" lon="9.21902">
        <ele>1631.4</ele>
        <time>2015-06-21T08:20:32Z</time>
      </trkpt>
      <trkpt lat="41.98593" lon="9.219">
        <ele>1630</ele>
        <time>2015-06-21T08:20:47Z</time>
      </trkpt>
      <trkpt lat="41.98603" lon="9.21904">
        <ele>1629.8</ele>
        <time>2015-06-21T08:21:06Z</time>
      </trkpt>
      <trkpt lat="41.98613" lon="9.21902">
        <ele>1631.4</ele>
        <time>2015-06-21T08:21:22Z</time>
      </trkpt>
      <trkpt lat="41.98616" lon="9.21903">
        <ele>1631.8</ele>
        <time>2015-06-21T08:21:28Z</time>
      </trkpt>
      <trkpt lat="41.98617" lon="9.21904">
        <ele>1633</ele>
        <time>2015-06-21T08:21:34Z</time>
      </trkpt>
      <trkpt lat="41.9862" lon="9.21903">
        <ele>1634.2</ele>
        <time>2015-06-21T08:21:41Z</time>
      </trkpt>
      <trkpt lat="41.98623" lon="9.21901">
        <ele>1635.2</ele>
        <time>2015-06-21T08:21:50Z</time>
      </trkpt>
      <trkpt lat="41.98622" lon="9.21902">
        <ele>1636.6</ele>
        <time>2015-06-21T08:21:59Z</time>
      </trkpt>
      <trkpt lat="41.98624" lon="9.21901">
        <ele>1637.8</ele>
        <time>2015-06-21T08:22:10Z</time>
      </trkpt>
      <trkpt lat="41.98629" lon="9.219">
        <ele>1638.6</ele>
        <time>2015-06-21T08:22:20Z</time>
      </trkpt>
      <trkpt lat="41.98632" lon="9.21897">
        <ele>1639.8</ele>
        <time>2015-06-21T08:22:28Z</time>
      </trkpt>
      <trkpt lat="41.98635" lon="9.21889">
        <ele>1641.2</ele>
        <time>2015-06-21T08:22:39Z</time>
      </trkpt>
      <trkpt lat="41.98638" lon="9.21888">
        <ele>1641.8</ele>
        <time>2015-06-21T08:22:50Z</time>
      </trkpt>
      <trkpt lat="41.98638" lon="9.21887">
        <ele>1642.8</ele>
        <time>2015-06-21T08:22:57Z</time>
      </trkpt>
      <trkpt lat="41.98638" lon="9.21891">
        <ele>1644.2</ele>
        <time>2015-06-21T08:23:06Z</time>
      </trkpt>
      <trkpt lat="41.98642" lon="9.2189">
        <ele>1645.2</ele>
        <time>2015-06-21T08:23:17Z</time>
      </trkpt>
      <trkpt lat="41.98642" lon="9.21891">
        <ele>1646.2</ele>
        <time>2015-06-21T08:23:26Z</time>
      </trkpt>
      <trkpt lat="41.98645" lon="9.21892">
        <ele>1647.6</ele>
        <time>2015-06-21T08:23:36Z</time>
      </trkpt>
      <trkpt lat="41.98646" lon="9.21892">
        <ele>1648.6</ele>
        <time>2015-06-21T08:23:48Z</time>
      </trkpt>
      <trkpt lat="41.9865" lon="9.21891">
        <ele>1649.6</ele>
        <time>2015-06-21T08:23:56Z</time>
      </trkpt>
      <trkpt lat="41.98653" lon="9.21892">
        <ele>1650.8</ele>
        <time>2015-06-21T08:24:05Z</time>
      </trkpt>
      <trkpt lat="41.98658" lon="9.21893">
        <ele>1652</ele>
        <time>2015-06-21T08:24:15Z</time>
      </trkpt>
      <trkpt lat="41.9866" lon="9.21895">
        <ele>1652.8</ele>
        <time>2015-06-21T08:24:24Z</time>
      </trkpt>
      <trkpt lat="41.98659" lon="9.21899">
        <ele>1653.8</ele>
        <time>2015-06-21T08:24:33Z</time>
      </trkpt>
      <trkpt lat="41.98657" lon="9.21902">
        <ele>1655</ele>
        <time>2015-06-21T08:24:42Z</time>
      </trkpt>
      <trkpt lat="41.98657" lon="9.21904">
        <ele>1656.2</ele>
        <time>2015-06-21T08:24:52Z</time>
      </trkpt>
      <trkpt lat="41.98657" lon="9.21907">
        <ele>1657</ele>
        <time>2015-06-21T08:25:01Z</time>
      </trkpt>
      <trkpt lat="41.98658" lon="9.21907">
        <ele>1658.4</ele>
        <time>2015-06-21T08:25:10Z</time>
      </trkpt>
      <trkpt lat="41.9866" lon="9.2191">
        <ele>1659.4</ele>
        <time>2015-06-21T08:25:20Z</time>
      </trkpt>
      <trkpt lat="41.98666" lon="9.21912">
        <ele>1660.4</ele>
        <time>2015-06-21T08:25:29Z</time>
      </trkpt>
      <trkpt lat="41.98668" lon="9.21916">
        <ele>1661.4</ele>
        <time>2015-06-21T08:25:39Z</time>
      </trkpt>
      <trkpt lat="41.98672" lon="9.21917">
        <ele>1662.2</ele>
        <time>2015-06-21T08:25:45Z</time>
      </trkpt>
      <trkpt lat="41.98674" lon="9.21921">
        <ele>1663.6</ele>
        <time>2015-06-21T08:25:56Z</time>
      </trkpt>
      <trkpt lat="41.98677" lon="9.21923">
        <ele>1664.4</ele>
        <time>2015-06-21T08:26:04Z</time>
      </trkpt>
      <trkpt lat="41.98676" lon="9.21927">
        <ele>1665.6</ele>
        <time>2015-06-21T08:26:11Z</time>
      </trkpt>
      <trkpt lat="41.9868" lon="9.21929">
        <ele>1666.6</ele>
        <time>2015-06-21T08:26:18Z</time>
      </trkpt>
      <trkpt lat="41.98685" lon="9.21929">
        <ele>1667.6</ele>
        <time>2015-06-21T08:26:27Z</time>
      </trkpt>
      <trkpt lat="41.98688" lon="9.21933">
        <ele>1669.2</ele>
        <time>2015-06-21T08:26:37Z</time>
      </trkpt>
      <trkpt lat="41.98694" lon="9.21932">
        <ele>1670.2</ele>
        <time>2015-06-21T08:26:46Z</time>
      </trkpt>
      <trkpt lat="41.98697" lon="9.21935">
        <ele>1671.2</ele>
        <time>2015-06-21T08:26:54Z</time>
      </trkpt>
      <trkpt lat="41.987" lon="9.21937">
        <ele>1672.2</ele>
        <time>2015-06-21T08:27:02Z</time>
      </trkpt>
      <trkpt lat="41.98704" lon="9.21939">
        <ele>1673</ele>
        <time>2015-06-21T08:27:09Z</time>
      </trkpt>
      <trkpt lat="41.98715" lon="9.21937">
        <ele>1674.8</ele>
        <time>2015-06-21T08:27:25Z</time>
      </trkpt>
      <trkpt lat="41.98738" lon="9.21945">
        <ele>1675.6</ele>
        <time>2015-06-21T08:28:07Z</time>
      </trkpt>
      <trkpt lat="41.98747" lon="9.21952">
        <ele>1676.8</ele>
        <time>2015-06-21T08:28:19Z</time>
      </trkpt>
      <trkpt lat="41.98756" lon="9.21958">
        <ele>1677.6</ele>
        <time>2015-06-21T08:28:31Z</time>
      </trkpt>
      <trkpt lat="41.98757" lon="9.21959">
        <ele>1677.6</ele>
        <time>2015-06-21T08:28:32Z</time>
      </trkpt>
      <trkpt lat="41.98767" lon="9.21966">
        <ele>1678.8</ele>
        <time>2015-06-21T08:28:45Z</time>
      </trkpt>
      <trkpt lat="41.98776" lon="9.21974">
        <ele>1679.8</ele>
        <time>2015-06-21T08:28:58Z</time>
      </trkpt>
      <trkpt lat="41.98779" lon="9.21982">
        <ele>1680.6</ele>
        <time>2015-06-21T08:29:09Z</time>
      </trkpt>
      <trkpt lat="41.98789" lon="9.21989">
        <ele>1681.8</ele>
        <time>2015-06-21T08:29:21Z</time>
      </trkpt>
      <trkpt lat="41.98793" lon="9.21991">
        <ele>1682.4</ele>
        <time>2015-06-21T08:29:28Z</time>
      </trkpt>
      <trkpt lat="41.988" lon="9.21991">
        <ele>1683.8</ele>
        <time>2015-06-21T08:29:37Z</time>
      </trkpt>
      <trkpt lat="41.988" lon="9.21991">
        <ele>1684</ele>
        <time>2015-06-21T08:29:38Z</time>
      </trkpt>
      <trkpt lat="41.98804" lon="9.21992">
        <ele>1684.4</ele>
        <time>2015-06-21T08:29:45Z</time>
      </trkpt>
      <trkpt lat="41.9881" lon="9.21991">
        <ele>1685.8</ele>
        <time>2015-06-21T08:29:55Z</time>
      </trkpt>
      <trkpt lat="41.98814" lon="9.21992">
        <ele>1686.6</ele>
        <time>2015-06-21T08:30:02Z</time>
      </trkpt>
      <trkpt lat="41.98819" lon="9.2199">
        <ele>1688</ele>
        <time>2015-06-21T08:30:10Z</time>
      </trkpt>
      <trkpt lat="41.98823" lon="9.21989">
        <ele>1688.8</ele>
        <time>2015-06-21T08:30:17Z</time>
      </trkpt>
      <trkpt lat="41.98828" lon="9.21988">
        <ele>1690</ele>
        <time>2015-06-21T08:30:25Z</time>
      </trkpt>
      <trkpt lat="41.98832" lon="9.21987">
        <ele>1691</ele>
        <time>2015-06-21T08:30:33Z</time>
      </trkpt>
      <trkpt lat="41.98836" lon="9.21986">
        <ele>1692.2</ele>
        <time>2015-06-21T08:30:42Z</time>
      </trkpt>
      <trkpt lat="41.9884" lon="9.21982">
        <ele>1693.2</ele>
        <time>2015-06-21T08:30:49Z</time>
      </trkpt>
      <trkpt lat="41.98847" lon="9.21981">
        <ele>1694.4</ele>
        <time>2015-06-21T08:31:00Z</time>
      </trkpt>
      <trkpt lat="41.98851" lon="9.21978">
        <ele>1695.2</ele>
        <time>2015-06-21T08:31:08Z</time>
      </trkpt>
      <trkpt lat="41.98856" lon="9.21976">
        <ele>1696.4</ele>
        <time>2015-06-21T08:31:17Z</time>
      </trkpt>
      <trkpt lat="41.98859" lon="9.21975">
        <ele>1697.4</ele>
        <time>2015-06-21T08:31:25Z</time>
      </trkpt>
      <trkpt lat="41.98862" lon="9.21972">
        <ele>1698.6</ele>
        <time>2015-06-21T08:31:34Z</time>
      </trkpt>
      <trkpt lat="41.98868" lon="9.21968">
        <ele>1699.6</ele>
        <time>2015-06-21T08:31:44Z</time>
      </trkpt>
      <trkpt lat="41.98878" lon="9.21958">
        <ele>1701</ele>
        <time>2015-06-21T08:32:03Z</time>
      </trkpt>
      <trkpt lat="41.9888" lon="9.2196">
        <ele>1701.8</ele>
        <time>2015-06-21T08:32:13Z</time>
      </trkpt>
      <trkpt lat="41.98882" lon="9.21957">
        <ele>1703.4</ele>
        <time>2015-06-21T08:32:35Z</time>
      </trkpt>
      <trkpt lat="41.98884" lon="9.21957">
        <ele>1703.8</ele>
        <time>2015-06-21T08:32:49Z</time>
      </trkpt>
      <trkpt lat="41.98886" lon="9.21956">
        <ele>1705</ele>
        <time>2015-06-21T08:33:01Z</time>
      </trkpt>
      <trkpt lat="41.98889" lon="9.21955">
        <ele>1705.8</ele>
        <time>2015-06-21T08:33:10Z</time>
      </trkpt>
      <trkpt lat="41.98891" lon="9.21954">
        <ele>1707</ele>
        <time>2015-06-21T08:33:22Z</time>
      </trkpt>
      <trkpt lat="41.98893" lon="9.21955">
        <ele>1708</ele>
        <time>2015-06-21T08:33:39Z</time>
      </trkpt>
      <trkpt lat="41.98895" lon="9.21955">
        <ele>1709</ele>
        <time>2015-06-21T08:33:51Z</time>
      </trkpt>
      <trkpt lat="41.98897" lon="9.21952">
        <ele>1710.2</ele>
        <time>2015-06-21T08:34:02Z</time>
      </trkpt>
      <trkpt lat="41.98899" lon="9.21951">
        <ele>1710.8</ele>
        <time>2015-06-21T08:34:08Z</time>
      </trkpt>
      <trkpt lat="41.98901" lon="9.21951">
        <ele>1712.2</ele>
        <time>2015-06-21T08:34:17Z</time>
      </trkpt>
      <trkpt lat="41.98917" lon="9.21948">
        <ele>1713.2</ele>
        <time>2015-06-21T08:34:50Z</time>
      </trkpt>
      <trkpt lat="41.98927" lon="9.21947">
        <ele>1714.2</ele>
        <time>2015-06-21T08:35:05Z</time>
      </trkpt>
      <trkpt lat="41.98934" lon="9.21945">
        <ele>1715.6</ele>
        <time>2015-06-21T08:35:26Z</time>
      </trkpt>
      <trkpt lat="41.98936" lon="9.21944">
        <ele>1716.2</ele>
        <time>2015-06-21T08:35:33Z</time>
      </trkpt>
      <trkpt lat="41.98938" lon="9.21942">
        <ele>1717.2</ele>
        <time>2015-06-21T08:35:41Z</time>
      </trkpt>
      <trkpt lat="41.98942" lon="9.21938">
        <ele>1718.8</ele>
        <time>2015-06-21T08:35:50Z</time>
      </trkpt>
      <trkpt lat="41.98945" lon="9.21937">
        <ele>1719.6</ele>
        <time>2015-06-21T08:35:57Z</time>
      </trkpt>
      <trkpt lat="41.98948" lon="9.21937">
        <ele>1720.8</ele>
        <time>2015-06-21T08:36:09Z</time>
      </trkpt>
      <trkpt lat="41.9895" lon="9.21934">
        <ele>1722.4</ele>
        <time>2015-06-21T08:36:21Z</time>
      </trkpt>
      <trkpt lat="41.98952" lon="9.21932">
        <ele>1723.4</ele>
        <time>2015-06-21T08:36:34Z</time>
      </trkpt>
      <trkpt lat="41.98958" lon="9.21923">
        <ele>1724.6</ele>
        <time>2015-06-21T08:36:59Z</time>
      </trkpt>
      <trkpt lat="41.98962" lon="9.21919">
        <ele>1725.2</ele>
        <time>2015-06-21T08:37:10Z</time>
      </trkpt>
      <trkpt lat="41.98963" lon="9.21918">
        <ele>1726.2</ele>
        <time>2015-06-21T08:37:17Z</time>
      </trkpt>
      <trkpt lat="41.98965" lon="9.21914">
        <ele>1727.8</ele>
        <time>2015-06-21T08:37:27Z</time>
      </trkpt>
      <trkpt lat="41.98966" lon="9.21914">
        <ele>1728.2</ele>
        <time>2015-06-21T08:37:34Z</time>
      </trkpt>
      <trkpt lat="41.98968" lon="9.2191">
        <ele>1729.6</ele>
        <time>2015-06-21T08:37:44Z</time>
      </trkpt>
      <trkpt lat="41.98969" lon="9.21909">
        <ele>1730</ele>
        <time>2015-06-21T08:37:46Z</time>
      </trkpt>
      <trkpt lat="41.9897" lon="9.21907">
        <ele>1730.6</ele>
        <time>2015-06-21T08:37:53Z</time>
      </trkpt>
      <trkpt lat="41.98972" lon="9.21908">
        <ele>1732</ele>
        <time>2015-06-21T08:38:09Z</time>
      </trkpt>
      <trkpt lat="41.98974" lon="9.21909">
        <ele>1733.2</ele>
        <time>2015-06-21T08:38:20Z</time>
      </trkpt>
      <trkpt lat="41.98976" lon="9.21909">
        <ele>1733.8</ele>
        <time>2015-06-21T08:38:28Z</time>
      </trkpt>
      <trkpt lat="41.98978" lon="9.21906">
        <ele>1734.8</ele>
        <time>2015-06-21T08:38:35Z</time>
      </trkpt>
      <trkpt lat="41.9898" lon="9.21905">
        <ele>1736.2</ele>
        <time>2015-06-21T08:38:44Z</time>
      </trkpt>
      <trkpt lat="41.98981" lon="9.21904">
        <ele>1737.4</ele>
        <time>2015-06-21T08:38:55Z</time>
      </trkpt>
      <trkpt lat="41.98983" lon="9.219">
        <ele>1738.4</ele>
        <time>2015-06-21T08:39:04Z</time>
      </trkpt>
      <trkpt lat="41.98982" lon="9.21895">
        <ele>1739.6</ele>
        <time>2015-06-21T08:39:14Z</time>
      </trkpt>
      <trkpt lat="41.98984" lon="9.21894">
        <ele>1741</ele>
        <time>2015-06-21T08:39:31Z</time>
      </trkpt>
      <trkpt lat="41.98984" lon="9.21893">
        <ele>1741.4</ele>
        <time>2015-06-21T08:39:38Z</time>
      </trkpt>
      <trkpt lat="41.98985" lon="9.21891">
        <ele>1743.4</ele>
        <time>2015-06-21T08:39:53Z</time>
      </trkpt>
      <trkpt lat="41.98987" lon="9.21892">
        <ele>1744.2</ele>
        <time>2015-06-21T08:40:15Z</time>
      </trkpt>
      <trkpt lat="41.98987" lon="9.21886">
        <ele>1745.6</ele>
        <time>2015-06-21T08:40:27Z</time>
      </trkpt>
      <trkpt lat="41.98994" lon="9.2188">
        <ele>1746.6</ele>
        <time>2015-06-21T08:41:00Z</time>
      </trkpt>
      <trkpt lat="41.98997" lon="9.21879">
        <ele>1747.4</ele>
        <time>2015-06-21T08:41:08Z</time>
      </trkpt>
      <trkpt lat="41.98999" lon="9.21876">
        <ele>1748.6</ele>
        <time>2015-06-21T08:41:16Z</time>
      </trkpt>
      <trkpt lat="41.99001" lon="9.21874">
        <ele>1749.6</ele>
        <time>2015-06-21T08:41:27Z</time>
      </trkpt>
      <trkpt lat="41.99003" lon="9.21874">
        <ele>1750.6</ele>
        <time>2015-06-21T08:41:34Z</time>
      </trkpt>
      <trkpt lat="41.99007" lon="9.2187">
        <ele>1751.8</ele>
        <time>2015-06-21T08:41:44Z</time>
      </trkpt>
      <trkpt lat="41.99009" lon="9.21867">
        <ele>1752.6</ele>
        <time>2015-06-21T08:41:51Z</time>
      </trkpt>
      <trkpt lat="41.99013" lon="9.21861">
        <ele>1753.8</ele>
        <time>2015-06-21T08:42:00Z</time>
      </trkpt>
      <trkpt lat="41.99017" lon="9.21855">
        <ele>1755.2</ele>
        <time>2015-06-21T08:42:11Z</time>
      </trkpt>
      <trkpt lat="41.99018" lon="9.21854">
        <ele>1755.4</ele>
        <time>2015-06-21T08:42:15Z</time>
      </trkpt>
      <trkpt lat="41.99021" lon="9.21852">
        <ele>1757</ele>
        <time>2015-06-21T08:42:24Z</time>
      </trkpt>
      <trkpt lat="41.99024" lon="9.2185">
        <ele>1758</ele>
        <time>2015-06-21T08:42:32Z</time>
      </trkpt>
      <trkpt lat="41.99034" lon="9.21834">
        <ele>1759.4</ele>
        <time>2015-06-21T08:43:03Z</time>
      </trkpt>
      <trkpt lat="41.99035" lon="9.21834">
        <ele>1760</ele>
        <time>2015-06-21T08:43:10Z</time>
      </trkpt>
      <trkpt lat="41.99036" lon="9.21836">
        <ele>1761</ele>
        <time>2015-06-21T08:43:17Z</time>
      </trkpt>
      <trkpt lat="41.99058" lon="9.21838">
        <ele>1761</ele>
        <time>2015-06-21T08:44:38Z</time>
      </trkpt>
      <trkpt lat="41.99066" lon="9.21841">
        <ele>1760.4</ele>
        <time>2015-06-21T08:44:48Z</time>
      </trkpt>
      <trkpt lat="41.99068" lon="9.21842">
        <ele>1760</ele>
        <time>2015-06-21T08:44:50Z</time>
      </trkpt>
      <trkpt lat="41.9907" lon="9.21842">
        <ele>1760</ele>
        <time>2015-06-21T08:44:52Z</time>
      </trkpt>
      <trkpt lat="41.99074" lon="9.21844">
        <ele>1758.6</ele>
        <time>2015-06-21T08:44:57Z</time>
      </trkpt>
      <trkpt lat="41.99083" lon="9.21849">
        <ele>1758</ele>
        <time>2015-06-21T08:45:07Z</time>
      </trkpt>
      <trkpt lat="41.99087" lon="9.21851">
        <ele>1758</ele>
        <time>2015-06-21T08:45:12Z</time>
      </trkpt>
      <trkpt lat="41.9911" lon="9.21862">
        <ele>1757.8</ele>
        <time>2015-06-21T08:45:37Z</time>
      </trkpt>
      <trkpt lat="41.99127" lon="9.2186">
        <ele>1758.8</ele>
        <time>2015-06-21T08:45:58Z</time>
      </trkpt>
      <trkpt lat="41.9913" lon="9.21857">
        <ele>1759</ele>
        <time>2015-06-21T08:46:01Z</time>
      </trkpt>
      <trkpt lat="41.99135" lon="9.21851">
        <ele>1759.6</ele>
        <time>2015-06-21T08:46:14Z</time>
      </trkpt>
      <trkpt lat="41.99139" lon="9.21847">
        <ele>1760.4</ele>
        <time>2015-06-21T08:46:21Z</time>
      </trkpt>
      <trkpt lat="41.9915" lon="9.21841">
        <ele>1761.4</ele>
        <time>2015-06-21T08:46:36Z</time>
      </trkpt>
      <trkpt lat="41.99156" lon="9.21841">
        <ele>1762.8</ele>
        <time>2015-06-21T08:46:45Z</time>
      </trkpt>
      <trkpt lat="41.99159" lon="9.21838">
        <ele>1763.4</ele>
        <time>2015-06-21T08:46:51Z</time>
      </trkpt>
      <trkpt lat="41.99165" lon="9.21832">
        <ele>1765</ele>
        <time>2015-06-21T08:47:00Z</time>
      </trkpt>
      <trkpt lat="41.99175" lon="9.21833">
        <ele>1765.8</ele>
        <time>2015-06-21T08:47:13Z</time>
      </trkpt>
      <trkpt lat="41.99186" lon="9.21828">
        <ele>1766.4</ele>
        <time>2015-06-21T08:47:25Z</time>
      </trkpt>
      <trkpt lat="41.99189" lon="9.21826">
        <ele>1766.2</ele>
        <time>2015-06-21T08:47:28Z</time>
      </trkpt>
      <trkpt lat="41.99193" lon="9.21822">
        <ele>1765.8</ele>
        <time>2015-06-21T08:47:33Z</time>
      </trkpt>
      <trkpt lat="41.99196" lon="9.21817">
        <ele>1765.2</ele>
        <time>2015-06-21T08:47:37Z</time>
      </trkpt>
      <trkpt lat="41.99199" lon="9.21807">
        <ele>1765.2</ele>
        <time>2015-06-21T08:47:44Z</time>
      </trkpt>
      <trkpt lat="41.992" lon="9.21806">
        <ele>1765.2</ele>
        <time>2015-06-21T08:47:46Z</time>
      </trkpt>
      <trkpt lat="41.99209" lon="9.218">
        <ele>1765.6</ele>
        <time>2015-06-21T08:47:57Z</time>
      </trkpt>
      <trkpt lat="41.9921" lon="9.21797">
        <ele>1765.8</ele>
        <time>2015-06-21T08:48:00Z</time>
      </trkpt>
      <trkpt lat="41.99212" lon="9.21788">
        <ele>1766.6</ele>
        <time>2015-06-21T08:48:08Z</time>
      </trkpt>
      <trkpt lat="41.99216" lon="9.21778">
        <ele>1767.2</ele>
        <time>2015-06-21T08:48:19Z</time>
      </trkpt>
      <trkpt lat="41.9923" lon="9.21774">
        <ele>1768.4</ele>
        <time>2015-06-21T08:48:38Z</time>
      </trkpt>
      <trkpt lat="41.99252" lon="9.2177">
        <ele>1767.2</ele>
        <time>2015-06-21T08:49:04Z</time>
      </trkpt>
      <trkpt lat="41.99281" lon="9.21752">
        <ele>1768</ele>
        <time>2015-06-21T08:49:43Z</time>
      </trkpt>
      <trkpt lat="41.99289" lon="9.21746">
        <ele>1769.2</ele>
        <time>2015-06-21T08:49:54Z</time>
      </trkpt>
      <trkpt lat="41.99296" lon="9.21739">
        <ele>1769.8</ele>
        <time>2015-06-21T08:50:06Z</time>
      </trkpt>
      <trkpt lat="41.99298" lon="9.21733">
        <ele>1770.2</ele>
        <time>2015-06-21T08:50:17Z</time>
      </trkpt>
      <trkpt lat="41.99321" lon="9.21732">
        <ele>1771.8</ele>
        <time>2015-06-21T08:50:43Z</time>
      </trkpt>
      <trkpt lat="41.99365" lon="9.2174">
        <ele>1771.8</ele>
        <time>2015-06-21T08:51:26Z</time>
      </trkpt>
      <trkpt lat="41.99365" lon="9.2174">
        <ele>1772</ele>
        <time>2015-06-21T08:51:27Z</time>
      </trkpt>
      <trkpt lat="41.99377" lon="9.21742">
        <ele>1772.6</ele>
        <time>2015-06-21T08:51:39Z</time>
      </trkpt>
      <trkpt lat="41.99382" lon="9.21741">
        <ele>1773.8</ele>
        <time>2015-06-21T08:51:48Z</time>
      </trkpt>
      <trkpt lat="41.99386" lon="9.21742">
        <ele>1775</ele>
        <time>2015-06-21T08:51:57Z</time>
      </trkpt>
      <trkpt lat="41.99388" lon="9.21746">
        <ele>1775.8</ele>
        <time>2015-06-21T08:52:04Z</time>
      </trkpt>
      <trkpt lat="41.99393" lon="9.21747">
        <ele>1777</ele>
        <time>2015-06-21T08:52:12Z</time>
      </trkpt>
      <trkpt lat="41.99398" lon="9.21752">
        <ele>1778.4</ele>
        <time>2015-06-21T08:52:24Z</time>
      </trkpt>
      <trkpt lat="41.99404" lon="9.21756">
        <ele>1778.8</ele>
        <time>2015-06-21T08:52:31Z</time>
      </trkpt>
      <trkpt lat="41.99412" lon="9.2176">
        <ele>1780.2</ele>
        <time>2015-06-21T08:52:42Z</time>
      </trkpt>
      <trkpt lat="41.99419" lon="9.21758">
        <ele>1781.2</ele>
        <time>2015-06-21T08:52:54Z</time>
      </trkpt>
      <trkpt lat="41.99421" lon="9.21759">
        <ele>1781.8</ele>
        <time>2015-06-21T08:53:02Z</time>
      </trkpt>
      <trkpt lat="41.99424" lon="9.21758">
        <ele>1783.2</ele>
        <time>2015-06-21T08:53:12Z</time>
      </trkpt>
      <trkpt lat="41.99428" lon="9.21762">
        <ele>1784.4</ele>
        <time>2015-06-21T08:53:23Z</time>
      </trkpt>
      <trkpt lat="41.9943" lon="9.21762">
        <ele>1785.6</ele>
        <time>2015-06-21T08:53:35Z</time>
      </trkpt>
      <trkpt lat="41.99432" lon="9.21766">
        <ele>1786.4</ele>
        <time>2015-06-21T08:53:46Z</time>
      </trkpt>
      <trkpt lat="41.99436" lon="9.2177">
        <ele>1787.4</ele>
        <time>2015-06-21T08:53:54Z</time>
      </trkpt>
      <trkpt lat="41.99442" lon="9.21773">
        <ele>1788.6</ele>
        <time>2015-06-21T08:54:10Z</time>
      </trkpt>
      <trkpt lat="41.99444" lon="9.21773">
        <ele>1789.2</ele>
        <time>2015-06-21T08:54:18Z</time>
      </trkpt>
      <trkpt lat="41.99449" lon="9.21779">
        <ele>1790.8</ele>
        <time>2015-06-21T08:54:34Z</time>
      </trkpt>
      <trkpt lat="41.99452" lon="9.21777">
        <ele>1791.4</ele>
        <time>2015-06-21T08:54:43Z</time>
      </trkpt>
      <trkpt lat="41.99455" lon="9.21773">
        <ele>1792.4</ele>
        <time>2015-06-21T08:54:52Z</time>
      </trkpt>
      <trkpt lat="41.99457" lon="9.2177">
        <ele>1793.2</ele>
        <time>2015-06-21T08:55:02Z</time>
      </trkpt>
      <trkpt lat="41.99456" lon="9.21771">
        <ele>1795</ele>
        <time>2015-06-21T08:55:17Z</time>
      </trkpt>
      <trkpt lat="41.99465" lon="9.21778">
        <ele>1795.6</ele>
        <time>2015-06-21T08:55:39Z</time>
      </trkpt>
      <trkpt lat="41.99468" lon="9.21783">
        <ele>1796.8</ele>
        <time>2015-06-21T08:55:51Z</time>
      </trkpt>
      <trkpt lat="41.99479" lon="9.21793">
        <ele>1797.8</ele>
        <time>2015-06-21T08:56:25Z</time>
      </trkpt>
      <trkpt lat="41.99481" lon="9.21793">
        <ele>1798.6</ele>
        <time>2015-06-21T08:56:36Z</time>
      </trkpt>
      <trkpt lat="41.99483" lon="9.21792">
        <ele>1799.8</ele>
        <time>2015-06-21T08:56:48Z</time>
      </trkpt>
      <trkpt lat="41.99484" lon="9.21793">
        <ele>1800.4</ele>
        <time>2015-06-21T08:56:56Z</time>
      </trkpt>
      <trkpt lat="41.99487" lon="9.21797">
        <ele>1801.8</ele>
        <time>2015-06-21T08:57:06Z</time>
      </trkpt>
      <trkpt lat="41.99492" lon="9.21797">
        <ele>1802.8</ele>
        <time>2015-06-21T08:57:18Z</time>
      </trkpt>
      <trkpt lat="41.99495" lon="9.21801">
        <ele>1804</ele>
        <time>2015-06-21T08:57:29Z</time>
      </trkpt>
      <trkpt lat="41.99497" lon="9.21805">
        <ele>1805</ele>
        <time>2015-06-21T08:57:38Z</time>
      </trkpt>
      <trkpt lat="41.995" lon="9.21808">
        <ele>1805.8</ele>
        <time>2015-06-21T08:57:45Z</time>
      </trkpt>
      <trkpt lat="41.99504" lon="9.21809">
        <ele>1807.2</ele>
        <time>2015-06-21T08:57:56Z</time>
      </trkpt>
      <trkpt lat="41.99506" lon="9.21813">
        <ele>1808.4</ele>
        <time>2015-06-21T08:58:05Z</time>
      </trkpt>
      <trkpt lat="41.99514" lon="9.21813">
        <ele>1809.2</ele>
        <time>2015-06-21T08:58:22Z</time>
      </trkpt>
      <trkpt lat="41.99517" lon="9.2181">
        <ele>1810.6</ele>
        <time>2015-06-21T08:58:32Z</time>
      </trkpt>
      <trkpt lat="41.99521" lon="9.21807">
        <ele>1812</ele>
        <time>2015-06-21T08:58:41Z</time>
      </trkpt>
      <trkpt lat="41.99521" lon="9.21806">
        <ele>1812.6</ele>
        <time>2015-06-21T08:58:48Z</time>
      </trkpt>
      <trkpt lat="41.99521" lon="9.21803">
        <ele>1814.2</ele>
        <time>2015-06-21T08:59:04Z</time>
      </trkpt>
      <trkpt lat="41.99521" lon="9.21799">
        <ele>1814.6</ele>
        <time>2015-06-21T08:59:10Z</time>
      </trkpt>
      <trkpt lat="41.99524" lon="9.21795">
        <ele>1815.8</ele>
        <time>2015-06-21T08:59:21Z</time>
      </trkpt>
      <trkpt lat="41.99526" lon="9.21795">
        <ele>1816.8</ele>
        <time>2015-06-21T08:59:29Z</time>
      </trkpt>
      <trkpt lat="41.99526" lon="9.21797">
        <ele>1818</ele>
        <time>2015-06-21T08:59:37Z</time>
      </trkpt>
      <trkpt lat="41.99528" lon="9.21796">
        <ele>1819.2</ele>
        <time>2015-06-21T08:59:48Z</time>
      </trkpt>
      <trkpt lat="41.9953" lon="9.21797">
        <ele>1820.4</ele>
        <time>2015-06-21T09:00:00Z</time>
      </trkpt>
      <trkpt lat="41.99531" lon="9.21798">
        <ele>1820.6</ele>
        <time>2015-06-21T09:00:02Z</time>
      </trkpt>
      <trkpt lat="41.99532" lon="9.21797">
        <ele>1822</ele>
        <time>2015-06-21T09:00:15Z</time>
      </trkpt>
      <trkpt lat="41.99533" lon="9.21797">
        <ele>1822.4</ele>
        <time>2015-06-21T09:00:23Z</time>
      </trkpt>
      <trkpt lat="41.99535" lon="9.21796">
        <ele>1823.8</ele>
        <time>2015-06-21T09:00:33Z</time>
      </trkpt>
      <trkpt lat="41.99536" lon="9.21792">
        <ele>1824.6</ele>
        <time>2015-06-21T09:00:42Z</time>
      </trkpt>
      <trkpt lat="41.99537" lon="9.21789">
        <ele>1825.6</ele>
        <time>2015-06-21T09:00:51Z</time>
      </trkpt>
      <trkpt lat="41.9954" lon="9.21787">
        <ele>1826.6</ele>
        <time>2015-06-21T09:01:01Z</time>
      </trkpt>
      <trkpt lat="41.99541" lon="9.21786">
        <ele>1827.6</ele>
        <time>2015-06-21T09:01:08Z</time>
      </trkpt>
      <trkpt lat="41.99545" lon="9.21788">
        <ele>1828.8</ele>
        <time>2015-06-21T09:01:22Z</time>
      </trkpt>
      <trkpt lat="41.99547" lon="9.21785">
        <ele>1829.6</ele>
        <time>2015-06-21T09:01:31Z</time>
      </trkpt>
      <trkpt lat="41.99547" lon="9.21784">
        <ele>1831</ele>
        <time>2015-06-21T09:01:39Z</time>
      </trkpt>
      <trkpt lat="41.99548" lon="9.2178">
        <ele>1832</ele>
        <time>2015-06-21T09:01:52Z</time>
      </trkpt>
      <trkpt lat="41.99551" lon="9.2178">
        <ele>1833.2</ele>
        <time>2015-06-21T09:02:01Z</time>
      </trkpt>
      <trkpt lat="41.99554" lon="9.2178">
        <ele>1834.2</ele>
        <time>2015-06-21T09:02:08Z</time>
      </trkpt>
      <trkpt lat="41.99558" lon="9.21783">
        <ele>1835.8</ele>
        <time>2015-06-21T09:02:17Z</time>
      </trkpt>
      <trkpt lat="41.99564" lon="9.21786">
        <ele>1836.8</ele>
        <time>2015-06-21T09:02:33Z</time>
      </trkpt>
      <trkpt lat="41.99567" lon="9.21788">
        <ele>1837.4</ele>
        <time>2015-06-21T09:02:41Z</time>
      </trkpt>
      <trkpt lat="41.99575" lon="9.218">
        <ele>1839</ele>
        <time>2015-06-21T09:02:58Z</time>
      </trkpt>
      <trkpt lat="41.99579" lon="9.218">
        <ele>1839.2</ele>
        <time>2015-06-21T09:03:02Z</time>
      </trkpt>
      <trkpt lat="41.9958" lon="9.21799">
        <ele>1839.4</ele>
        <time>2015-06-21T09:03:04Z</time>
      </trkpt>
      <trkpt lat="41.99582" lon="9.21799">
        <ele>1839.8</ele>
        <time>2015-06-21T09:03:08Z</time>
      </trkpt>
      <trkpt lat="41.99584" lon="9.21797">
        <ele>1840.8</ele>
        <time>2015-06-21T09:03:16Z</time>
      </trkpt>
      <trkpt lat="41.99587" lon="9.21797">
        <ele>1841.2</ele>
        <time>2015-06-21T09:03:22Z</time>
      </trkpt>
      <trkpt lat="41.99591" lon="9.21802">
        <ele>1843</ele>
        <time>2015-06-21T09:03:32Z</time>
      </trkpt>
      <trkpt lat="41.99594" lon="9.21806">
        <ele>1843.4</ele>
        <time>2015-06-21T09:03:38Z</time>
      </trkpt>
      <trkpt lat="41.9961" lon="9.21818">
        <ele>1843.6</ele>
        <time>2015-06-21T09:04:08Z</time>
      </trkpt>
      <trkpt lat="41.9962" lon="9.21819">
        <ele>1844.6</ele>
        <time>2015-06-21T09:04:21Z</time>
      </trkpt>
      <trkpt lat="41.99623" lon="9.21816">
        <ele>1845</ele>
        <time>2015-06-21T09:04:27Z</time>
      </trkpt>
      <trkpt lat="41.99629" lon="9.21812">
        <ele>1845.6</ele>
        <time>2015-06-21T09:04:36Z</time>
      </trkpt>
      <trkpt lat="41.99632" lon="9.21811">
        <ele>1845.8</ele>
        <time>2015-06-21T09:04:39Z</time>
      </trkpt>
      <trkpt lat="41.99634" lon="9.2181">
        <ele>1846</ele>
        <time>2015-06-21T09:04:41Z</time>
      </trkpt>
      <trkpt lat="41.99639" lon="9.21809">
        <ele>1845.8</ele>
        <time>2015-06-21T09:04:52Z</time>
      </trkpt>
      <trkpt lat="41.99647" lon="9.21806">
        <ele>1844.6</ele>
        <time>2015-06-21T09:05:03Z</time>
      </trkpt>
      <trkpt lat="41.99652" lon="9.21801">
        <ele>1843.8</ele>
        <time>2015-06-21T09:05:10Z</time>
      </trkpt>
      <trkpt lat="41.99652" lon="9.21799">
        <ele>1843.8</ele>
        <time>2015-06-21T09:05:12Z</time>
      </trkpt>
      <trkpt lat="41.99647" lon="9.21786">
        <ele>1844.4</ele>
        <time>2015-06-21T09:05:27Z</time>
      </trkpt>
      <trkpt lat="41.99644" lon="9.21782">
        <ele>1845.4</ele>
        <time>2015-06-21T09:05:35Z</time>
      </trkpt>
      <trkpt lat="41.99645" lon="9.21777">
        <ele>1846.6</ele>
        <time>2015-06-21T09:05:46Z</time>
      </trkpt>
      <trkpt lat="41.99644" lon="9.21775">
        <ele>1847.4</ele>
        <time>2015-06-21T09:05:54Z</time>
      </trkpt>
      <trkpt lat="41.99646" lon="9.21771">
        <ele>1848.8</ele>
        <time>2015-06-21T09:06:05Z</time>
      </trkpt>
      <trkpt lat="41.99649" lon="9.21764">
        <ele>1849.8</ele>
        <time>2015-06-21T09:06:17Z</time>
      </trkpt>
      <trkpt lat="41.99649" lon="9.21759">
        <ele>1850.6</ele>
        <time>2015-06-21T09:06:27Z</time>
      </trkpt>
      <trkpt lat="41.99648" lon="9.21755">
        <ele>1851.8</ele>
        <time>2015-06-21T09:06:36Z</time>
      </trkpt>
      <trkpt lat="41.99647" lon="9.21753">
        <ele>1852.8</ele>
        <time>2015-06-21T09:06:44Z</time>
      </trkpt>
      <trkpt lat="41.99649" lon="9.21742">
        <ele>1853.8</ele>
        <time>2015-06-21T09:07:01Z</time>
      </trkpt>
      <trkpt lat="41.99651" lon="9.21739">
        <ele>1855.2</ele>
        <time>2015-06-21T09:07:20Z</time>
      </trkpt>
      <trkpt lat="41.99651" lon="9.21735">
        <ele>1856.2</ele>
        <time>2015-06-21T09:07:32Z</time>
      </trkpt>
      <trkpt lat="41.99656" lon="9.2173">
        <ele>1856</ele>
        <time>2015-06-21T09:08:35Z</time>
      </trkpt>
      <trkpt lat="41.99661" lon="9.21728">
        <ele>1855.2</ele>
        <time>2015-06-21T09:08:46Z</time>
      </trkpt>
      <trkpt lat="41.99666" lon="9.21727">
        <ele>1854.2</ele>
        <time>2015-06-21T09:08:56Z</time>
      </trkpt>
      <trkpt lat="41.99677" lon="9.21705">
        <ele>1852.4</ele>
        <time>2015-06-21T09:09:36Z</time>
      </trkpt>
      <trkpt lat="41.99687" lon="9.21684">
        <ele>1851.8</ele>
        <time>2015-06-21T09:11:14Z</time>
      </trkpt>
      <trkpt lat="41.99689" lon="9.21685">
        <ele>1850.8</ele>
        <time>2015-06-21T09:11:23Z</time>
      </trkpt>
      <trkpt lat="41.99689" lon="9.21685">
        <ele>1850</ele>
        <time>2015-06-21T09:11:30Z</time>
      </trkpt>
      <trkpt lat="41.99693" lon="9.21681">
        <ele>1848.6</ele>
        <time>2015-06-21T09:11:50Z</time>
      </trkpt>
      <trkpt lat="41.99694" lon="9.21677">
        <ele>1847.4</ele>
        <time>2015-06-21T09:12:00Z</time>
      </trkpt>
      <trkpt lat="41.99697" lon="9.21674">
        <ele>1846.6</ele>
        <time>2015-06-21T09:12:10Z</time>
      </trkpt>
      <trkpt lat="41.99702" lon="9.21668">
        <ele>1845.2</ele>
        <time>2015-06-21T09:12:21Z</time>
      </trkpt>
      <trkpt lat="41.99703" lon="9.21668">
        <ele>1844.2</ele>
        <time>2015-06-21T09:12:48Z</time>
      </trkpt>
      <trkpt lat="41.99704" lon="9.21668">
        <ele>1843.8</ele>
        <time>2015-06-21T09:12:53Z</time>
      </trkpt>
      <trkpt lat="41.99708" lon="9.21663">
        <ele>1843</ele>
        <time>2015-06-21T09:13:10Z</time>
      </trkpt>
      <trkpt lat="41.99712" lon="9.21661">
        <ele>1842.2</ele>
        <time>2015-06-21T09:13:19Z</time>
      </trkpt>
      <trkpt lat="41.99714" lon="9.21657">
        <ele>1841</ele>
        <time>2015-06-21T09:13:30Z</time>
      </trkpt>
      <trkpt lat="41.99718" lon="9.21658">
        <ele>1839.8</ele>
        <time>2015-06-21T09:13:41Z</time>
      </trkpt>
      <trkpt lat="41.9972" lon="9.21655">
        <ele>1838.6</ele>
        <time>2015-06-21T09:13:50Z</time>
      </trkpt>
      <trkpt lat="41.99729" lon="9.2165">
        <ele>1837.4</ele>
        <time>2015-06-21T09:14:04Z</time>
      </trkpt>
      <trkpt lat="41.99735" lon="9.21642">
        <ele>1836</ele>
        <time>2015-06-21T09:14:14Z</time>
      </trkpt>
      <trkpt lat="41.99753" lon="9.2163">
        <ele>1834.6</ele>
        <time>2015-06-21T09:15:01Z</time>
      </trkpt>
      <trkpt lat="41.99754" lon="9.21632">
        <ele>1833.6</ele>
        <time>2015-06-21T09:15:21Z</time>
      </trkpt>
      <trkpt lat="41.99755" lon="9.21635">
        <ele>1832.8</ele>
        <time>2015-06-21T09:15:31Z</time>
      </trkpt>
      <trkpt lat="41.99754" lon="9.21637">
        <ele>1831.6</ele>
        <time>2015-06-21T09:15:43Z</time>
      </trkpt>
      <trkpt lat="41.99755" lon="9.2164">
        <ele>1830.8</ele>
        <time>2015-06-21T09:15:51Z</time>
      </trkpt>
      <trkpt lat="41.99753" lon="9.21644">
        <ele>1829.6</ele>
        <time>2015-06-21T09:16:03Z</time>
      </trkpt>
      <trkpt lat="41.99753" lon="9.2165">
        <ele>1828.6</ele>
        <time>2015-06-21T09:16:16Z</time>
      </trkpt>
      <trkpt lat="41.99753" lon="9.21651">
        <ele>1828.4</ele>
        <time>2015-06-21T09:16:17Z</time>
      </trkpt>
      <trkpt lat="41.99755" lon="9.21649">
        <ele>1826.8</ele>
        <time>2015-06-21T09:17:03Z</time>
      </trkpt>
      <trkpt lat="41.99755" lon="9.21651">
        <ele>1825.6</ele>
        <time>2015-06-21T09:17:18Z</time>
      </trkpt>
      <trkpt lat="41.99759" lon="9.21649">
        <ele>1824.4</ele>
        <time>2015-06-21T09:17:46Z</time>
      </trkpt>
      <trkpt lat="41.9976" lon="9.2165">
        <ele>1824.2</ele>
        <time>2015-06-21T09:17:50Z</time>
      </trkpt>
      <trkpt lat="41.9976" lon="9.21652">
        <ele>1823</ele>
        <time>2015-06-21T09:18:02Z</time>
      </trkpt>
      <trkpt lat="41.99757" lon="9.21651">
        <ele>1822.4</ele>
        <time>2015-06-21T09:18:14Z</time>
      </trkpt>
      <trkpt lat="41.99764" lon="9.21645">
        <ele>1820.8</ele>
        <time>2015-06-21T09:18:28Z</time>
      </trkpt>
      <trkpt lat="41.99765" lon="9.21643">
        <ele>1820.8</ele>
        <time>2015-06-21T09:18:30Z</time>
      </trkpt>
      <trkpt lat="41.99775" lon="9.21642">
        <ele>1820.6</ele>
        <time>2015-06-21T09:18:40Z</time>
      </trkpt>
      <trkpt lat="41.99777" lon="9.21642">
        <ele>1820.6</ele>
        <time>2015-06-21T09:18:42Z</time>
      </trkpt>
      <trkpt lat="41.99777" lon="9.21645">
        <ele>1819.4</ele>
        <time>2015-06-21T09:18:56Z</time>
      </trkpt>
      <trkpt lat="41.99777" lon="9.21645">
        <ele>1818</ele>
        <time>2015-06-21T09:19:13Z</time>
      </trkpt>
      <trkpt lat="41.99778" lon="9.21643">
        <ele>1817.2</ele>
        <time>2015-06-21T09:19:30Z</time>
      </trkpt>
      <trkpt lat="41.99777" lon="9.21647">
        <ele>1816.6</ele>
        <time>2015-06-21T09:19:36Z</time>
      </trkpt>
      <trkpt lat="41.99772" lon="9.21655">
        <ele>1815.6</ele>
        <time>2015-06-21T09:19:47Z</time>
      </trkpt>
      <trkpt lat="41.99772" lon="9.21656">
        <ele>1815.4</ele>
        <time>2015-06-21T09:19:49Z</time>
      </trkpt>
      <trkpt lat="41.99773" lon="9.21657">
        <ele>1815.2</ele>
        <time>2015-06-21T09:19:53Z</time>
      </trkpt>
      <trkpt lat="41.99772" lon="9.21661">
        <ele>1813.4</ele>
        <time>2015-06-21T09:20:05Z</time>
      </trkpt>
      <trkpt lat="41.99772" lon="9.21662">
        <ele>1813</ele>
        <time>2015-06-21T09:20:13Z</time>
      </trkpt>
      <trkpt lat="41.99773" lon="9.2166">
        <ele>1811.2</ele>
        <time>2015-06-21T09:20:26Z</time>
      </trkpt>
      <trkpt lat="41.99774" lon="9.2166">
        <ele>1810.2</ele>
        <time>2015-06-21T09:20:36Z</time>
      </trkpt>
      <trkpt lat="41.99775" lon="9.21663">
        <ele>1809.2</ele>
        <time>2015-06-21T09:20:46Z</time>
      </trkpt>
      <trkpt lat="41.99776" lon="9.21662">
        <ele>1808</ele>
        <time>2015-06-21T09:20:54Z</time>
      </trkpt>
      <trkpt lat="41.99777" lon="9.21664">
        <ele>1807.2</ele>
        <time>2015-06-21T09:21:00Z</time>
      </trkpt>
      <trkpt lat="41.99783" lon="9.21659">
        <ele>1806.6</ele>
        <time>2015-06-21T09:21:04Z</time>
      </trkpt>
      <trkpt lat="41.99785" lon="9.21657">
        <ele>1806</ele>
        <time>2015-06-21T09:21:07Z</time>
      </trkpt>
      <trkpt lat="41.99793" lon="9.2165">
        <ele>1804.6</ele>
        <time>2015-06-21T09:21:27Z</time>
      </trkpt>
      <trkpt lat="41.99798" lon="9.2164">
        <ele>1803.4</ele>
        <time>2015-06-21T09:21:48Z</time>
      </trkpt>
      <trkpt lat="41.998" lon="9.21637">
        <ele>1804.6</ele>
        <time>2015-06-21T09:21:59Z</time>
      </trkpt>
      <trkpt lat="41.99805" lon="9.21633">
        <ele>1805.6</ele>
        <time>2015-06-21T09:22:12Z</time>
      </trkpt>
      <trkpt lat="41.99806" lon="9.21625">
        <ele>1806.4</ele>
        <time>2015-06-21T09:22:24Z</time>
      </trkpt>
      <trkpt lat="41.99808" lon="9.2162">
        <ele>1807.4</ele>
        <time>2015-06-21T09:22:33Z</time>
      </trkpt>
      <trkpt lat="41.99812" lon="9.21617">
        <ele>1808.4</ele>
        <time>2015-06-21T09:22:42Z</time>
      </trkpt>
      <trkpt lat="41.99817" lon="9.21615">
        <ele>1809.4</ele>
        <time>2015-06-21T09:22:52Z</time>
      </trkpt>
      <trkpt lat="41.99823" lon="9.21613">
        <ele>1810.6</ele>
        <time>2015-06-21T09:23:27Z</time>
      </trkpt>
      <trkpt lat="41.99826" lon="9.21606">
        <ele>1811.4</ele>
        <time>2015-06-21T09:23:41Z</time>
      </trkpt>
      <trkpt lat="41.99827" lon="9.21602">
        <ele>1812</ele>
        <time>2015-06-21T09:23:48Z</time>
      </trkpt>
      <trkpt lat="41.9983" lon="9.216">
        <ele>1814</ele>
        <time>2015-06-21T09:24:07Z</time>
      </trkpt>
      <trkpt lat="41.99832" lon="9.21598">
        <ele>1814.2</ele>
        <time>2015-06-21T09:24:16Z</time>
      </trkpt>
      <trkpt lat="41.99845" lon="9.21607">
        <ele>1814.4</ele>
        <time>2015-06-21T09:25:41Z</time>
      </trkpt>
      <trkpt lat="41.99845" lon="9.21609">
        <ele>1813</ele>
        <time>2015-06-21T09:25:50Z</time>
      </trkpt>
      <trkpt lat="41.99846" lon="9.2161">
        <ele>1812.6</ele>
        <time>2015-06-21T09:25:56Z</time>
      </trkpt>
      <trkpt lat="41.99851" lon="9.21604">
        <ele>1811.8</ele>
        <time>2015-06-21T09:26:27Z</time>
      </trkpt>
      <trkpt lat="41.99852" lon="9.21599">
        <ele>1812.2</ele>
        <time>2015-06-21T09:26:34Z</time>
      </trkpt>
      <trkpt lat="41.99854" lon="9.21598">
        <ele>1814</ele>
        <time>2015-06-21T09:26:44Z</time>
      </trkpt>
      <trkpt lat="41.99862" lon="9.21601">
        <ele>1815.2</ele>
        <time>2015-06-21T09:27:04Z</time>
      </trkpt>
      <trkpt lat="41.99874" lon="9.21595">
        <ele>1814.4</ele>
        <time>2015-06-21T09:27:32Z</time>
      </trkpt>
      <trkpt lat="41.99886" lon="9.21588">
        <ele>1814.4</ele>
        <time>2015-06-21T09:27:59Z</time>
      </trkpt>
      <trkpt lat="41.99889" lon="9.21588">
        <ele>1815.4</ele>
        <time>2015-06-21T09:28:06Z</time>
      </trkpt>
      <trkpt lat="41.99903" lon="9.21599">
        <ele>1815.4</ele>
        <time>2015-06-21T09:28:32Z</time>
      </trkpt>
      <trkpt lat="41.99908" lon="9.21601">
        <ele>1814.4</ele>
        <time>2015-06-21T09:28:43Z</time>
      </trkpt>
      <trkpt lat="41.9991" lon="9.21601">
        <ele>1813.4</ele>
        <time>2015-06-21T09:28:54Z</time>
      </trkpt>
      <trkpt lat="41.99928" lon="9.21591">
        <ele>1813.4</ele>
        <time>2015-06-21T09:29:43Z</time>
      </trkpt>
      <trkpt lat="41.99931" lon="9.21589">
        <ele>1814.4</ele>
        <time>2015-06-21T09:29:55Z</time>
      </trkpt>
      <trkpt lat="41.99939" lon="9.21588">
        <ele>1815.4</ele>
        <time>2015-06-21T09:30:11Z</time>
      </trkpt>
      <trkpt lat="41.99942" lon="9.21586">
        <ele>1816.6</ele>
        <time>2015-06-21T09:30:24Z</time>
      </trkpt>
      <trkpt lat="41.99945" lon="9.21587">
        <ele>1817.6</ele>
        <time>2015-06-21T09:30:40Z</time>
      </trkpt>
      <trkpt lat="41.99947" lon="9.21587">
        <ele>1818.4</ele>
        <time>2015-06-21T09:30:49Z</time>
      </trkpt>
      <trkpt lat="41.99949" lon="9.21583">
        <ele>1820</ele>
        <time>2015-06-21T09:31:11Z</time>
      </trkpt>
      <trkpt lat="41.99951" lon="9.21583">
        <ele>1820.8</ele>
        <time>2015-06-21T09:31:20Z</time>
      </trkpt>
      <trkpt lat="41.99953" lon="9.21582">
        <ele>1821.6</ele>
        <time>2015-06-21T09:31:28Z</time>
      </trkpt>
      <trkpt lat="41.99954" lon="9.21575">
        <ele>1823.2</ele>
        <time>2015-06-21T09:31:53Z</time>
      </trkpt>
      <trkpt lat="41.99956" lon="9.21572">
        <ele>1823.8</ele>
        <time>2015-06-21T09:32:01Z</time>
      </trkpt>
      <trkpt lat="41.99958" lon="9.21573">
        <ele>1824.8</ele>
        <time>2015-06-21T09:32:09Z</time>
      </trkpt>
      <trkpt lat="41.99959" lon="9.21571">
        <ele>1826.2</ele>
        <time>2015-06-21T09:32:22Z</time>
      </trkpt>
      <trkpt lat="41.99961" lon="9.21573">
        <ele>1827.2</ele>
        <time>2015-06-21T09:32:30Z</time>
      </trkpt>
      <trkpt lat="41.99966" lon="9.21575">
        <ele>1828.8</ele>
        <time>2015-06-21T09:33:12Z</time>
      </trkpt>
      <trkpt lat="41.99965" lon="9.21573">
        <ele>1830</ele>
        <time>2015-06-21T09:33:24Z</time>
      </trkpt>
      <trkpt lat="41.99968" lon="9.21575">
        <ele>1831</ele>
        <time>2015-06-21T09:33:35Z</time>
      </trkpt>
      <trkpt lat="41.99987" lon="9.21595">
        <ele>1831.4</ele>
        <time>2015-06-21T09:34:35Z</time>
      </trkpt>
      <trkpt lat="41.99989" lon="9.21597">
        <ele>1830.8</ele>
        <time>2015-06-21T09:34:41Z</time>
      </trkpt>
      <trkpt lat="41.99993" lon="9.21596">
        <ele>1830.6</ele>
        <time>2015-06-21T09:34:44Z</time>
      </trkpt>
      <trkpt lat="41.99997" lon="9.21595">
        <ele>1830</ele>
        <time>2015-06-21T09:34:49Z</time>
      </trkpt>
      <trkpt lat="42.00006" lon="9.21607">
        <ele>1830.6</ele>
        <time>2015-06-21T09:35:08Z</time>
      </trkpt>
      <trkpt lat="42.00017" lon="9.21617">
        <ele>1831.4</ele>
        <time>2015-06-21T09:35:30Z</time>
      </trkpt>
      <trkpt lat="42.00019" lon="9.21618">
        <ele>1832.4</ele>
        <time>2015-06-21T09:35:39Z</time>
      </trkpt>
      <trkpt lat="42.00026" lon="9.21619">
        <ele>1833.8</ele>
        <time>2015-06-21T09:37:05Z</time>
      </trkpt>
      <trkpt lat="42.00028" lon="9.21616">
        <ele>1834.8</ele>
        <time>2015-06-21T09:37:13Z</time>
      </trkpt>
      <trkpt lat="42.00028" lon="9.21615">
        <ele>1836.4</ele>
        <time>2015-06-21T09:37:28Z</time>
      </trkpt>
      <trkpt lat="42.00031" lon="9.21615">
        <ele>1837.4</ele>
        <time>2015-06-21T09:37:46Z</time>
      </trkpt>
      <trkpt lat="42.00035" lon="9.21617">
        <ele>1838.2</ele>
        <time>2015-06-21T09:37:54Z</time>
      </trkpt>
      <trkpt lat="42.00041" lon="9.21622">
        <ele>1839.4</ele>
        <time>2015-06-21T09:38:11Z</time>
      </trkpt>
      <trkpt lat="42.00042" lon="9.21623">
        <ele>1839.4</ele>
        <time>2015-06-21T09:38:14Z</time>
      </trkpt>
      <trkpt lat="42.00054" lon="9.21623">
        <ele>1840</ele>
        <time>2015-06-21T09:38:35Z</time>
      </trkpt>
      <trkpt lat="42.0006" lon="9.21622">
        <ele>1841</ele>
        <time>2015-06-21T09:40:24Z</time>
      </trkpt>
      <trkpt lat="42.00065" lon="9.21627">
        <ele>1839.8</ele>
        <time>2015-06-21T09:40:33Z</time>
      </trkpt>
      <trkpt lat="42.00069" lon="9.21628">
        <ele>1838</ele>
        <time>2015-06-21T09:40:53Z</time>
      </trkpt>
      <trkpt lat="42.00072" lon="9.2163">
        <ele>1837.6</ele>
        <time>2015-06-21T09:41:04Z</time>
      </trkpt>
      <trkpt lat="42.00074" lon="9.21628">
        <ele>1836.6</ele>
        <time>2015-06-21T09:41:14Z</time>
      </trkpt>
      <trkpt lat="42.00075" lon="9.21626">
        <ele>1835.8</ele>
        <time>2015-06-21T09:41:20Z</time>
      </trkpt>
      <trkpt lat="42.00076" lon="9.21621">
        <ele>1834</ele>
        <time>2015-06-21T09:41:30Z</time>
      </trkpt>
      <trkpt lat="42.00078" lon="9.2162">
        <ele>1832.8</ele>
        <time>2015-06-21T09:41:40Z</time>
      </trkpt>
      <trkpt lat="42.00079" lon="9.21619">
        <ele>1832.4</ele>
        <time>2015-06-21T09:41:48Z</time>
      </trkpt>
      <trkpt lat="42.0008" lon="9.21619">
        <ele>1831</ele>
        <time>2015-06-21T09:41:55Z</time>
      </trkpt>
      <trkpt lat="42.00082" lon="9.21617">
        <ele>1829.8</ele>
        <time>2015-06-21T09:42:05Z</time>
      </trkpt>
      <trkpt lat="42.00084" lon="9.21619">
        <ele>1828.6</ele>
        <time>2015-06-21T09:42:16Z</time>
      </trkpt>
      <trkpt lat="42.00085" lon="9.2162">
        <ele>1827.8</ele>
        <time>2015-06-21T09:42:23Z</time>
      </trkpt>
      <trkpt lat="42.00089" lon="9.21615">
        <ele>1826.4</ele>
        <time>2015-06-21T09:42:46Z</time>
      </trkpt>
      <trkpt lat="42.0009" lon="9.21613">
        <ele>1825.6</ele>
        <time>2015-06-21T09:42:53Z</time>
      </trkpt>
      <trkpt lat="42.00091" lon="9.21616">
        <ele>1824</ele>
        <time>2015-06-21T09:43:01Z</time>
      </trkpt>
      <trkpt lat="42.00094" lon="9.21616">
        <ele>1823</ele>
        <time>2015-06-21T09:43:09Z</time>
      </trkpt>
      <trkpt lat="42.00094" lon="9.21617">
        <ele>1822.6</ele>
        <time>2015-06-21T09:43:15Z</time>
      </trkpt>
      <trkpt lat="42.00097" lon="9.21613">
        <ele>1821</ele>
        <time>2015-06-21T09:43:26Z</time>
      </trkpt>
      <trkpt lat="42.00098" lon="9.21613">
        <ele>1820</ele>
        <time>2015-06-21T09:43:33Z</time>
      </trkpt>
      <trkpt lat="42.00099" lon="9.21614">
        <ele>1820</ele>
        <time>2015-06-21T09:43:35Z</time>
      </trkpt>
      <trkpt lat="42.00101" lon="9.21612">
        <ele>1819.2</ele>
        <time>2015-06-21T09:43:41Z</time>
      </trkpt>
      <trkpt lat="42.00104" lon="9.21608">
        <ele>1818</ele>
        <time>2015-06-21T09:43:50Z</time>
      </trkpt>
      <trkpt lat="42.00106" lon="9.21607">
        <ele>1816.2</ele>
        <time>2015-06-21T09:44:03Z</time>
      </trkpt>
      <trkpt lat="42.00108" lon="9.21606">
        <ele>1815.6</ele>
        <time>2015-06-21T09:44:12Z</time>
      </trkpt>
      <trkpt lat="42.00109" lon="9.21602">
        <ele>1814.2</ele>
        <time>2015-06-21T09:44:24Z</time>
      </trkpt>
      <trkpt lat="42.00111" lon="9.21602">
        <ele>1813.6</ele>
        <time>2015-06-21T09:44:30Z</time>
      </trkpt>
      <trkpt lat="42.00113" lon="9.21602">
        <ele>1812.4</ele>
        <time>2015-06-21T09:44:37Z</time>
      </trkpt>
      <trkpt lat="42.00117" lon="9.21602">
        <ele>1811.2</ele>
        <time>2015-06-21T09:44:46Z</time>
      </trkpt>
      <trkpt lat="42.0012" lon="9.21604">
        <ele>1810</ele>
        <time>2015-06-21T09:44:53Z</time>
      </trkpt>
      <trkpt lat="42.00123" lon="9.21604">
        <ele>1809</ele>
        <time>2015-06-21T09:45:01Z</time>
      </trkpt>
      <trkpt lat="42.00124" lon="9.21601">
        <ele>1808.2</ele>
        <time>2015-06-21T09:45:07Z</time>
      </trkpt>
      <trkpt lat="42.00128" lon="9.21601">
        <ele>1806.4</ele>
        <time>2015-06-21T09:45:21Z</time>
      </trkpt>
      <trkpt lat="42.00131" lon="9.216">
        <ele>1806</ele>
        <time>2015-06-21T09:45:25Z</time>
      </trkpt>
      <trkpt lat="42.00134" lon="9.21602">
        <ele>1804.6</ele>
        <time>2015-06-21T09:45:31Z</time>
      </trkpt>
      <trkpt lat="42.0014" lon="9.21606">
        <ele>1803</ele>
        <time>2015-06-21T09:45:41Z</time>
      </trkpt>
      <trkpt lat="42.00144" lon="9.21604">
        <ele>1802</ele>
        <time>2015-06-21T09:45:48Z</time>
      </trkpt>
      <trkpt lat="42.00146" lon="9.21605">
        <ele>1802</ele>
        <time>2015-06-21T09:45:50Z</time>
      </trkpt>
      <trkpt lat="42.0015" lon="9.21608">
        <ele>1800.8</ele>
        <time>2015-06-21T09:45:55Z</time>
      </trkpt>
      <trkpt lat="42.00156" lon="9.21612">
        <ele>1799.8</ele>
        <time>2015-06-21T09:46:02Z</time>
      </trkpt>
      <trkpt lat="42.00164" lon="9.21617">
        <ele>1798.4</ele>
        <time>2015-06-21T09:46:23Z</time>
      </trkpt>
      <trkpt lat="42.0017" lon="9.21615">
        <ele>1797.6</ele>
        <time>2015-06-21T09:46:33Z</time>
      </trkpt>
      <trkpt lat="42.00172" lon="9.21611">
        <ele>1796.6</ele>
        <time>2015-06-21T09:46:41Z</time>
      </trkpt>
      <trkpt lat="42.00181" lon="9.21609">
        <ele>1795.4</ele>
        <time>2015-06-21T09:46:54Z</time>
      </trkpt>
      <trkpt lat="42.00189" lon="9.21609">
        <ele>1794.4</ele>
        <time>2015-06-21T09:47:03Z</time>
      </trkpt>
      <trkpt lat="42.00195" lon="9.21609">
        <ele>1793.6</ele>
        <time>2015-06-21T09:47:11Z</time>
      </trkpt>
      <trkpt lat="42.00198" lon="9.21604">
        <ele>1792.4</ele>
        <time>2015-06-21T09:47:18Z</time>
      </trkpt>
      <trkpt lat="42.00203" lon="9.21601">
        <ele>1791.2</ele>
        <time>2015-06-21T09:47:26Z</time>
      </trkpt>
      <trkpt lat="42.00206" lon="9.21598">
        <ele>1790.6</ele>
        <time>2015-06-21T09:47:31Z</time>
      </trkpt>
      <trkpt lat="42.00211" lon="9.21594">
        <ele>1788.8</ele>
        <time>2015-06-21T09:47:38Z</time>
      </trkpt>
      <trkpt lat="42.00212" lon="9.21592">
        <ele>1788.6</ele>
        <time>2015-06-21T09:47:40Z</time>
      </trkpt>
      <trkpt lat="42.00214" lon="9.21587">
        <ele>1788.2</ele>
        <time>2015-06-21T09:47:45Z</time>
      </trkpt>
      <trkpt lat="42.00214" lon="9.21584">
        <ele>1787.2</ele>
        <time>2015-06-21T09:47:48Z</time>
      </trkpt>
      <trkpt lat="42.00214" lon="9.21581">
        <ele>1787</ele>
        <time>2015-06-21T09:47:51Z</time>
      </trkpt>
      <trkpt lat="42.00214" lon="9.21578">
        <ele>1786.4</ele>
        <time>2015-06-21T09:47:55Z</time>
      </trkpt>
      <trkpt lat="42.00214" lon="9.21567">
        <ele>1784.6</ele>
        <time>2015-06-21T09:48:05Z</time>
      </trkpt>
      <trkpt lat="42.00213" lon="9.21562">
        <ele>1783.8</ele>
        <time>2015-06-21T09:48:10Z</time>
      </trkpt>
      <trkpt lat="42.00213" lon="9.21558">
        <ele>1782.6</ele>
        <time>2015-06-21T09:48:15Z</time>
      </trkpt>
      <trkpt lat="42.00212" lon="9.2155">
        <ele>1781.2</ele>
        <time>2015-06-21T09:48:23Z</time>
      </trkpt>
      <trkpt lat="42.00212" lon="9.21548">
        <ele>1780.2</ele>
        <time>2015-06-21T09:48:28Z</time>
      </trkpt>
      <trkpt lat="42.00214" lon="9.2154">
        <ele>1778.6</ele>
        <time>2015-06-21T09:48:39Z</time>
      </trkpt>
      <trkpt lat="42.00218" lon="9.21534">
        <ele>1777.6</ele>
        <time>2015-06-21T09:48:46Z</time>
      </trkpt>
      <trkpt lat="42.00222" lon="9.21527">
        <ele>1776.4</ele>
        <time>2015-06-21T09:48:54Z</time>
      </trkpt>
      <trkpt lat="42.00226" lon="9.21521">
        <ele>1775.6</ele>
        <time>2015-06-21T09:49:01Z</time>
      </trkpt>
      <trkpt lat="42.00229" lon="9.21519">
        <ele>1775</ele>
        <time>2015-06-21T09:49:05Z</time>
      </trkpt>
      <trkpt lat="42.0023" lon="9.21518">
        <ele>1774.8</ele>
        <time>2015-06-21T09:49:06Z</time>
      </trkpt>
      <trkpt lat="42.00238" lon="9.21499">
        <ele>1772.8</ele>
        <time>2015-06-21T09:49:24Z</time>
      </trkpt>
      <trkpt lat="42.0024" lon="9.21498">
        <ele>1772.8</ele>
        <time>2015-06-21T09:49:26Z</time>
      </trkpt>
      <trkpt lat="42.00242" lon="9.21496">
        <ele>1772</ele>
        <time>2015-06-21T09:49:31Z</time>
      </trkpt>
      <trkpt lat="42.00244" lon="9.21495">
        <ele>1771.6</ele>
        <time>2015-06-21T09:49:35Z</time>
      </trkpt>
      <trkpt lat="42.00249" lon="9.21494">
        <ele>1770</ele>
        <time>2015-06-21T09:49:43Z</time>
      </trkpt>
      <trkpt lat="42.00251" lon="9.21499">
        <ele>1769</ele>
        <time>2015-06-21T09:49:49Z</time>
      </trkpt>
      <trkpt lat="42.00254" lon="9.21504">
        <ele>1767.8</ele>
        <time>2015-06-21T09:49:57Z</time>
      </trkpt>
      <trkpt lat="42.00256" lon="9.21505">
        <ele>1767</ele>
        <time>2015-06-21T09:50:02Z</time>
      </trkpt>
      <trkpt lat="42.00259" lon="9.21503">
        <ele>1765.2</ele>
        <time>2015-06-21T09:50:17Z</time>
      </trkpt>
      <trkpt lat="42.00264" lon="9.215">
        <ele>1764.4</ele>
        <time>2015-06-21T09:50:26Z</time>
      </trkpt>
      <trkpt lat="42.00267" lon="9.215">
        <ele>1764</ele>
        <time>2015-06-21T09:50:31Z</time>
      </trkpt>
      <trkpt lat="42.00272" lon="9.21495">
        <ele>1762.4</ele>
        <time>2015-06-21T09:50:39Z</time>
      </trkpt>
      <trkpt lat="42.00273" lon="9.21493">
        <ele>1762.2</ele>
        <time>2015-06-21T09:50:41Z</time>
      </trkpt>
      <trkpt lat="42.00275" lon="9.21491">
        <ele>1762</ele>
        <time>2015-06-21T09:50:43Z</time>
      </trkpt>
      <trkpt lat="42.00278" lon="9.21485">
        <ele>1760.2</ele>
        <time>2015-06-21T09:50:51Z</time>
      </trkpt>
      <trkpt lat="42.00282" lon="9.2148">
        <ele>1759.2</ele>
        <time>2015-06-21T09:51:00Z</time>
      </trkpt>
      <trkpt lat="42.00287" lon="9.21478">
        <ele>1758</ele>
        <time>2015-06-21T09:51:09Z</time>
      </trkpt>
      <trkpt lat="42.00292" lon="9.21476">
        <ele>1757.4</ele>
        <time>2015-06-21T09:51:17Z</time>
      </trkpt>
      <trkpt lat="42.00295" lon="9.21473">
        <ele>1756.4</ele>
        <time>2015-06-21T09:51:23Z</time>
      </trkpt>
      <trkpt lat="42.00297" lon="9.21469">
        <ele>1755.2</ele>
        <time>2015-06-21T09:51:29Z</time>
      </trkpt>
      <trkpt lat="42.00299" lon="9.21464">
        <ele>1753.6</ele>
        <time>2015-06-21T09:51:37Z</time>
      </trkpt>
      <trkpt lat="42.00302" lon="9.21462">
        <ele>1752.6</ele>
        <time>2015-06-21T09:51:44Z</time>
      </trkpt>
      <trkpt lat="42.00303" lon="9.2146">
        <ele>1752</ele>
        <time>2015-06-21T09:51:49Z</time>
      </trkpt>
      <trkpt lat="42.00304" lon="9.21457">
        <ele>1751</ele>
        <time>2015-06-21T09:51:54Z</time>
      </trkpt>
      <trkpt lat="42.00306" lon="9.21455">
        <ele>1750</ele>
        <time>2015-06-21T09:51:59Z</time>
      </trkpt>
      <trkpt lat="42.00308" lon="9.21451">
        <ele>1748.6</ele>
        <time>2015-06-21T09:52:06Z</time>
      </trkpt>
      <trkpt lat="42.0031" lon="9.21447">
        <ele>1747.6</ele>
        <time>2015-06-21T09:52:13Z</time>
      </trkpt>
      <trkpt lat="42.00312" lon="9.21444">
        <ele>1746.6</ele>
        <time>2015-06-21T09:52:20Z</time>
      </trkpt>
      <trkpt lat="42.00315" lon="9.21444">
        <ele>1745</ele>
        <time>2015-06-21T09:52:28Z</time>
      </trkpt>
      <trkpt lat="42.00318" lon="9.21443">
        <ele>1744.6</ele>
        <time>2015-06-21T09:52:34Z</time>
      </trkpt>
      <trkpt lat="42.0032" lon="9.21448">
        <ele>1743.8</ele>
        <time>2015-06-21T09:52:38Z</time>
      </trkpt>
      <trkpt lat="42.00322" lon="9.21448">
        <ele>1743</ele>
        <time>2015-06-21T09:52:41Z</time>
      </trkpt>
      <trkpt lat="42.00324" lon="9.21444">
        <ele>1741.8</ele>
        <time>2015-06-21T09:52:48Z</time>
      </trkpt>
      <trkpt lat="42.00327" lon="9.21436">
        <ele>1740.8</ele>
        <time>2015-06-21T09:52:55Z</time>
      </trkpt>
      <trkpt lat="42.00331" lon="9.21431">
        <ele>1739.8</ele>
        <time>2015-06-21T09:53:02Z</time>
      </trkpt>
      <trkpt lat="42.00337" lon="9.21431">
        <ele>1738.8</ele>
        <time>2015-06-21T09:53:10Z</time>
      </trkpt>
      <trkpt lat="42.0034" lon="9.21433">
        <ele>1737.6</ele>
        <time>2015-06-21T09:53:16Z</time>
      </trkpt>
      <trkpt lat="42.00345" lon="9.21436">
        <ele>1736.4</ele>
        <time>2015-06-21T09:53:23Z</time>
      </trkpt>
      <trkpt lat="42.00348" lon="9.21435">
        <ele>1735.4</ele>
        <time>2015-06-21T09:53:29Z</time>
      </trkpt>
      <trkpt lat="42.00351" lon="9.2143">
        <ele>1734.4</ele>
        <time>2015-06-21T09:53:35Z</time>
      </trkpt>
      <trkpt lat="42.00352" lon="9.21429">
        <ele>1734</ele>
        <time>2015-06-21T09:53:38Z</time>
      </trkpt>
      <trkpt lat="42.00356" lon="9.21426">
        <ele>1732.4</ele>
        <time>2015-06-21T09:53:44Z</time>
      </trkpt>
      <trkpt lat="42.0036" lon="9.21424">
        <ele>1731.2</ele>
        <time>2015-06-21T09:53:51Z</time>
      </trkpt>
      <trkpt lat="42.00364" lon="9.21428">
        <ele>1729.6</ele>
        <time>2015-06-21T09:54:00Z</time>
      </trkpt>
      <trkpt lat="42.00367" lon="9.21432">
        <ele>1728.8</ele>
        <time>2015-06-21T09:54:06Z</time>
      </trkpt>
      <trkpt lat="42.00369" lon="9.21435">
        <ele>1728</ele>
        <time>2015-06-21T09:54:12Z</time>
      </trkpt>
      <trkpt lat="42.00373" lon="9.21438">
        <ele>1726.4</ele>
        <time>2015-06-21T09:54:19Z</time>
      </trkpt>
      <trkpt lat="42.00376" lon="9.21438">
        <ele>1725.4</ele>
        <time>2015-06-21T09:54:26Z</time>
      </trkpt>
      <trkpt lat="42.00379" lon="9.21442">
        <ele>1724</ele>
        <time>2015-06-21T09:54:57Z</time>
      </trkpt>
      <trkpt lat="42.00384" lon="9.21437">
        <ele>1722.8</ele>
        <time>2015-06-21T09:55:10Z</time>
      </trkpt>
      <trkpt lat="42.00386" lon="9.21438">
        <ele>1722.4</ele>
        <time>2015-06-21T09:55:15Z</time>
      </trkpt>
      <trkpt lat="42.00388" lon="9.21439">
        <ele>1721.2</ele>
        <time>2015-06-21T09:55:21Z</time>
      </trkpt>
      <trkpt lat="42.00392" lon="9.21437">
        <ele>1719.8</ele>
        <time>2015-06-21T09:55:31Z</time>
      </trkpt>
      <trkpt lat="42.00395" lon="9.2144">
        <ele>1718.8</ele>
        <time>2015-06-21T09:55:38Z</time>
      </trkpt>
      <trkpt lat="42.00397" lon="9.21438">
        <ele>1717.8</ele>
        <time>2015-06-21T09:55:45Z</time>
      </trkpt>
      <trkpt lat="42.004" lon="9.21436">
        <ele>1717</ele>
        <time>2015-06-21T09:55:51Z</time>
      </trkpt>
      <trkpt lat="42.00404" lon="9.21434">
        <ele>1715.6</ele>
        <time>2015-06-21T09:55:58Z</time>
      </trkpt>
      <trkpt lat="42.00407" lon="9.21431">
        <ele>1715</ele>
        <time>2015-06-21T09:56:02Z</time>
      </trkpt>
      <trkpt lat="42.00409" lon="9.21431">
        <ele>1714.8</ele>
        <time>2015-06-21T09:56:04Z</time>
      </trkpt>
      <trkpt lat="42.00414" lon="9.21429">
        <ele>1713.6</ele>
        <time>2015-06-21T09:56:10Z</time>
      </trkpt>
      <trkpt lat="42.00415" lon="9.21429">
        <ele>1713.6</ele>
        <time>2015-06-21T09:56:11Z</time>
      </trkpt>
      <trkpt lat="42.00421" lon="9.21426">
        <ele>1712.4</ele>
        <time>2015-06-21T09:56:17Z</time>
      </trkpt>
      <trkpt lat="42.00429" lon="9.21421">
        <ele>1711.2</ele>
        <time>2015-06-21T09:56:25Z</time>
      </trkpt>
      <trkpt lat="42.00433" lon="9.21416">
        <ele>1710.8</ele>
        <time>2015-06-21T09:56:30Z</time>
      </trkpt>
      <trkpt lat="42.00439" lon="9.21407">
        <ele>1708.8</ele>
        <time>2015-06-21T09:56:38Z</time>
      </trkpt>
      <trkpt lat="42.00448" lon="9.21406">
        <ele>1708</ele>
        <time>2015-06-21T09:56:46Z</time>
      </trkpt>
      <trkpt lat="42.00469" lon="9.21404">
        <ele>1706.6</ele>
        <time>2015-06-21T09:57:05Z</time>
      </trkpt>
      <trkpt lat="42.00492" lon="9.21404">
        <ele>1705.6</ele>
        <time>2015-06-21T09:57:24Z</time>
      </trkpt>
      <trkpt lat="42.00511" lon="9.21398">
        <ele>1704.6</ele>
        <time>2015-06-21T09:57:41Z</time>
      </trkpt>
      <trkpt lat="42.0053" lon="9.21398">
        <ele>1703.6</ele>
        <time>2015-06-21T09:57:59Z</time>
      </trkpt>
      <trkpt lat="42.00542" lon="9.214">
        <ele>1702.8</ele>
        <time>2015-06-21T09:58:09Z</time>
      </trkpt>
      <trkpt lat="42.00559" lon="9.21407">
        <ele>1701.6</ele>
        <time>2015-06-21T09:58:24Z</time>
      </trkpt>
      <trkpt lat="42.00572" lon="9.21419">
        <ele>1700.8</ele>
        <time>2015-06-21T09:58:37Z</time>
      </trkpt>
      <trkpt lat="42.00574" lon="9.21423">
        <ele>1700.6</ele>
        <time>2015-06-21T09:58:40Z</time>
      </trkpt>
      <trkpt lat="42.00584" lon="9.21435">
        <ele>1699.6</ele>
        <time>2015-06-21T09:58:54Z</time>
      </trkpt>
      <trkpt lat="42.00593" lon="9.2144">
        <ele>1698.2</ele>
        <time>2015-06-21T09:59:03Z</time>
      </trkpt>
      <trkpt lat="42.006" lon="9.21443">
        <ele>1697.8</ele>
        <time>2015-06-21T09:59:10Z</time>
      </trkpt>
      <trkpt lat="42.00605" lon="9.21447">
        <ele>1697.4</ele>
        <time>2015-06-21T09:59:15Z</time>
      </trkpt>
      <trkpt lat="42.00607" lon="9.21449">
        <ele>1697.2</ele>
        <time>2015-06-21T09:59:17Z</time>
      </trkpt>
      <trkpt lat="42.00614" lon="9.21453">
        <ele>1696.6</ele>
        <time>2015-06-21T09:59:25Z</time>
      </trkpt>
      <trkpt lat="42.00615" lon="9.21455">
        <ele>1696.2</ele>
        <time>2015-06-21T09:59:27Z</time>
      </trkpt>
      <trkpt lat="42.00626" lon="9.21459">
        <ele>1695</ele>
        <time>2015-06-21T09:59:42Z</time>
      </trkpt>
      <trkpt lat="42.00634" lon="9.21461">
        <ele>1693.8</ele>
        <time>2015-06-21T09:59:51Z</time>
      </trkpt>
      <trkpt lat="42.00637" lon="9.21462">
        <ele>1693.4</ele>
        <time>2015-06-21T09:59:55Z</time>
      </trkpt>
      <trkpt lat="42.0064" lon="9.21462">
        <ele>1693</ele>
        <time>2015-06-21T09:59:58Z</time>
      </trkpt>
      <trkpt lat="42.00643" lon="9.21462">
        <ele>1692.6</ele>
        <time>2015-06-21T10:00:01Z</time>
      </trkpt>
      <trkpt lat="42.0065" lon="9.21464">
        <ele>1692.4</ele>
        <time>2015-06-21T10:00:07Z</time>
      </trkpt>
      <trkpt lat="42.00652" lon="9.21468">
        <ele>1691.4</ele>
        <time>2015-06-21T10:00:11Z</time>
      </trkpt>
      <trkpt lat="42.00654" lon="9.21468">
        <ele>1691</ele>
        <time>2015-06-21T10:00:13Z</time>
      </trkpt>
      <trkpt lat="42.00656" lon="9.21469">
        <ele>1690.6</ele>
        <time>2015-06-21T10:00:15Z</time>
      </trkpt>
      <trkpt lat="42.00664" lon="9.21476">
        <ele>1689.6</ele>
        <time>2015-06-21T10:00:24Z</time>
      </trkpt>
      <trkpt lat="42.00665" lon="9.21477">
        <ele>1689.4</ele>
        <time>2015-06-21T10:00:25Z</time>
      </trkpt>
      <trkpt lat="42.00671" lon="9.21484">
        <ele>1688.4</ele>
        <time>2015-06-21T10:00:33Z</time>
      </trkpt>
      <trkpt lat="42.00676" lon="9.21488">
        <ele>1687.8</ele>
        <time>2015-06-21T10:00:39Z</time>
      </trkpt>
      <trkpt lat="42.00681" lon="9.21495">
        <ele>1686.4</ele>
        <time>2015-06-21T10:00:46Z</time>
      </trkpt>
      <trkpt lat="42.00683" lon="9.21501">
        <ele>1685.8</ele>
        <time>2015-06-21T10:00:51Z</time>
      </trkpt>
      <trkpt lat="42.00685" lon="9.21501">
        <ele>1685.4</ele>
        <time>2015-06-21T10:00:53Z</time>
      </trkpt>
      <trkpt lat="42.00686" lon="9.21502">
        <ele>1685.2</ele>
        <time>2015-06-21T10:00:54Z</time>
      </trkpt>
      <trkpt lat="42.00687" lon="9.21505">
        <ele>1685</ele>
        <time>2015-06-21T10:00:56Z</time>
      </trkpt>
      <trkpt lat="42.00688" lon="9.21515">
        <ele>1683.8</ele>
        <time>2015-06-21T10:01:03Z</time>
      </trkpt>
      <trkpt lat="42.00689" lon="9.21517">
        <ele>1683.6</ele>
        <time>2015-06-21T10:01:05Z</time>
      </trkpt>
      <trkpt lat="42.00693" lon="9.21528">
        <ele>1683.6</ele>
        <time>2015-06-21T10:01:13Z</time>
      </trkpt>
      <trkpt lat="42.00703" lon="9.21539">
        <ele>1683.4</ele>
        <time>2015-06-21T10:01:25Z</time>
      </trkpt>
      <trkpt lat="42.00703" lon="9.21542">
        <ele>1683.4</ele>
        <time>2015-06-21T10:01:27Z</time>
      </trkpt>
      <trkpt lat="42.00706" lon="9.21548">
        <ele>1683</ele>
        <time>2015-06-21T10:01:32Z</time>
      </trkpt>
      <trkpt lat="42.00707" lon="9.21552">
        <ele>1682.8</ele>
        <time>2015-06-21T10:01:35Z</time>
      </trkpt>
      <trkpt lat="42.00713" lon="9.21558">
        <ele>1682.2</ele>
        <time>2015-06-21T10:01:41Z</time>
      </trkpt>
      <trkpt lat="42.00719" lon="9.21567">
        <ele>1681.8</ele>
        <time>2015-06-21T10:01:49Z</time>
      </trkpt>
      <trkpt lat="42.00724" lon="9.21575">
        <ele>1681</ele>
        <time>2015-06-21T10:01:58Z</time>
      </trkpt>
      <trkpt lat="42.00729" lon="9.21587">
        <ele>1680</ele>
        <time>2015-06-21T10:02:08Z</time>
      </trkpt>
      <trkpt lat="42.00735" lon="9.21598">
        <ele>1679</ele>
        <time>2015-06-21T10:02:18Z</time>
      </trkpt>
      <trkpt lat="42.00739" lon="9.21608">
        <ele>1677.8</ele>
        <time>2015-06-21T10:02:27Z</time>
      </trkpt>
      <trkpt lat="42.00745" lon="9.21621">
        <ele>1676.8</ele>
        <time>2015-06-21T10:02:38Z</time>
      </trkpt>
      <trkpt lat="42.00759" lon="9.21643">
        <ele>1675.8</ele>
        <time>2015-06-21T10:02:58Z</time>
      </trkpt>
      <trkpt lat="42.0076" lon="9.21645">
        <ele>1675.6</ele>
        <time>2015-06-21T10:03:00Z</time>
      </trkpt>
      <trkpt lat="42.00764" lon="9.21652">
        <ele>1675.2</ele>
        <time>2015-06-21T10:03:08Z</time>
      </trkpt>
      <trkpt lat="42.00766" lon="9.21657">
        <ele>1675</ele>
        <time>2015-06-21T10:03:12Z</time>
      </trkpt>
      <trkpt lat="42.00782" lon="9.21695">
        <ele>1674.4</ele>
        <time>2015-06-21T10:03:40Z</time>
      </trkpt>
      <trkpt lat="42.008" lon="9.21737">
        <ele>1673.8</ele>
        <time>2015-06-21T10:04:14Z</time>
      </trkpt>
      <trkpt lat="42.00809" lon="9.21745">
        <ele>1673.8</ele>
        <time>2015-06-21T10:04:24Z</time>
      </trkpt>
      <trkpt lat="42.0084" lon="9.2178">
        <ele>1674</ele>
        <time>2015-06-21T10:05:21Z</time>
      </trkpt>
      <trkpt lat="42.0084" lon="9.2179">
        <ele>1674</ele>
        <time>2015-06-21T10:05:30Z</time>
      </trkpt>
      <trkpt lat="42.0084" lon="9.21792">
        <ele>1674</ele>
        <time>2015-06-21T10:05:31Z</time>
      </trkpt>
      <trkpt lat="42.00838" lon="9.21798">
        <ele>1673.8</ele>
        <time>2015-06-21T10:05:36Z</time>
      </trkpt>
      <trkpt lat="42.00838" lon="9.21812">
        <ele>1673</ele>
        <time>2015-06-21T10:05:48Z</time>
      </trkpt>
      <trkpt lat="42.00837" lon="9.21815">
        <ele>1672.8</ele>
        <time>2015-06-21T10:05:52Z</time>
      </trkpt>
      <trkpt lat="42.00834" lon="9.21817">
        <ele>1672.6</ele>
        <time>2015-06-21T10:05:56Z</time>
      </trkpt>
      <trkpt lat="42.00826" lon="9.2182">
        <ele>1671.2</ele>
        <time>2015-06-21T10:06:06Z</time>
      </trkpt>
      <trkpt lat="42.00825" lon="9.21814">
        <ele>1671</ele>
        <time>2015-06-21T10:06:09Z</time>
      </trkpt>
      <trkpt lat="42.00824" lon="9.21815">
        <ele>1670.6</ele>
        <time>2015-06-21T10:06:12Z</time>
      </trkpt>
      <trkpt lat="42.00824" lon="9.21814">
        <ele>1670</ele>
        <time>2015-06-21T10:06:16Z</time>
      </trkpt>
      <trkpt lat="42.00824" lon="9.21824">
        <ele>1669.2</ele>
        <time>2015-06-21T10:07:12Z</time>
      </trkpt>
      <trkpt lat="42.00823" lon="9.21826">
        <ele>1668.4</ele>
        <time>2015-06-21T10:07:58Z</time>
      </trkpt>
      <trkpt lat="42.00823" lon="9.21829">
        <ele>1668.8</ele>
        <time>2015-06-21T10:09:06Z</time>
      </trkpt>
      <trkpt lat="42.00824" lon="9.21828">
        <ele>1669</ele>
        <time>2015-06-21T10:09:12Z</time>
      </trkpt>
      <trkpt lat="42.00824" lon="9.21826">
        <ele>1669.8</ele>
        <time>2015-06-21T10:09:39Z</time>
      </trkpt>
      <trkpt lat="42.0083" lon="9.21831">
        <ele>1669.8</ele>
        <time>2015-06-21T10:10:13Z</time>
      </trkpt>
      <trkpt lat="42.00841" lon="9.21831">
        <ele>1670.2</ele>
        <time>2015-06-21T10:10:27Z</time>
      </trkpt>
      <trkpt lat="42.00847" lon="9.21835">
        <ele>1671.6</ele>
        <time>2015-06-21T10:10:38Z</time>
      </trkpt>
      <trkpt lat="42.00856" lon="9.21838">
        <ele>1672.6</ele>
        <time>2015-06-21T10:11:29Z</time>
      </trkpt>
      <trkpt lat="42.00857" lon="9.21822">
        <ele>1673.8</ele>
        <time>2015-06-21T10:13:31Z</time>
      </trkpt>
      <trkpt lat="42.00859" lon="9.21822">
        <ele>1674.2</ele>
        <time>2015-06-21T10:13:47Z</time>
      </trkpt>
      <trkpt lat="42.00859" lon="9.21821">
        <ele>1675</ele>
        <time>2015-06-21T10:13:56Z</time>
      </trkpt>
      <trkpt lat="42.00859" lon="9.21824">
        <ele>1676</ele>
        <time>2015-06-21T10:14:11Z</time>
      </trkpt>
      <trkpt lat="42.00859" lon="9.21824">
        <ele>1676</ele>
        <time>2015-06-21T10:14:14Z</time>
      </trkpt>
      <trkpt lat="42.00859" lon="9.21825">
        <ele>1675.6</ele>
        <time>2015-06-21T10:14:16Z</time>
      </trkpt>
      <trkpt lat="42.0086" lon="9.21824">
        <ele>1675.6</ele>
        <time>2015-06-21T10:14:26Z</time>
      </trkpt>
      <trkpt lat="42.0086" lon="9.21824">
        <ele>1675.6</ele>
        <time>2015-06-21T10:14:28Z</time>
      </trkpt>
    </trkseg>
  </trk>
</gpx>